<?xml version='1.0' encoding='UTF-8'?><gpx version="1.1" creator="JPX - https://github.com/jenetics/jpx" xmlns="http://www.topografix.com/GPX/1/1"><trk><trkseg><trkpt lat="43.8674637" lon="11.1648834"><ele>66.0</ele><time>2026-05-02T09:05:06.992Z</time></trkpt><trkpt lat="43.8675246" lon="11.1647913"><ele>66.0</ele><time>2026-05-02T09:05:39.992Z</time></trkpt><trkpt lat="43.8675719" lon="11.1647273"><ele>66.0</ele><time>2026-05-02T09:05:41.993Z</time></trkpt><trkpt lat="43.8676214" lon="11.1648127"><ele>66.0</ele><time>2026-05-02T09:05:43.992Z</time></trkpt><trkpt lat="43.8675837" lon="11.1649185"><ele>66.0</ele><time>2026-05-02T09:05:45.992Z</time></trkpt><trkpt lat="43.8675051" lon="11.1650253"><ele>66.0</ele><time>2026-05-02T09:05:47.992Z</time></trkpt><trkpt lat="43.8674615" lon="11.1651324"><ele>66.0</ele><time>2026-05-02T09:05:50.993Z</time></trkpt><trkpt lat="43.867457" lon="11.1653263"><ele>66.0</ele><time>2026-05-02T09:05:52.993Z</time></trkpt><trkpt lat="43.8674378" lon="11.1654767"><ele>66.0</ele><time>2026-05-02T09:05:53.992Z</time></trkpt><trkpt lat="43.8674084" lon="11.1656306"><ele>66.0</ele><time>2026-05-02T09:05:54.993Z</time></trkpt><trkpt lat="43.8673812" lon="11.1657693"><ele>66.2</ele><time>2026-05-02T09:05:55.992Z</time></trkpt><trkpt lat="43.8673519" lon="11.1658869"><ele>66.39999999999999</ele><time>2026-05-02T09:05:56.992Z</time></trkpt><trkpt lat="43.8673314" lon="11.1659885"><ele>66.6</ele><time>2026-05-02T09:05:57.992Z</time></trkpt><trkpt lat="43.8673131" lon="11.1661016"><ele>66.8</ele><time>2026-05-02T09:05:58.993Z</time></trkpt><trkpt lat="43.8672913" lon="11.1662275"><ele>67.0</ele><time>2026-05-02T09:05:59.992Z</time></trkpt><trkpt lat="43.8672465" lon="11.1663807"><ele>67.0</ele><time>2026-05-02T09:06:00.993Z</time></trkpt><trkpt lat="43.8671928" lon="11.166523"><ele>67.0</ele><time>2026-05-02T09:06:01.992Z</time></trkpt><trkpt lat="43.8671333" lon="11.1666458"><ele>67.0</ele><time>2026-05-02T09:06:02.993Z</time></trkpt><trkpt lat="43.86707" lon="11.1667722"><ele>67.0</ele><time>2026-05-02T09:06:03.992Z</time></trkpt><trkpt lat="43.867015" lon="11.1668812"><ele>67.0</ele><time>2026-05-02T09:06:04.992Z</time></trkpt><trkpt lat="43.8669648" lon="11.1669819"><ele>67.16666666666666</ele><time>2026-05-02T09:06:05.992Z</time></trkpt><trkpt lat="43.8669188" lon="11.1670636"><ele>67.33333333333333</ele><time>2026-05-02T09:06:06.992Z</time></trkpt><trkpt lat="43.8668652" lon="11.1671248"><ele>67.5</ele><time>2026-05-02T09:06:07.992Z</time></trkpt><trkpt lat="43.8668138" lon="11.1671787"><ele>67.66666666666667</ele><time>2026-05-02T09:06:08.993Z</time></trkpt><trkpt lat="43.8667311" lon="11.1672534"><ele>67.83333333333334</ele><time>2026-05-02T09:06:10.992Z</time></trkpt><trkpt lat="43.8667503" lon="11.167357"><ele>68.0</ele><time>2026-05-02T09:06:17.992Z</time></trkpt><trkpt lat="43.8668918" lon="11.1673873"><ele>69.4</ele><time>2026-05-02T09:06:19.992Z</time></trkpt><trkpt lat="43.8669863" lon="11.1674135"><ele>70.8</ele><time>2026-05-02T09:06:20.993Z</time></trkpt><trkpt lat="43.8670929" lon="11.167455"><ele>72.2</ele><time>2026-05-02T09:06:21.993Z</time></trkpt><trkpt lat="43.8672057" lon="11.1675046"><ele>73.6</ele><time>2026-05-02T09:06:22.992Z</time></trkpt><trkpt lat="43.8673114" lon="11.1675481"><ele>75.0</ele><time>2026-05-02T09:06:23.993Z</time></trkpt><trkpt lat="43.8674059" lon="11.1675824"><ele>75.0</ele><time>2026-05-02T09:06:24.994Z</time></trkpt><trkpt lat="43.8674972" lon="11.1676175"><ele>75.0</ele><time>2026-05-02T09:06:25.992Z</time></trkpt><trkpt lat="43.8675804" lon="11.1676612"><ele>75.0</ele><time>2026-05-02T09:06:26.992Z</time></trkpt><trkpt lat="43.8676647" lon="11.1676847"><ele>75.0</ele><time>2026-05-02T09:06:27.992Z</time></trkpt><trkpt lat="43.8677605" lon="11.1677048"><ele>75.0</ele><time>2026-05-02T09:06:28.992Z</time></trkpt><trkpt lat="43.8678462" lon="11.1677274"><ele>74.4</ele><time>2026-05-02T09:06:29.992Z</time></trkpt><trkpt lat="43.867949" lon="11.1677376"><ele>73.8</ele><time>2026-05-02T09:06:30.993Z</time></trkpt><trkpt lat="43.8680481" lon="11.1677525"><ele>73.2</ele><time>2026-05-02T09:06:31.992Z</time></trkpt><trkpt lat="43.8681581" lon="11.1677631"><ele>72.6</ele><time>2026-05-02T09:06:32.993Z</time></trkpt><trkpt lat="43.868263" lon="11.1677844"><ele>72.0</ele><time>2026-05-02T09:06:33.992Z</time></trkpt><trkpt lat="43.86837" lon="11.1678127"><ele>71.8</ele><time>2026-05-02T09:06:34.992Z</time></trkpt><trkpt lat="43.8684683" lon="11.1678728"><ele>71.6</ele><time>2026-05-02T09:06:35.992Z</time></trkpt><trkpt lat="43.8685656" lon="11.1679318"><ele>71.39999999999999</ele><time>2026-05-02T09:06:36.992Z</time></trkpt><trkpt lat="43.8686648" lon="11.1679941"><ele>71.2</ele><time>2026-05-02T09:06:37.992Z</time></trkpt><trkpt lat="43.8687716" lon="11.1680445"><ele>71.0</ele><time>2026-05-02T09:06:38.992Z</time></trkpt><trkpt lat="43.8688834" lon="11.1680787"><ele>71.0</ele><time>2026-05-02T09:06:39.992Z</time></trkpt><trkpt lat="43.8690078" lon="11.1680995"><ele>71.0</ele><time>2026-05-02T09:06:40.992Z</time></trkpt><trkpt lat="43.8691308" lon="11.1681122"><ele>71.0</ele><time>2026-05-02T09:06:41.992Z</time></trkpt><trkpt lat="43.8692444" lon="11.1681188"><ele>71.0</ele><time>2026-05-02T09:06:42.992Z</time></trkpt><trkpt lat="43.8693408" lon="11.1681217"><ele>71.16666666666667</ele><time>2026-05-02T09:06:43.992Z</time></trkpt><trkpt lat="43.8694302" lon="11.1681225"><ele>71.33333333333334</ele><time>2026-05-02T09:06:44.993Z</time></trkpt><trkpt lat="43.8695032" lon="11.1681404"><ele>71.5</ele><time>2026-05-02T09:06:45.992Z</time></trkpt><trkpt lat="43.8695714" lon="11.1681471"><ele>71.66666666666667</ele><time>2026-05-02T09:06:46.992Z</time></trkpt><trkpt lat="43.8696655" lon="11.1681638"><ele>71.83333333333333</ele><time>2026-05-02T09:06:48.993Z</time></trkpt><trkpt lat="43.8697442" lon="11.1681552"><ele>72.0</ele><time>2026-05-02T09:07:10.992Z</time></trkpt><trkpt lat="43.8698085" lon="11.1681646"><ele>72.0</ele><time>2026-05-02T09:07:11.992Z</time></trkpt><trkpt lat="43.8698822" lon="11.1681708"><ele>72.0</ele><time>2026-05-02T09:07:12.992Z</time></trkpt><trkpt lat="43.8699593" lon="11.1681756"><ele>72.0</ele><time>2026-05-02T09:07:13.992Z</time></trkpt><trkpt lat="43.8700287" lon="11.1681744"><ele>72.0</ele><time>2026-05-02T09:07:14.992Z</time></trkpt><trkpt lat="43.8700924" lon="11.1681665"><ele>72.0</ele><time>2026-05-02T09:07:15.992Z</time></trkpt><trkpt lat="43.8701819" lon="11.1681304"><ele>72.0</ele><time>2026-05-02T09:07:17.992Z</time></trkpt><trkpt lat="43.8702632" lon="11.1680827"><ele>71.4</ele><time>2026-05-02T09:07:39.992Z</time></trkpt><trkpt lat="43.8703656" lon="11.1680985"><ele>70.80000000000001</ele><time>2026-05-02T09:07:41.992Z</time></trkpt><trkpt lat="43.8704216" lon="11.1681547"><ele>70.2</ele><time>2026-05-02T09:07:42.992Z</time></trkpt><trkpt lat="43.8704897" lon="11.1682336"><ele>69.60000000000001</ele><time>2026-05-02T09:07:43.992Z</time></trkpt><trkpt lat="43.8705739" lon="11.168312"><ele>69.0</ele><time>2026-05-02T09:07:44.992Z</time></trkpt><trkpt lat="43.8706641" lon="11.1683942"><ele>69.4</ele><time>2026-05-02T09:07:45.992Z</time></trkpt><trkpt lat="43.8707552" lon="11.16848"><ele>69.80000000000001</ele><time>2026-05-02T09:07:46.992Z</time></trkpt><trkpt lat="43.8708383" lon="11.1685615"><ele>70.19999999999999</ele><time>2026-05-02T09:07:47.992Z</time></trkpt><trkpt lat="43.8709117" lon="11.1686441"><ele>70.6</ele><time>2026-05-02T09:07:48.993Z</time></trkpt><trkpt lat="43.8709753" lon="11.1687191"><ele>71.0</ele><time>2026-05-02T09:07:49.992Z</time></trkpt><trkpt lat="43.8710332" lon="11.1687845"><ele>71.0</ele><time>2026-05-02T09:07:50.992Z</time></trkpt><trkpt lat="43.8710945" lon="11.1688444"><ele>71.0</ele><time>2026-05-02T09:07:51.993Z</time></trkpt><trkpt lat="43.8711588" lon="11.1689109"><ele>71.0</ele><time>2026-05-02T09:07:52.993Z</time></trkpt><trkpt lat="43.871223" lon="11.1689725"><ele>71.0</ele><time>2026-05-02T09:07:53.992Z</time></trkpt><trkpt lat="43.8712797" lon="11.1690351"><ele>71.0</ele><time>2026-05-02T09:07:54.992Z</time></trkpt><trkpt lat="43.871328" lon="11.1690932"><ele>71.0</ele><time>2026-05-02T09:07:55.992Z</time></trkpt><trkpt lat="43.8714204" lon="11.1692136"><ele>71.5</ele><time>2026-05-02T09:07:57.992Z</time></trkpt><trkpt lat="43.8714732" lon="11.1692915"><ele>72.0</ele><time>2026-05-02T09:07:58.992Z</time></trkpt><trkpt lat="43.8715324" lon="11.1693749"><ele>72.5</ele><time>2026-05-02T09:07:59.992Z</time></trkpt><trkpt lat="43.871589" lon="11.1694721"><ele>73.0</ele><time>2026-05-02T09:08:00.992Z</time></trkpt><trkpt lat="43.8716442" lon="11.1695651"><ele>73.5</ele><time>2026-05-02T09:08:01.992Z</time></trkpt><trkpt lat="43.8716935" lon="11.1696567"><ele>74.0</ele><time>2026-05-02T09:08:02.993Z</time></trkpt><trkpt lat="43.8717189" lon="11.1697455"><ele>73.83333333333334</ele><time>2026-05-02T09:08:04.992Z</time></trkpt><trkpt lat="43.871742" lon="11.1698702"><ele>73.66666666666667</ele><time>2026-05-02T09:08:06.992Z</time></trkpt><trkpt lat="43.8717525" lon="11.1699636"><ele>73.5</ele><time>2026-05-02T09:08:07.992Z</time></trkpt><trkpt lat="43.8717894" lon="11.1700494"><ele>73.33333333333333</ele><time>2026-05-02T09:08:08.992Z</time></trkpt><trkpt lat="43.871849" lon="11.1700956"><ele>73.16666666666666</ele><time>2026-05-02T09:08:09.992Z</time></trkpt><trkpt lat="43.8719582" lon="11.1700818"><ele>73.0</ele><time>2026-05-02T09:08:11.993Z</time></trkpt><trkpt lat="43.8720278" lon="11.1699454"><ele>72.8</ele><time>2026-05-02T09:08:13.992Z</time></trkpt><trkpt lat="43.8720332" lon="11.1698396"><ele>72.6</ele><time>2026-05-02T09:08:14.992Z</time></trkpt><trkpt lat="43.8720187" lon="11.1697444"><ele>72.4</ele><time>2026-05-02T09:08:15.992Z</time></trkpt><trkpt lat="43.8720167" lon="11.1696"><ele>72.2</ele><time>2026-05-02T09:08:17.992Z</time></trkpt><trkpt lat="43.8720698" lon="11.1694392"><ele>72.0</ele><time>2026-05-02T09:08:19.992Z</time></trkpt><trkpt lat="43.8721091" lon="11.1693527"><ele>72.00000000000001</ele><time>2026-05-02T09:08:20.992Z</time></trkpt><trkpt lat="43.8721549" lon="11.1692753"><ele>72.0</ele><time>2026-05-02T09:08:21.992Z</time></trkpt><trkpt lat="43.8722088" lon="11.1692078"><ele>72.0</ele><time>2026-05-02T09:08:22.992Z</time></trkpt><trkpt lat="43.8722698" lon="11.1691481"><ele>72.0</ele><time>2026-05-02T09:08:23.993Z</time></trkpt><trkpt lat="43.8723241" lon="11.1690912"><ele>72.0</ele><time>2026-05-02T09:08:24.992Z</time></trkpt><trkpt lat="43.8723809" lon="11.1690348"><ele>72.00000000000001</ele><time>2026-05-02T09:08:25.992Z</time></trkpt><trkpt lat="43.8724326" lon="11.1689813"><ele>72.0</ele><time>2026-05-02T09:08:26.992Z</time></trkpt><trkpt lat="43.8724896" lon="11.1688686"><ele>71.8</ele><time>2026-05-02T09:08:28.992Z</time></trkpt><trkpt lat="43.8724886" lon="11.1687137"><ele>71.6</ele><time>2026-05-02T09:08:30.992Z</time></trkpt><trkpt lat="43.87246" lon="11.168631"><ele>71.39999999999999</ele><time>2026-05-02T09:08:31.993Z</time></trkpt><trkpt lat="43.8724121" lon="11.1685297"><ele>71.2</ele><time>2026-05-02T09:08:32.992Z</time></trkpt><trkpt lat="43.8723528" lon="11.1684201"><ele>71.0</ele><time>2026-05-02T09:08:33.992Z</time></trkpt><trkpt lat="43.8723079" lon="11.1683136"><ele>71.0</ele><time>2026-05-02T09:08:34.992Z</time></trkpt><trkpt lat="43.872273" lon="11.1682152"><ele>71.0</ele><time>2026-05-02T09:08:35.994Z</time></trkpt><trkpt lat="43.8722401" lon="11.1681255"><ele>71.0</ele><time>2026-05-02T09:08:36.992Z</time></trkpt><trkpt lat="43.8722137" lon="11.1680425"><ele>71.0</ele><time>2026-05-02T09:08:37.992Z</time></trkpt><trkpt lat="43.8721988" lon="11.1679256"><ele>71.0</ele><time>2026-05-02T09:08:39.993Z</time></trkpt><trkpt lat="43.8722344" lon="11.167835"><ele>71.0</ele><time>2026-05-02T09:08:41.992Z</time></trkpt><trkpt lat="43.8723069" lon="11.167755"><ele>70.83333333333334</ele><time>2026-05-02T09:08:43.992Z</time></trkpt><trkpt lat="43.8723699" lon="11.1676952"><ele>70.66666666666667</ele><time>2026-05-02T09:08:44.993Z</time></trkpt><trkpt lat="43.8724578" lon="11.1675991"><ele>70.5</ele><time>2026-05-02T09:08:46.992Z</time></trkpt><trkpt lat="43.8725239" lon="11.1675396"><ele>70.33333333333333</ele><time>2026-05-02T09:08:48.992Z</time></trkpt><trkpt lat="43.8725795" lon="11.167489"><ele>70.16666666666666</ele><time>2026-05-02T09:08:53.992Z</time></trkpt><trkpt lat="43.8726385" lon="11.1673786"><ele>70.0</ele><time>2026-05-02T09:08:58.992Z</time></trkpt><trkpt lat="43.8727095" lon="11.1673022"><ele>70.33333333333333</ele><time>2026-05-02T09:09:00.992Z</time></trkpt><trkpt lat="43.8727618" lon="11.1672424"><ele>70.66666666666666</ele><time>2026-05-02T09:09:03.992Z</time></trkpt><trkpt lat="43.8728344" lon="11.1671695"><ele>71.0</ele><time>2026-05-02T09:09:09.992Z</time></trkpt><trkpt lat="43.8728922" lon="11.167106"><ele>71.33333333333333</ele><time>2026-05-02T09:09:10.992Z</time></trkpt><trkpt lat="43.8729566" lon="11.167026"><ele>71.66666666666667</ele><time>2026-05-02T09:09:11.992Z</time></trkpt><trkpt lat="43.8730163" lon="11.1669468"><ele>72.0</ele><time>2026-05-02T09:09:12.992Z</time></trkpt><trkpt lat="43.8730729" lon="11.1668786"><ele>72.0</ele><time>2026-05-02T09:09:13.993Z</time></trkpt><trkpt lat="43.8731276" lon="11.1668163"><ele>72.0</ele><time>2026-05-02T09:09:14.993Z</time></trkpt><trkpt lat="43.8731879" lon="11.166737"><ele>72.0</ele><time>2026-05-02T09:09:15.992Z</time></trkpt><trkpt lat="43.8732551" lon="11.1666587"><ele>72.0</ele><time>2026-05-02T09:09:16.992Z</time></trkpt><trkpt lat="43.8733107" lon="11.166582"><ele>72.0</ele><time>2026-05-02T09:09:17.992Z</time></trkpt><trkpt lat="43.8733705" lon="11.1664995"><ele>72.0</ele><time>2026-05-02T09:09:18.992Z</time></trkpt><trkpt lat="43.8734272" lon="11.1664182"><ele>71.83333333333333</ele><time>2026-05-02T09:09:19.994Z</time></trkpt><trkpt lat="43.8734768" lon="11.1663453"><ele>71.66666666666667</ele><time>2026-05-02T09:09:20.992Z</time></trkpt><trkpt lat="43.8735298" lon="11.1662839"><ele>71.5</ele><time>2026-05-02T09:09:21.992Z</time></trkpt><trkpt lat="43.873582" lon="11.1662283"><ele>71.33333333333334</ele><time>2026-05-02T09:09:22.993Z</time></trkpt><trkpt lat="43.873666" lon="11.1661976"><ele>71.16666666666667</ele><time>2026-05-02T09:09:24.99Z</time></trkpt><trkpt lat="43.8737259" lon="11.1662576"><ele>71.0</ele><time>2026-05-02T09:09:26.993Z</time></trkpt><trkpt lat="43.8738248" lon="11.1663823"><ele>71.0</ele><time>2026-05-02T09:09:28.994Z</time></trkpt><trkpt lat="43.8738884" lon="11.1664607"><ele>71.0</ele><time>2026-05-02T09:09:29.992Z</time></trkpt><trkpt lat="43.8739607" lon="11.1665421"><ele>71.0</ele><time>2026-05-02T09:09:30.992Z</time></trkpt><trkpt lat="43.8740257" lon="11.1666082"><ele>71.0</ele><time>2026-05-02T09:09:31.992Z</time></trkpt><trkpt lat="43.8740957" lon="11.1666581"><ele>71.0</ele><time>2026-05-02T09:09:32.992Z</time></trkpt><trkpt lat="43.8741831" lon="11.1667034"><ele>71.0</ele><time>2026-05-02T09:09:33.992Z</time></trkpt><trkpt lat="43.8742764" lon="11.1667626"><ele>71.16666666666667</ele><time>2026-05-02T09:09:34.992Z</time></trkpt><trkpt lat="43.8743569" lon="11.1668206"><ele>71.33333333333334</ele><time>2026-05-02T09:09:35.992Z</time></trkpt><trkpt lat="43.8744345" lon="11.1668829"><ele>71.5</ele><time>2026-05-02T09:09:36.993Z</time></trkpt><trkpt lat="43.8745047" lon="11.1669545"><ele>71.66666666666667</ele><time>2026-05-02T09:09:37.993Z</time></trkpt><trkpt lat="43.8745655" lon="11.1670366"><ele>71.83333333333333</ele><time>2026-05-02T09:09:38.992Z</time></trkpt><trkpt lat="43.874626" lon="11.1671261"><ele>72.0</ele><time>2026-05-02T09:09:39.993Z</time></trkpt><trkpt lat="43.874684" lon="11.1672129"><ele>72.0</ele><time>2026-05-02T09:09:40.992Z</time></trkpt><trkpt lat="43.8747484" lon="11.1672887"><ele>72.0</ele><time>2026-05-02T09:09:41.993Z</time></trkpt><trkpt lat="43.8748218" lon="11.167369"><ele>72.0</ele><time>2026-05-02T09:09:42.992Z</time></trkpt><trkpt lat="43.8749005" lon="11.1674613"><ele>72.0</ele><time>2026-05-02T09:09:43.992Z</time></trkpt><trkpt lat="43.8749764" lon="11.1675567"><ele>72.0</ele><time>2026-05-02T09:09:44.992Z</time></trkpt><trkpt lat="43.8750404" lon="11.1676383"><ele>72.16666666666667</ele><time>2026-05-02T09:09:45.992Z</time></trkpt><trkpt lat="43.875096" lon="11.1677114"><ele>72.33333333333333</ele><time>2026-05-02T09:09:46.992Z</time></trkpt><trkpt lat="43.87515" lon="11.167786"><ele>72.5</ele><time>2026-05-02T09:09:47.992Z</time></trkpt><trkpt lat="43.8752025" lon="11.1678613"><ele>72.66666666666666</ele><time>2026-05-02T09:09:48.993Z</time></trkpt><trkpt lat="43.8752861" lon="11.1679797"><ele>72.83333333333333</ele><time>2026-05-02T09:09:50.992Z</time></trkpt><trkpt lat="43.8753543" lon="11.1680741"><ele>73.0</ele><time>2026-05-02T09:09:52.993Z</time></trkpt><trkpt lat="43.8754149" lon="11.1681169"><ele>73.2</ele><time>2026-05-02T09:09:54.992Z</time></trkpt><trkpt lat="43.8755032" lon="11.1682079"><ele>73.4</ele><time>2026-05-02T09:09:56.992Z</time></trkpt><trkpt lat="43.8755966" lon="11.168334"><ele>73.60000000000001</ele><time>2026-05-02T09:09:58.993Z</time></trkpt><trkpt lat="43.8756459" lon="11.1684158"><ele>73.8</ele><time>2026-05-02T09:09:59.992Z</time></trkpt><trkpt lat="43.8756977" lon="11.1685047"><ele>74.0</ele><time>2026-05-02T09:10:00.992Z</time></trkpt><trkpt lat="43.8757489" lon="11.1685926"><ele>74.0</ele><time>2026-05-02T09:10:01.992Z</time></trkpt><trkpt lat="43.8757911" lon="11.1686773"><ele>74.0</ele><time>2026-05-02T09:10:02.992Z</time></trkpt><trkpt lat="43.8758253" lon="11.1687694"><ele>74.0</ele><time>2026-05-02T09:10:03.992Z</time></trkpt><trkpt lat="43.8758561" lon="11.1688617"><ele>74.0</ele><time>2026-05-02T09:10:04.992Z</time></trkpt><trkpt lat="43.8758875" lon="11.1689613"><ele>74.0</ele><time>2026-05-02T09:10:05.992Z</time></trkpt><trkpt lat="43.8759148" lon="11.1690614"><ele>74.0</ele><time>2026-05-02T09:10:06.992Z</time></trkpt><trkpt lat="43.8759392" lon="11.1691687"><ele>74.33333333333334</ele><time>2026-05-02T09:10:07.992Z</time></trkpt><trkpt lat="43.8759566" lon="11.1692807"><ele>74.66666666666667</ele><time>2026-05-02T09:10:08.992Z</time></trkpt><trkpt lat="43.8759691" lon="11.1693967"><ele>75.0</ele><time>2026-05-02T09:10:09.992Z</time></trkpt><trkpt lat="43.875981" lon="11.1695125"><ele>75.33333333333333</ele><time>2026-05-02T09:10:10.993Z</time></trkpt><trkpt lat="43.8760026" lon="11.1696337"><ele>75.66666666666666</ele><time>2026-05-02T09:10:11.992Z</time></trkpt><trkpt lat="43.8760284" lon="11.1697548"><ele>76.0</ele><time>2026-05-02T09:10:12.992Z</time></trkpt><trkpt lat="43.8760546" lon="11.169881"><ele>76.2</ele><time>2026-05-02T09:10:13.992Z</time></trkpt><trkpt lat="43.8760861" lon="11.1700114"><ele>76.39999999999999</ele><time>2026-05-02T09:10:14.992Z</time></trkpt><trkpt lat="43.8761255" lon="11.1701575"><ele>76.6</ele><time>2026-05-02T09:10:15.992Z</time></trkpt><trkpt lat="43.8761635" lon="11.1702896"><ele>76.8</ele><time>2026-05-02T09:10:16.993Z</time></trkpt><trkpt lat="43.8761964" lon="11.1704079"><ele>77.0</ele><time>2026-05-02T09:10:17.992Z</time></trkpt><trkpt lat="43.8762314" lon="11.1705334"><ele>77.0</ele><time>2026-05-02T09:10:18.992Z</time></trkpt><trkpt lat="43.8762681" lon="11.1706595"><ele>77.0</ele><time>2026-05-02T09:10:19.992Z</time></trkpt><trkpt lat="43.8763074" lon="11.1707844"><ele>77.0</ele><time>2026-05-02T09:10:20.992Z</time></trkpt><trkpt lat="43.8763475" lon="11.1709088"><ele>77.0</ele><time>2026-05-02T09:10:21.992Z</time></trkpt><trkpt lat="43.8763946" lon="11.1710293"><ele>77.0</ele><time>2026-05-02T09:10:22.992Z</time></trkpt><trkpt lat="43.8764463" lon="11.1711413"><ele>77.0</ele><time>2026-05-02T09:10:23.992Z</time></trkpt><trkpt lat="43.8765039" lon="11.1712573"><ele>77.0</ele><time>2026-05-02T09:10:24.992Z</time></trkpt><trkpt lat="43.8765582" lon="11.1713667"><ele>77.0</ele><time>2026-05-02T09:10:25.993Z</time></trkpt><trkpt lat="43.8766021" lon="11.1714751"><ele>77.0</ele><time>2026-05-02T09:10:26.992Z</time></trkpt><trkpt lat="43.8766479" lon="11.1715951"><ele>77.0</ele><time>2026-05-02T09:10:27.992Z</time></trkpt><trkpt lat="43.8766991" lon="11.1717219"><ele>77.5</ele><time>2026-05-02T09:10:28.993Z</time></trkpt><trkpt lat="43.8767593" lon="11.1718492"><ele>78.0</ele><time>2026-05-02T09:10:29.992Z</time></trkpt><trkpt lat="43.8768355" lon="11.1719905"><ele>78.5</ele><time>2026-05-02T09:10:30.992Z</time></trkpt><trkpt lat="43.8769132" lon="11.1721408"><ele>79.0</ele><time>2026-05-02T09:10:31.992Z</time></trkpt><trkpt lat="43.8769902" lon="11.1722841"><ele>78.60000000000001</ele><time>2026-05-02T09:10:32.992Z</time></trkpt><trkpt lat="43.8770695" lon="11.1724218"><ele>78.2</ele><time>2026-05-02T09:10:33.992Z</time></trkpt><trkpt lat="43.8771433" lon="11.1725432"><ele>77.80000000000001</ele><time>2026-05-02T09:10:34.994Z</time></trkpt><trkpt lat="43.8772086" lon="11.172658"><ele>77.4</ele><time>2026-05-02T09:10:35.992Z</time></trkpt><trkpt lat="43.8772639" lon="11.1727611"><ele>77.0</ele><time>2026-05-02T09:10:36.993Z</time></trkpt><trkpt lat="43.8773113" lon="11.1728688"><ele>77.0</ele><time>2026-05-02T09:10:37.992Z</time></trkpt><trkpt lat="43.8773654" lon="11.1729923"><ele>77.0</ele><time>2026-05-02T09:10:38.992Z</time></trkpt><trkpt lat="43.877415" lon="11.1731233"><ele>77.0</ele><time>2026-05-02T09:10:39.992Z</time></trkpt><trkpt lat="43.8774651" lon="11.1732511"><ele>77.0</ele><time>2026-05-02T09:10:40.992Z</time></trkpt><trkpt lat="43.8775096" lon="11.1733703"><ele>77.0</ele><time>2026-05-02T09:10:41.992Z</time></trkpt><trkpt lat="43.8775551" lon="11.1735033"><ele>77.4</ele><time>2026-05-02T09:10:42.992Z</time></trkpt><trkpt lat="43.8775968" lon="11.1736299"><ele>77.80000000000001</ele><time>2026-05-02T09:10:43.992Z</time></trkpt><trkpt lat="43.8776324" lon="11.1737701"><ele>78.2</ele><time>2026-05-02T09:10:44.993Z</time></trkpt><trkpt lat="43.8776616" lon="11.1739202"><ele>78.60000000000001</ele><time>2026-05-02T09:10:45.992Z</time></trkpt><trkpt lat="43.8776956" lon="11.1740655"><ele>79.0</ele><time>2026-05-02T09:10:46.992Z</time></trkpt><trkpt lat="43.8777326" lon="11.174202"><ele>79.0</ele><time>2026-05-02T09:10:47.992Z</time></trkpt><trkpt lat="43.877778" lon="11.1743216"><ele>79.0</ele><time>2026-05-02T09:10:48.992Z</time></trkpt><trkpt lat="43.8778346" lon="11.1744159"><ele>79.0</ele><time>2026-05-02T09:10:49.993Z</time></trkpt><trkpt lat="43.8778957" lon="11.1745111"><ele>79.0</ele><time>2026-05-02T09:10:50.992Z</time></trkpt><trkpt lat="43.8779483" lon="11.174625"><ele>79.0</ele><time>2026-05-02T09:10:51.992Z</time></trkpt><trkpt lat="43.8780006" lon="11.1747564"><ele>79.2</ele><time>2026-05-02T09:10:52.992Z</time></trkpt><trkpt lat="43.8780514" lon="11.1748882"><ele>79.4</ele><time>2026-05-02T09:10:53.992Z</time></trkpt><trkpt lat="43.8780994" lon="11.1749998"><ele>79.6</ele><time>2026-05-02T09:10:54.992Z</time></trkpt><trkpt lat="43.8781431" lon="11.1751062"><ele>79.8</ele><time>2026-05-02T09:10:55.992Z</time></trkpt><trkpt lat="43.878181" lon="11.1752235"><ele>80.0</ele><time>2026-05-02T09:10:56.993Z</time></trkpt><trkpt lat="43.8782192" lon="11.1753607"><ele>80.0</ele><time>2026-05-02T09:10:57.993Z</time></trkpt><trkpt lat="43.8782565" lon="11.1755032"><ele>80.0</ele><time>2026-05-02T09:10:58.993Z</time></trkpt><trkpt lat="43.8782935" lon="11.1756362"><ele>80.0</ele><time>2026-05-02T09:10:59.993Z</time></trkpt><trkpt lat="43.8783336" lon="11.175751"><ele>80.0</ele><time>2026-05-02T09:11:00.992Z</time></trkpt><trkpt lat="43.8783745" lon="11.1758713"><ele>80.0</ele><time>2026-05-02T09:11:01.993Z</time></trkpt><trkpt lat="43.8784152" lon="11.175992"><ele>80.0</ele><time>2026-05-02T09:11:02.992Z</time></trkpt><trkpt lat="43.8784547" lon="11.1761161"><ele>80.0</ele><time>2026-05-02T09:11:03.993Z</time></trkpt><trkpt lat="43.8784964" lon="11.1762381"><ele>80.0</ele><time>2026-05-02T09:11:04.992Z</time></trkpt><trkpt lat="43.8785347" lon="11.1763498"><ele>80.0</ele><time>2026-05-02T09:11:05.992Z</time></trkpt><trkpt lat="43.8785667" lon="11.1764452"><ele>80.0</ele><time>2026-05-02T09:11:06.992Z</time></trkpt><trkpt lat="43.878592" lon="11.1765275"><ele>80.0</ele><time>2026-05-02T09:11:07.992Z</time></trkpt><trkpt lat="43.8785899" lon="11.1766388"><ele>80.0</ele><time>2026-05-02T09:11:09.992Z</time></trkpt><trkpt lat="43.878523" lon="11.1767392"><ele>80.0</ele><time>2026-05-02T09:11:12.992Z</time></trkpt><trkpt lat="43.8784535" lon="11.1767959"><ele>80.0</ele><time>2026-05-02T09:11:15.993Z</time></trkpt><trkpt lat="43.8784698" lon="11.1769487"><ele>80.0</ele><time>2026-05-02T09:11:41.993Z</time></trkpt><trkpt lat="43.8785223" lon="11.1770245"><ele>80.0</ele><time>2026-05-02T09:11:42.992Z</time></trkpt><trkpt lat="43.8785951" lon="11.177117"><ele>80.0</ele><time>2026-05-02T09:11:43.992Z</time></trkpt><trkpt lat="43.8786695" lon="11.1772362"><ele>80.0</ele><time>2026-05-02T09:11:44.992Z</time></trkpt><trkpt lat="43.8787585" lon="11.1773626"><ele>80.0</ele><time>2026-05-02T09:11:45.993Z</time></trkpt><trkpt lat="43.8788475" lon="11.1775094"><ele>80.0</ele><time>2026-05-02T09:11:46.993Z</time></trkpt><trkpt lat="43.878942" lon="11.1776644"><ele>81.33333333333334</ele><time>2026-05-02T09:11:47.992Z</time></trkpt><trkpt lat="43.8790367" lon="11.177826"><ele>82.66666666666667</ele><time>2026-05-02T09:11:48.992Z</time></trkpt><trkpt lat="43.8791338" lon="11.1780006"><ele>84.0</ele><time>2026-05-02T09:11:49.992Z</time></trkpt><trkpt lat="43.8792306" lon="11.1781858"><ele>83.33333333333333</ele><time>2026-05-02T09:11:50.992Z</time></trkpt><trkpt lat="43.8793307" lon="11.1783672"><ele>82.66666666666666</ele><time>2026-05-02T09:11:51.993Z</time></trkpt><trkpt lat="43.8794231" lon="11.1785588"><ele>82.0</ele><time>2026-05-02T09:11:52.992Z</time></trkpt><trkpt lat="43.8795136" lon="11.1787526"><ele>82.0</ele><time>2026-05-02T09:11:53.993Z</time></trkpt><trkpt lat="43.8796053" lon="11.1789464"><ele>82.0</ele><time>2026-05-02T09:11:54.993Z</time></trkpt><trkpt lat="43.8796983" lon="11.179136"><ele>82.0</ele><time>2026-05-02T09:11:55.992Z</time></trkpt><trkpt lat="43.8797851" lon="11.179323"><ele>83.66666666666666</ele><time>2026-05-02T09:11:56.992Z</time></trkpt><trkpt lat="43.8798694" lon="11.179503"><ele>85.33333333333333</ele><time>2026-05-02T09:11:57.992Z</time></trkpt><trkpt lat="43.8799513" lon="11.1796781"><ele>87.0</ele><time>2026-05-02T09:11:58.993Z</time></trkpt><trkpt lat="43.8800559" lon="11.1798362"><ele>87.0</ele><time>2026-05-02T09:11:59.992Z</time></trkpt><trkpt lat="43.8801694" lon="11.1799832"><ele>87.0</ele><time>2026-05-02T09:12:00.993Z</time></trkpt><trkpt lat="43.8802834" lon="11.1801085"><ele>87.0</ele><time>2026-05-02T09:12:01.993Z</time></trkpt><trkpt lat="43.8803981" lon="11.1802132"><ele>87.0</ele><time>2026-05-02T09:12:02.992Z</time></trkpt><trkpt lat="43.8805108" lon="11.1803016"><ele>87.0</ele><time>2026-05-02T09:12:03.992Z</time></trkpt><trkpt lat="43.8806285" lon="11.1803761"><ele>87.0</ele><time>2026-05-02T09:12:04.992Z</time></trkpt><trkpt lat="43.8807473" lon="11.1804358"><ele>87.0</ele><time>2026-05-02T09:12:05.992Z</time></trkpt><trkpt lat="43.8808744" lon="11.1804819"><ele>87.0</ele><time>2026-05-02T09:12:06.993Z</time></trkpt><trkpt lat="43.8809956" lon="11.1805122"><ele>87.19999999999999</ele><time>2026-05-02T09:12:07.992Z</time></trkpt><trkpt lat="43.8811142" lon="11.1805275"><ele>87.4</ele><time>2026-05-02T09:12:08.992Z</time></trkpt><trkpt lat="43.881225" lon="11.1805284"><ele>87.6</ele><time>2026-05-02T09:12:09.992Z</time></trkpt><trkpt lat="43.8813243" lon="11.180509"><ele>87.80000000000001</ele><time>2026-05-02T09:12:10.992Z</time></trkpt><trkpt lat="43.8814162" lon="11.180486"><ele>88.0</ele><time>2026-05-02T09:12:11.992Z</time></trkpt><trkpt lat="43.8815019" lon="11.1804632"><ele>88.0</ele><time>2026-05-02T09:12:12.993Z</time></trkpt><trkpt lat="43.8815843" lon="11.1804613"><ele>88.0</ele><time>2026-05-02T09:12:13.992Z</time></trkpt><trkpt lat="43.8816647" lon="11.1804747"><ele>88.0</ele><time>2026-05-02T09:12:14.993Z</time></trkpt><trkpt lat="43.8817484" lon="11.1804854"><ele>88.0</ele><time>2026-05-02T09:12:15.993Z</time></trkpt><trkpt lat="43.8818364" lon="11.1804563"><ele>88.0</ele><time>2026-05-02T09:12:16.992Z</time></trkpt><trkpt lat="43.8819239" lon="11.1803933"><ele>88.0</ele><time>2026-05-02T09:12:17.992Z</time></trkpt><trkpt lat="43.882025" lon="11.1803433"><ele>88.60000000000001</ele><time>2026-05-02T09:12:18.992Z</time></trkpt><trkpt lat="43.8821334" lon="11.1803408"><ele>89.2</ele><time>2026-05-02T09:12:19.992Z</time></trkpt><trkpt lat="43.8822447" lon="11.1803577"><ele>89.8</ele><time>2026-05-02T09:12:20.994Z</time></trkpt><trkpt lat="43.8823559" lon="11.1803884"><ele>90.4</ele><time>2026-05-02T09:12:21.992Z</time></trkpt><trkpt lat="43.8824676" lon="11.1804223"><ele>91.0</ele><time>2026-05-02T09:12:22.992Z</time></trkpt><trkpt lat="43.8825722" lon="11.1804675"><ele>91.0</ele><time>2026-05-02T09:12:23.992Z</time></trkpt><trkpt lat="43.8826784" lon="11.1805194"><ele>91.0</ele><time>2026-05-02T09:12:24.993Z</time></trkpt><trkpt lat="43.8827822" lon="11.1805653"><ele>91.0</ele><time>2026-05-02T09:12:25.992Z</time></trkpt><trkpt lat="43.8828831" lon="11.1806087"><ele>91.0</ele><time>2026-05-02T09:12:26.992Z</time></trkpt><trkpt lat="43.882979" lon="11.1806489"><ele>91.0</ele><time>2026-05-02T09:12:27.992Z</time></trkpt><trkpt lat="43.8830787" lon="11.1806927"><ele>91.0</ele><time>2026-05-02T09:12:28.992Z</time></trkpt><trkpt lat="43.8831709" lon="11.1807333"><ele>91.0</ele><time>2026-05-02T09:12:29.992Z</time></trkpt><trkpt lat="43.883253" lon="11.1807831"><ele>91.0</ele><time>2026-05-02T09:12:30.992Z</time></trkpt><trkpt lat="43.8833296" lon="11.1808557"><ele>91.0</ele><time>2026-05-02T09:12:31.992Z</time></trkpt><trkpt lat="43.883405" lon="11.1809387"><ele>91.0</ele><time>2026-05-02T09:12:32.992Z</time></trkpt><trkpt lat="43.8834829" lon="11.180998"><ele>91.0</ele><time>2026-05-02T09:12:33.992Z</time></trkpt><trkpt lat="43.8835672" lon="11.1810061"><ele>91.0</ele><time>2026-05-02T09:12:34.992Z</time></trkpt><trkpt lat="43.8836597" lon="11.1809778"><ele>91.0</ele><time>2026-05-02T09:12:35.992Z</time></trkpt><trkpt lat="43.8837659" lon="11.1809342"><ele>91.0</ele><time>2026-05-02T09:12:36.992Z</time></trkpt><trkpt lat="43.8838866" lon="11.1809245"><ele>91.0</ele><time>2026-05-02T09:12:37.993Z</time></trkpt><trkpt lat="43.8840195" lon="11.180937"><ele>91.0</ele><time>2026-05-02T09:12:38.992Z</time></trkpt><trkpt lat="43.8841561" lon="11.1809518"><ele>91.0</ele><time>2026-05-02T09:12:39.992Z</time></trkpt><trkpt lat="43.8843011" lon="11.1809667"><ele>91.0</ele><time>2026-05-02T09:12:40.993Z</time></trkpt><trkpt lat="43.8844501" lon="11.180983"><ele>91.0</ele><time>2026-05-02T09:12:41.992Z</time></trkpt><trkpt lat="43.884598" lon="11.1809972"><ele>91.0</ele><time>2026-05-02T09:12:42.992Z</time></trkpt><trkpt lat="43.8847416" lon="11.1810147"><ele>91.0</ele><time>2026-05-02T09:12:43.992Z</time></trkpt><trkpt lat="43.8848822" lon="11.1810358"><ele>91.0</ele><time>2026-05-02T09:12:44.992Z</time></trkpt><trkpt lat="43.8850178" lon="11.181059"><ele>91.0</ele><time>2026-05-02T09:12:45.993Z</time></trkpt><trkpt lat="43.8851516" lon="11.1810931"><ele>91.0</ele><time>2026-05-02T09:12:46.992Z</time></trkpt><trkpt lat="43.8852737" lon="11.1811322"><ele>91.0</ele><time>2026-05-02T09:12:47.993Z</time></trkpt><trkpt lat="43.8853856" lon="11.1811712"><ele>91.0</ele><time>2026-05-02T09:12:48.992Z</time></trkpt><trkpt lat="43.8854797" lon="11.1812089"><ele>91.0</ele><time>2026-05-02T09:12:49.992Z</time></trkpt><trkpt lat="43.8855626" lon="11.1812487"><ele>91.0</ele><time>2026-05-02T09:12:50.993Z</time></trkpt><trkpt lat="43.8856302" lon="11.1812895"><ele>91.0</ele><time>2026-05-02T09:12:51.993Z</time></trkpt><trkpt lat="43.8857133" lon="11.1814022"><ele>91.0</ele><time>2026-05-02T09:12:53.993Z</time></trkpt><trkpt lat="43.88571" lon="11.1814985"><ele>91.0</ele><time>2026-05-02T09:12:54.992Z</time></trkpt><trkpt lat="43.8857264" lon="11.1816199"><ele>91.0</ele><time>2026-05-02T09:12:55.992Z</time></trkpt><trkpt lat="43.8857455" lon="11.1817576"><ele>91.0</ele><time>2026-05-02T09:12:56.993Z</time></trkpt><trkpt lat="43.8857699" lon="11.1819094"><ele>91.6</ele><time>2026-05-02T09:12:57.992Z</time></trkpt><trkpt lat="43.8857936" lon="11.182046"><ele>92.19999999999999</ele><time>2026-05-02T09:12:58.992Z</time></trkpt><trkpt lat="43.8858112" lon="11.182171"><ele>92.80000000000001</ele><time>2026-05-02T09:12:59.992Z</time></trkpt><trkpt lat="43.8858311" lon="11.1822945"><ele>93.4</ele><time>2026-05-02T09:13:00.992Z</time></trkpt><trkpt lat="43.8858497" lon="11.1824207"><ele>94.0</ele><time>2026-05-02T09:13:01.992Z</time></trkpt><trkpt lat="43.8858681" lon="11.1825252"><ele>94.33333333333333</ele><time>2026-05-02T09:13:02.992Z</time></trkpt><trkpt lat="43.8858887" lon="11.1826236"><ele>94.66666666666666</ele><time>2026-05-02T09:13:03.993Z</time></trkpt><trkpt lat="43.8859651" lon="11.1827504"><ele>95.0</ele><time>2026-05-02T09:13:05.992Z</time></trkpt><trkpt lat="43.8860245" lon="11.1827985"><ele>95.33333333333333</ele><time>2026-05-02T09:13:06.992Z</time></trkpt><trkpt lat="43.886097" lon="11.1828496"><ele>95.66666666666667</ele><time>2026-05-02T09:13:07.992Z</time></trkpt><trkpt lat="43.8861646" lon="11.1829021"><ele>96.0</ele><time>2026-05-02T09:13:08.992Z</time></trkpt><trkpt lat="43.8862555" lon="11.1829852"><ele>96.6</ele><time>2026-05-02T09:13:10.993Z</time></trkpt><trkpt lat="43.8863016" lon="11.1831325"><ele>97.19999999999999</ele><time>2026-05-02T09:13:12.992Z</time></trkpt><trkpt lat="43.8863252" lon="11.1832267"><ele>97.80000000000001</ele><time>2026-05-02T09:13:14.992Z</time></trkpt><trkpt lat="43.8862941" lon="11.1833711"><ele>98.4</ele><time>2026-05-02T09:13:18.992Z</time></trkpt><trkpt lat="43.8862812" lon="11.1835121"><ele>99.0</ele><time>2026-05-02T09:13:20.992Z</time></trkpt><trkpt lat="43.8862711" lon="11.1836336"><ele>100.83333333333333</ele><time>2026-05-02T09:13:36.992Z</time></trkpt><trkpt lat="43.8862488" lon="11.183725"><ele>102.66666666666666</ele><time>2026-05-02T09:13:38.992Z</time></trkpt><trkpt lat="43.8862185" lon="11.1838378"><ele>104.5</ele><time>2026-05-02T09:13:40.992Z</time></trkpt><trkpt lat="43.8861967" lon="11.1839478"><ele>106.33333333333333</ele><time>2026-05-02T09:13:42.993Z</time></trkpt><trkpt lat="43.8861897" lon="11.1840716"><ele>108.16666666666666</ele><time>2026-05-02T09:13:44.992Z</time></trkpt><trkpt lat="43.8861723" lon="11.18418"><ele>110.0</ele><time>2026-05-02T09:13:46.992Z</time></trkpt><trkpt lat="43.8861431" lon="11.1842733"><ele>111.33333333333333</ele><time>2026-05-02T09:13:48.993Z</time></trkpt><trkpt lat="43.8860808" lon="11.1843448"><ele>112.66666666666666</ele><time>2026-05-02T09:13:50.993Z</time></trkpt><trkpt lat="43.8860087" lon="11.1844253"><ele>114.0</ele><time>2026-05-02T09:13:53.993Z</time></trkpt><trkpt lat="43.8859733" lon="11.1845109"><ele>115.33333333333334</ele><time>2026-05-02T09:13:55.993Z</time></trkpt><trkpt lat="43.8859508" lon="11.1846443"><ele>116.66666666666667</ele><time>2026-05-02T09:13:57.992Z</time></trkpt><trkpt lat="43.885945" lon="11.1847401"><ele>118.0</ele><time>2026-05-02T09:13:58.993Z</time></trkpt><trkpt lat="43.8859467" lon="11.1848435"><ele>117.42857142857142</ele><time>2026-05-02T09:13:59.993Z</time></trkpt><trkpt lat="43.8859584" lon="11.1849579"><ele>116.85714285714286</ele><time>2026-05-02T09:14:00.992Z</time></trkpt><trkpt lat="43.8859612" lon="11.1850744"><ele>116.28571428571428</ele><time>2026-05-02T09:14:01.992Z</time></trkpt><trkpt lat="43.8859688" lon="11.1851746"><ele>115.71428571428571</ele><time>2026-05-02T09:14:02.992Z</time></trkpt><trkpt lat="43.8859802" lon="11.1852755"><ele>115.14285714285714</ele><time>2026-05-02T09:14:03.992Z</time></trkpt><trkpt lat="43.885998" lon="11.1853653"><ele>114.57142857142857</ele><time>2026-05-02T09:14:04.992Z</time></trkpt><trkpt lat="43.8860201" lon="11.1854475"><ele>114.0</ele><time>2026-05-02T09:14:05.992Z</time></trkpt><trkpt lat="43.8860585" lon="11.1855249"><ele>114.0</ele><time>2026-05-02T09:14:06.992Z</time></trkpt><trkpt lat="43.8861114" lon="11.1856056"><ele>114.0</ele><time>2026-05-02T09:14:07.992Z</time></trkpt><trkpt lat="43.8861776" lon="11.1856905"><ele>114.0</ele><time>2026-05-02T09:14:08.992Z</time></trkpt><trkpt lat="43.8862486" lon="11.185788"><ele>114.0</ele><time>2026-05-02T09:14:09.992Z</time></trkpt><trkpt lat="43.8863174" lon="11.1858844"><ele>114.0</ele><time>2026-05-02T09:14:10.993Z</time></trkpt><trkpt lat="43.8863842" lon="11.1859856"><ele>112.0</ele><time>2026-05-02T09:14:11.992Z</time></trkpt><trkpt lat="43.8864543" lon="11.1860954"><ele>110.0</ele><time>2026-05-02T09:14:12.992Z</time></trkpt><trkpt lat="43.8865228" lon="11.1862086"><ele>108.0</ele><time>2026-05-02T09:14:13.993Z</time></trkpt><trkpt lat="43.8865837" lon="11.1863039"><ele>106.0</ele><time>2026-05-02T09:14:14.992Z</time></trkpt><trkpt lat="43.8866527" lon="11.1864046"><ele>104.0</ele><time>2026-05-02T09:14:15.992Z</time></trkpt><trkpt lat="43.8867273" lon="11.1865126"><ele>105.80000000000001</ele><time>2026-05-02T09:14:16.992Z</time></trkpt><trkpt lat="43.8868044" lon="11.1866253"><ele>107.60000000000001</ele><time>2026-05-02T09:14:17.993Z</time></trkpt><trkpt lat="43.886885" lon="11.1867421"><ele>109.4</ele><time>2026-05-02T09:14:18.992Z</time></trkpt><trkpt lat="43.8869565" lon="11.1868538"><ele>111.2</ele><time>2026-05-02T09:14:19.992Z</time></trkpt><trkpt lat="43.887022" lon="11.1869564"><ele>113.0</ele><time>2026-05-02T09:14:20.992Z</time></trkpt><trkpt lat="43.8870996" lon="11.1870727"><ele>113.0</ele><time>2026-05-02T09:14:21.992Z</time></trkpt><trkpt lat="43.8871757" lon="11.1871866"><ele>113.00000000000001</ele><time>2026-05-02T09:14:22.994Z</time></trkpt><trkpt lat="43.8872408" lon="11.1872877"><ele>113.00000000000001</ele><time>2026-05-02T09:14:23.992Z</time></trkpt><trkpt lat="43.8872996" lon="11.1873746"><ele>113.0</ele><time>2026-05-02T09:14:24.993Z</time></trkpt><trkpt lat="43.8873455" lon="11.1874455"><ele>113.0</ele><time>2026-05-02T09:14:25.993Z</time></trkpt><trkpt lat="43.8874069" lon="11.187545"><ele>112.4</ele><time>2026-05-02T09:14:27.992Z</time></trkpt><trkpt lat="43.8874917" lon="11.1876091"><ele>111.80000000000001</ele><time>2026-05-02T09:14:30.992Z</time></trkpt><trkpt lat="43.8876243" lon="11.1875826"><ele>111.2</ele><time>2026-05-02T09:14:32.992Z</time></trkpt><trkpt lat="43.8876975" lon="11.1875432"><ele>110.6</ele><time>2026-05-02T09:14:33.992Z</time></trkpt><trkpt lat="43.8877571" lon="11.1874663"><ele>110.0</ele><time>2026-05-02T09:14:34.993Z</time></trkpt><trkpt lat="43.887791" lon="11.1873698"><ele>114.2</ele><time>2026-05-02T09:14:35.993Z</time></trkpt><trkpt lat="43.8878072" lon="11.1872359"><ele>118.4</ele><time>2026-05-02T09:14:36.992Z</time></trkpt><trkpt lat="43.8878093" lon="11.1870756"><ele>122.6</ele><time>2026-05-02T09:14:37.993Z</time></trkpt><trkpt lat="43.8877925" lon="11.1869107"><ele>126.8</ele><time>2026-05-02T09:14:38.992Z</time></trkpt><trkpt lat="43.8877845" lon="11.1867616"><ele>131.0</ele><time>2026-05-02T09:14:39.992Z</time></trkpt><trkpt lat="43.8877913" lon="11.1866185"><ele>133.2</ele><time>2026-05-02T09:14:40.992Z</time></trkpt><trkpt lat="43.8878106" lon="11.1864742"><ele>135.39999999999998</ele><time>2026-05-02T09:14:41.992Z</time></trkpt><trkpt lat="43.8878411" lon="11.1863316"><ele>137.6</ele><time>2026-05-02T09:14:42.992Z</time></trkpt><trkpt lat="43.8878645" lon="11.1862128"><ele>139.79999999999998</ele><time>2026-05-02T09:14:43.992Z</time></trkpt><trkpt lat="43.8879001" lon="11.1860886"><ele>142.0</ele><time>2026-05-02T09:14:45.992Z</time></trkpt><trkpt lat="43.8878399" lon="11.186139"><ele>142.0</ele><time>2026-05-02T09:14:59.992Z</time></trkpt><trkpt lat="43.8877947" lon="11.1863554"><ele>142.0</ele><time>2026-05-02T09:15:01.992Z</time></trkpt><trkpt lat="43.8877855" lon="11.1865032"><ele>142.0</ele><time>2026-05-02T09:15:02.992Z</time></trkpt><trkpt lat="43.8877806" lon="11.186625"><ele>142.0</ele><time>2026-05-02T09:15:03.992Z</time></trkpt><trkpt lat="43.8877793" lon="11.1867423"><ele>142.0</ele><time>2026-05-02T09:15:04.992Z</time></trkpt><trkpt lat="43.8877916" lon="11.1868586"><ele>140.16666666666669</ele><time>2026-05-02T09:15:05.993Z</time></trkpt><trkpt lat="43.8878044" lon="11.1870004"><ele>138.33333333333334</ele><time>2026-05-02T09:15:07.992Z</time></trkpt><trkpt lat="43.8878496" lon="11.1870663"><ele>136.5</ele><time>2026-05-02T09:15:10.992Z</time></trkpt><trkpt lat="43.8879195" lon="11.1871375"><ele>134.66666666666666</ele><time>2026-05-02T09:15:17.992Z</time></trkpt><trkpt lat="43.8880229" lon="11.1871863"><ele>132.83333333333331</ele><time>2026-05-02T09:15:19.992Z</time></trkpt><trkpt lat="43.8880981" lon="11.1871963"><ele>131.0</ele><time>2026-05-02T09:15:21.992Z</time></trkpt><trkpt lat="43.88818" lon="11.1871574"><ele>131.0</ele><time>2026-05-02T09:15:23.992Z</time></trkpt><trkpt lat="43.8882704" lon="11.187057"><ele>131.0</ele><time>2026-05-02T09:15:25.993Z</time></trkpt><trkpt lat="43.888333" lon="11.1870312"><ele>131.0</ele><time>2026-05-02T09:15:26.992Z</time></trkpt><trkpt lat="43.8884272" lon="11.1870604"><ele>131.0</ele><time>2026-05-02T09:15:29.992Z</time></trkpt><trkpt lat="43.8884969" lon="11.18702"><ele>131.0</ele><time>2026-05-02T09:15:31.992Z</time></trkpt><trkpt lat="43.8885591" lon="11.1869768"><ele>131.0</ele><time>2026-05-02T09:15:34.992Z</time></trkpt><trkpt lat="43.8886252" lon="11.1869213"><ele>133.42857142857144</ele><time>2026-05-02T09:16:07.993Z</time></trkpt><trkpt lat="43.888709" lon="11.1868595"><ele>135.85714285714286</ele><time>2026-05-02T09:16:09.992Z</time></trkpt><trkpt lat="43.8887877" lon="11.1868201"><ele>138.28571428571428</ele><time>2026-05-02T09:16:11.992Z</time></trkpt><trkpt lat="43.8888535" lon="11.1868199"><ele>140.71428571428572</ele><time>2026-05-02T09:16:20.992Z</time></trkpt><trkpt lat="43.8888773" lon="11.1869017"><ele>143.14285714285714</ele><time>2026-05-02T09:16:23.992Z</time></trkpt><trkpt lat="43.888923" lon="11.1869737"><ele>145.57142857142858</ele><time>2026-05-02T09:16:28.993Z</time></trkpt><trkpt lat="43.8889483" lon="11.1870593"><ele>148.0</ele><time>2026-05-02T09:16:32.992Z</time></trkpt><trkpt lat="43.8889777" lon="11.1871522"><ele>148.0</ele><time>2026-05-02T09:16:35.992Z</time></trkpt><trkpt lat="43.8890378" lon="11.1872437"><ele>148.0</ele><time>2026-05-02T09:16:42.992Z</time></trkpt><trkpt lat="43.8891" lon="11.1872923"><ele>148.0</ele><time>2026-05-02T09:16:45.992Z</time></trkpt><trkpt lat="43.8891224" lon="11.1873821"><ele>148.0</ele><time>2026-05-02T09:17:20.992Z</time></trkpt><trkpt lat="43.8891579" lon="11.1874656"><ele>148.0</ele><time>2026-05-02T09:17:24.993Z</time></trkpt><trkpt lat="43.889214" lon="11.1875119"><ele>148.0</ele><time>2026-05-02T09:17:28.992Z</time></trkpt><trkpt lat="43.8892554" lon="11.1875917"><ele>148.0</ele><time>2026-05-02T09:17:32.992Z</time></trkpt><trkpt lat="43.8893092" lon="11.1876467"><ele>150.28571428571428</ele><time>2026-05-02T09:17:42.992Z</time></trkpt><trkpt lat="43.8893625" lon="11.1877356"><ele>152.57142857142856</ele><time>2026-05-02T09:17:49.992Z</time></trkpt><trkpt lat="43.8894352" lon="11.1877441"><ele>154.85714285714283</ele><time>2026-05-02T09:17:53.992Z</time></trkpt><trkpt lat="43.8895017" lon="11.1878022"><ele>157.14285714285714</ele><time>2026-05-02T09:17:56.992Z</time></trkpt><trkpt lat="43.8895709" lon="11.1878395"><ele>159.42857142857142</ele><time>2026-05-02T09:17:59.993Z</time></trkpt><trkpt lat="43.8896396" lon="11.1878431"><ele>161.7142857142857</ele><time>2026-05-02T09:18:02.992Z</time></trkpt><trkpt lat="43.8897051" lon="11.1878579"><ele>164.0</ele><time>2026-05-02T09:18:15.992Z</time></trkpt><trkpt lat="43.8897718" lon="11.1878578"><ele>163.99999999999997</ele><time>2026-05-02T09:18:20.993Z</time></trkpt><trkpt lat="43.8898305" lon="11.1878916"><ele>164.0</ele><time>2026-05-02T09:18:23.992Z</time></trkpt><trkpt lat="43.8899107" lon="11.1879017"><ele>164.0</ele><time>2026-05-02T09:18:27.993Z</time></trkpt><trkpt lat="43.8899522" lon="11.187971"><ele>164.0</ele><time>2026-05-02T09:18:30.992Z</time></trkpt><trkpt lat="43.8899421" lon="11.1880655"><ele>164.0</ele><time>2026-05-02T09:18:44.992Z</time></trkpt><trkpt lat="43.8899866" lon="11.1881613"><ele>163.99999999999997</ele><time>2026-05-02T09:18:48.993Z</time></trkpt><trkpt lat="43.8900029" lon="11.1882744"><ele>164.0</ele><time>2026-05-02T09:18:51.993Z</time></trkpt><trkpt lat="43.8900588" lon="11.1883583"><ele>165.28571428571428</ele><time>2026-05-02T09:18:53.992Z</time></trkpt><trkpt lat="43.890115" lon="11.1884331"><ele>166.57142857142856</ele><time>2026-05-02T09:18:56.994Z</time></trkpt><trkpt lat="43.890184" lon="11.1884485"><ele>167.85714285714283</ele><time>2026-05-02T09:18:59.992Z</time></trkpt><trkpt lat="43.8902427" lon="11.1884098"><ele>169.14285714285714</ele><time>2026-05-02T09:19:03.992Z</time></trkpt><trkpt lat="43.8902756" lon="11.1883069"><ele>170.42857142857144</ele><time>2026-05-02T09:19:08.993Z</time></trkpt><trkpt lat="43.8903177" lon="11.1882096"><ele>171.7142857142857</ele><time>2026-05-02T09:19:11.993Z</time></trkpt><trkpt lat="43.8903403" lon="11.1881249"><ele>173.0</ele><time>2026-05-02T09:19:13.992Z</time></trkpt><trkpt lat="43.8904057" lon="11.1881249"><ele>173.0</ele><time>2026-05-02T09:19:16.993Z</time></trkpt><trkpt lat="43.8904949" lon="11.1881566"><ele>173.0</ele><time>2026-05-02T09:19:19.992Z</time></trkpt><trkpt lat="43.8905624" lon="11.1881235"><ele>173.0</ele><time>2026-05-02T09:19:22.993Z</time></trkpt><trkpt lat="43.8906326" lon="11.1881876"><ele>173.0</ele><time>2026-05-02T09:19:29.992Z</time></trkpt><trkpt lat="43.8906731" lon="11.1882677"><ele>173.0</ele><time>2026-05-02T09:19:32.992Z</time></trkpt><trkpt lat="43.8907009" lon="11.188383"><ele>173.0</ele><time>2026-05-02T09:19:56.991Z</time></trkpt><trkpt lat="43.890657" lon="11.1885574"><ele>174.0</ele><time>2026-05-02T09:19:57.991Z</time></trkpt><trkpt lat="43.8906318" lon="11.1887071"><ele>175.0</ele><time>2026-05-02T09:19:58.991Z</time></trkpt><trkpt lat="43.8906436" lon="11.1888104"><ele>176.0</ele><time>2026-05-02T09:19:59.991Z</time></trkpt><trkpt lat="43.890631" lon="11.1889143"><ele>177.0</ele><time>2026-05-02T09:20:00.991Z</time></trkpt><trkpt lat="43.8906613" lon="11.1890072"><ele>178.0</ele><time>2026-05-02T09:20:01.992Z</time></trkpt><trkpt lat="43.8906785" lon="11.1891"><ele>179.0</ele><time>2026-05-02T09:20:02.991Z</time></trkpt><trkpt lat="43.890727" lon="11.1891696"><ele>180.25</ele><time>2026-05-02T09:20:03.991Z</time></trkpt><trkpt lat="43.8908051" lon="11.1892423"><ele>181.5</ele><time>2026-05-02T09:20:05.991Z</time></trkpt><trkpt lat="43.8909118" lon="11.1892857"><ele>182.75</ele><time>2026-05-02T09:20:07.991Z</time></trkpt><trkpt lat="43.8910367" lon="11.1892986"><ele>184.0</ele><time>2026-05-02T09:20:09.991Z</time></trkpt><trkpt lat="43.8911589" lon="11.1892995"><ele>185.16666666666669</ele><time>2026-05-02T09:20:11.992Z</time></trkpt><trkpt lat="43.8912664" lon="11.1893477"><ele>186.33333333333334</ele><time>2026-05-02T09:20:13.991Z</time></trkpt><trkpt lat="43.891338" lon="11.1893767"><ele>187.5</ele><time>2026-05-02T09:20:14.991Z</time></trkpt><trkpt lat="43.8913978" lon="11.1894254"><ele>188.66666666666666</ele><time>2026-05-02T09:20:15.992Z</time></trkpt><trkpt lat="43.8914597" lon="11.1894746"><ele>189.83333333333331</ele><time>2026-05-02T09:20:16.992Z</time></trkpt><trkpt lat="43.8915486" lon="11.1895773"><ele>191.0</ele><time>2026-05-02T09:20:18.991Z</time></trkpt><trkpt lat="43.8916146" lon="11.1896215"><ele>191.0</ele><time>2026-05-02T09:20:19.992Z</time></trkpt><trkpt lat="43.8916774" lon="11.1897178"><ele>191.0</ele><time>2026-05-02T09:20:21.991Z</time></trkpt><trkpt lat="43.8917277" lon="11.1897714"><ele>191.0</ele><time>2026-05-02T09:20:22.991Z</time></trkpt><trkpt lat="43.8917928" lon="11.1898895"><ele>191.0</ele><time>2026-05-02T09:20:24.991Z</time></trkpt><trkpt lat="43.8918587" lon="11.1899815"><ele>191.0</ele><time>2026-05-02T09:20:25.992Z</time></trkpt><trkpt lat="43.8919005" lon="11.1900509"><ele>191.0</ele><time>2026-05-02T09:20:26.991Z</time></trkpt><trkpt lat="43.8919567" lon="11.1901123"><ele>193.0</ele><time>2026-05-02T09:20:27.991Z</time></trkpt><trkpt lat="43.8920111" lon="11.1901624"><ele>195.0</ele><time>2026-05-02T09:20:28.991Z</time></trkpt><trkpt lat="43.8920733" lon="11.1902186"><ele>197.0</ele><time>2026-05-02T09:20:29.991Z</time></trkpt><trkpt lat="43.8921148" lon="11.1902875"><ele>199.0</ele><time>2026-05-02T09:20:30.991Z</time></trkpt><trkpt lat="43.8921779" lon="11.1903601"><ele>201.00000000000003</ele><time>2026-05-02T09:20:31.992Z</time></trkpt><trkpt lat="43.8922684" lon="11.1904429"><ele>203.0</ele><time>2026-05-02T09:20:33.993Z</time></trkpt><trkpt lat="43.892334" lon="11.1904765"><ele>203.00000000000003</ele><time>2026-05-02T09:20:34.991Z</time></trkpt><trkpt lat="43.8924399" lon="11.1905568"><ele>203.0</ele><time>2026-05-02T09:20:36.992Z</time></trkpt><trkpt lat="43.8925001" lon="11.1906196"><ele>203.0</ele><time>2026-05-02T09:20:37.992Z</time></trkpt><trkpt lat="43.8925657" lon="11.1906696"><ele>203.0</ele><time>2026-05-02T09:20:38.991Z</time></trkpt><trkpt lat="43.8926161" lon="11.1907324"><ele>203.00000000000003</ele><time>2026-05-02T09:20:39.991Z</time></trkpt><trkpt lat="43.8926714" lon="11.1907971"><ele>203.0</ele><time>2026-05-02T09:20:40.991Z</time></trkpt><trkpt lat="43.892729" lon="11.1908604"><ele>203.28571428571428</ele><time>2026-05-02T09:20:41.991Z</time></trkpt><trkpt lat="43.8927951" lon="11.1909191"><ele>203.57142857142856</ele><time>2026-05-02T09:20:42.991Z</time></trkpt><trkpt lat="43.8928593" lon="11.1909765"><ele>203.85714285714286</ele><time>2026-05-02T09:20:43.992Z</time></trkpt><trkpt lat="43.8929129" lon="11.1910319"><ele>204.14285714285714</ele><time>2026-05-02T09:20:44.992Z</time></trkpt><trkpt lat="43.8929815" lon="11.191076"><ele>204.42857142857142</ele><time>2026-05-02T09:20:45.992Z</time></trkpt><trkpt lat="43.8930412" lon="11.1911159"><ele>204.71428571428572</ele><time>2026-05-02T09:20:46.991Z</time></trkpt><trkpt lat="43.8931115" lon="11.1911644"><ele>205.0</ele><time>2026-05-02T09:20:47.992Z</time></trkpt><trkpt lat="43.893184" lon="11.1911984"><ele>204.99999999999997</ele><time>2026-05-02T09:20:48.991Z</time></trkpt><trkpt lat="43.8932573" lon="11.1912338"><ele>205.0</ele><time>2026-05-02T09:20:49.991Z</time></trkpt><trkpt lat="43.893318" lon="11.1912762"><ele>205.0</ele><time>2026-05-02T09:20:50.991Z</time></trkpt><trkpt lat="43.8933822" lon="11.1913063"><ele>205.0</ele><time>2026-05-02T09:20:51.991Z</time></trkpt><trkpt lat="43.8934462" lon="11.191339"><ele>204.99999999999997</ele><time>2026-05-02T09:20:52.991Z</time></trkpt><trkpt lat="43.8935532" lon="11.1913895"><ele>205.0</ele><time>2026-05-02T09:20:54.991Z</time></trkpt><trkpt lat="43.8936224" lon="11.1914451"><ele>205.83333333333331</ele><time>2026-05-02T09:20:56.991Z</time></trkpt><trkpt lat="43.8936873" lon="11.191513"><ele>206.66666666666666</ele><time>2026-05-02T09:20:58.991Z</time></trkpt><trkpt lat="43.8937599" lon="11.1915245"><ele>207.5</ele><time>2026-05-02T09:21:02.991Z</time></trkpt><trkpt lat="43.8938335" lon="11.1915393"><ele>208.33333333333331</ele><time>2026-05-02T09:21:08.991Z</time></trkpt><trkpt lat="43.8939222" lon="11.1916746"><ele>209.16666666666666</ele><time>2026-05-02T09:21:10.991Z</time></trkpt><trkpt lat="43.893983" lon="11.1917471"><ele>210.0</ele><time>2026-05-02T09:21:11.991Z</time></trkpt><trkpt lat="43.8940354" lon="11.1918025"><ele>210.0</ele><time>2026-05-02T09:21:12.991Z</time></trkpt><trkpt lat="43.894117" lon="11.191917"><ele>210.0</ele><time>2026-05-02T09:21:14.992Z</time></trkpt><trkpt lat="43.8941567" lon="11.1920414"><ele>210.0</ele><time>2026-05-02T09:21:16.991Z</time></trkpt><trkpt lat="43.894184" lon="11.1921785"><ele>210.0</ele><time>2026-05-02T09:21:18.991Z</time></trkpt><trkpt lat="43.8942194" lon="11.1922949"><ele>210.0</ele><time>2026-05-02T09:21:20.991Z</time></trkpt><trkpt lat="43.8942718" lon="11.1923585"><ele>210.33333333333334</ele><time>2026-05-02T09:21:23.991Z</time></trkpt><trkpt lat="43.8942818" lon="11.1924469"><ele>210.66666666666669</ele><time>2026-05-02T09:21:25.991Z</time></trkpt><trkpt lat="43.8942944" lon="11.1925432"><ele>211.0</ele><time>2026-05-02T09:21:26.991Z</time></trkpt><trkpt lat="43.8943376" lon="11.1926446"><ele>211.33333333333334</ele><time>2026-05-02T09:21:27.991Z</time></trkpt><trkpt lat="43.8943693" lon="11.192765"><ele>211.66666666666669</ele><time>2026-05-02T09:21:28.991Z</time></trkpt><trkpt lat="43.8944056" lon="11.192911"><ele>212.0</ele><time>2026-05-02T09:21:29.991Z</time></trkpt><trkpt lat="43.8944426" lon="11.1930598"><ele>214.2</ele><time>2026-05-02T09:21:30.991Z</time></trkpt><trkpt lat="43.8944717" lon="11.1932086"><ele>216.39999999999998</ele><time>2026-05-02T09:21:31.991Z</time></trkpt><trkpt lat="43.8945086" lon="11.1933493"><ele>218.60000000000002</ele><time>2026-05-02T09:21:32.991Z</time></trkpt><trkpt lat="43.8945479" lon="11.1934759"><ele>220.8</ele><time>2026-05-02T09:21:33.991Z</time></trkpt><trkpt lat="43.894585" lon="11.1936246"><ele>223.0</ele><time>2026-05-02T09:21:34.992Z</time></trkpt><trkpt lat="43.8946278" lon="11.1937873"><ele>223.0</ele><time>2026-05-02T09:21:35.991Z</time></trkpt><trkpt lat="43.8946758" lon="11.1939351"><ele>223.0</ele><time>2026-05-02T09:21:36.992Z</time></trkpt><trkpt lat="43.894731" lon="11.1940792"><ele>223.0</ele><time>2026-05-02T09:21:37.992Z</time></trkpt><trkpt lat="43.8947823" lon="11.1942033"><ele>223.0</ele><time>2026-05-02T09:21:38.991Z</time></trkpt><trkpt lat="43.8948287" lon="11.1943144"><ele>223.0</ele><time>2026-05-02T09:21:39.991Z</time></trkpt><trkpt lat="43.8948832" lon="11.1944314"><ele>225.4</ele><time>2026-05-02T09:21:40.991Z</time></trkpt><trkpt lat="43.8949378" lon="11.1945494"><ele>227.8</ele><time>2026-05-02T09:21:41.993Z</time></trkpt><trkpt lat="43.8949846" lon="11.1946643"><ele>230.2</ele><time>2026-05-02T09:21:42.991Z</time></trkpt><trkpt lat="43.8950492" lon="11.1947615"><ele>232.6</ele><time>2026-05-02T09:21:43.991Z</time></trkpt><trkpt lat="43.8951302" lon="11.1948542"><ele>235.0</ele><time>2026-05-02T09:21:44.992Z</time></trkpt><trkpt lat="43.8952011" lon="11.1949513"><ele>237.6</ele><time>2026-05-02T09:21:45.991Z</time></trkpt><trkpt lat="43.895286" lon="11.1950412"><ele>240.2</ele><time>2026-05-02T09:21:46.991Z</time></trkpt><trkpt lat="43.8953744" lon="11.1951379"><ele>242.8</ele><time>2026-05-02T09:21:47.992Z</time></trkpt><trkpt lat="43.8954411" lon="11.195187"><ele>245.4</ele><time>2026-05-02T09:21:48.991Z</time></trkpt><trkpt lat="43.895526" lon="11.1952596"><ele>248.0</ele><time>2026-05-02T09:21:49.991Z</time></trkpt><trkpt lat="43.8955856" lon="11.1953032"><ele>248.0</ele><time>2026-05-02T09:21:50.991Z</time></trkpt><trkpt lat="43.8956686" lon="11.1954023"><ele>248.0</ele><time>2026-05-02T09:21:52.991Z</time></trkpt><trkpt lat="43.8957053" lon="11.1955027"><ele>248.0</ele><time>2026-05-02T09:21:54.992Z</time></trkpt><trkpt lat="43.8957084" lon="11.195668"><ele>248.0</ele><time>2026-05-02T09:21:56.991Z</time></trkpt><trkpt lat="43.895723" lon="11.1957903"><ele>248.0</ele><time>2026-05-02T09:21:57.991Z</time></trkpt><trkpt lat="43.8957329" lon="11.1959009"><ele>249.50000000000003</ele><time>2026-05-02T09:21:58.991Z</time></trkpt><trkpt lat="43.8957317" lon="11.1960073"><ele>251.0</ele><time>2026-05-02T09:21:59.991Z</time></trkpt><trkpt lat="43.8957341" lon="11.1961348"><ele>252.5</ele><time>2026-05-02T09:22:00.992Z</time></trkpt><trkpt lat="43.8957266" lon="11.1962364"><ele>254.0</ele><time>2026-05-02T09:22:01.991Z</time></trkpt><trkpt lat="43.8957307" lon="11.1963561"><ele>255.50000000000003</ele><time>2026-05-02T09:22:02.991Z</time></trkpt><trkpt lat="43.8957377" lon="11.1964696"><ele>257.0</ele><time>2026-05-02T09:22:03.991Z</time></trkpt><trkpt lat="43.8957646" lon="11.1965849"><ele>257.1666666666667</ele><time>2026-05-02T09:22:04.992Z</time></trkpt><trkpt lat="43.8957863" lon="11.1966723"><ele>257.33333333333337</ele><time>2026-05-02T09:22:05.991Z</time></trkpt><trkpt lat="43.8958182" lon="11.1967588"><ele>257.5</ele><time>2026-05-02T09:22:06.991Z</time></trkpt><trkpt lat="43.8958492" lon="11.196851"><ele>257.6666666666667</ele><time>2026-05-02T09:22:07.992Z</time></trkpt><trkpt lat="43.8959017" lon="11.1969679"><ele>257.8333333333333</ele><time>2026-05-02T09:22:09.991Z</time></trkpt><trkpt lat="43.8959835" lon="11.1970948"><ele>258.0</ele><time>2026-05-02T09:22:11.991Z</time></trkpt><trkpt lat="43.8960427" lon="11.1971603"><ele>256.8333333333333</ele><time>2026-05-02T09:22:12.992Z</time></trkpt><trkpt lat="43.8961037" lon="11.1972322"><ele>255.66666666666669</ele><time>2026-05-02T09:22:13.991Z</time></trkpt><trkpt lat="43.896182" lon="11.1972967"><ele>254.5</ele><time>2026-05-02T09:22:14.992Z</time></trkpt><trkpt lat="43.8962457" lon="11.1973813"><ele>253.33333333333334</ele><time>2026-05-02T09:22:15.992Z</time></trkpt><trkpt lat="43.8963045" lon="11.1974649"><ele>252.16666666666669</ele><time>2026-05-02T09:22:16.991Z</time></trkpt><trkpt lat="43.8963709" lon="11.1975043"><ele>251.0</ele><time>2026-05-02T09:22:17.991Z</time></trkpt><trkpt lat="43.8964387" lon="11.1975478"><ele>254.20000000000002</ele><time>2026-05-02T09:22:18.991Z</time></trkpt><trkpt lat="43.8965199" lon="11.1975553"><ele>257.40000000000003</ele><time>2026-05-02T09:22:19.991Z</time></trkpt><trkpt lat="43.8966282" lon="11.1975381"><ele>260.6</ele><time>2026-05-02T09:22:20.991Z</time></trkpt><trkpt lat="43.8967235" lon="11.1975366"><ele>263.8</ele><time>2026-05-02T09:22:21.991Z</time></trkpt><trkpt lat="43.8968256" lon="11.1975145"><ele>267.0</ele><time>2026-05-02T09:22:22.991Z</time></trkpt><trkpt lat="43.8969351" lon="11.1974605"><ele>267.1666666666667</ele><time>2026-05-02T09:22:23.991Z</time></trkpt><trkpt lat="43.8970036" lon="11.1974827"><ele>267.3333333333333</ele><time>2026-05-02T09:22:24.991Z</time></trkpt><trkpt lat="43.8970992" lon="11.1974873"><ele>267.5</ele><time>2026-05-02T09:22:25.991Z</time></trkpt><trkpt lat="43.8971806" lon="11.1974761"><ele>267.66666666666663</ele><time>2026-05-02T09:22:26.991Z</time></trkpt><trkpt lat="43.8972399" lon="11.1975069"><ele>267.8333333333333</ele><time>2026-05-02T09:22:27.991Z</time></trkpt><trkpt lat="43.8973087" lon="11.1975601"><ele>268.0</ele><time>2026-05-02T09:22:28.992Z</time></trkpt><trkpt lat="43.8973927" lon="11.1976321"><ele>268.0</ele><time>2026-05-02T09:22:29.992Z</time></trkpt><trkpt lat="43.8974557" lon="11.1977467"><ele>268.0</ele><time>2026-05-02T09:22:30.991Z</time></trkpt><trkpt lat="43.8975432" lon="11.1978589"><ele>268.0</ele><time>2026-05-02T09:22:31.991Z</time></trkpt><trkpt lat="43.8976225" lon="11.1979747"><ele>268.0</ele><time>2026-05-02T09:22:32.991Z</time></trkpt><trkpt lat="43.8977154" lon="11.1980953"><ele>266.25</ele><time>2026-05-02T09:22:33.992Z</time></trkpt><trkpt lat="43.8978053" lon="11.198245"><ele>264.5</ele><time>2026-05-02T09:22:34.991Z</time></trkpt><trkpt lat="43.8979013" lon="11.1983817"><ele>262.75</ele><time>2026-05-02T09:22:35.992Z</time></trkpt><trkpt lat="43.8979861" lon="11.1985356"><ele>261.0</ele><time>2026-05-02T09:22:36.991Z</time></trkpt><trkpt lat="43.8980675" lon="11.1986743"><ele>261.0</ele><time>2026-05-02T09:22:37.992Z</time></trkpt><trkpt lat="43.8981476" lon="11.1988131"><ele>261.0</ele><time>2026-05-02T09:22:38.991Z</time></trkpt><trkpt lat="43.8982127" lon="11.198911"><ele>261.0</ele><time>2026-05-02T09:22:39.992Z</time></trkpt><trkpt lat="43.8982875" lon="11.1990455"><ele>261.0</ele><time>2026-05-02T09:22:40.991Z</time></trkpt><trkpt lat="43.8983535" lon="11.1991508"><ele>261.0</ele><time>2026-05-02T09:22:41.991Z</time></trkpt><trkpt lat="43.898413" lon="11.1992599"><ele>261.75</ele><time>2026-05-02T09:22:42.991Z</time></trkpt><trkpt lat="43.8985104" lon="11.1993634"><ele>262.5</ele><time>2026-05-02T09:22:43.991Z</time></trkpt><trkpt lat="43.8986113" lon="11.1994478"><ele>263.25</ele><time>2026-05-02T09:22:44.991Z</time></trkpt><trkpt lat="43.8987265" lon="11.1995232"><ele>264.0</ele><time>2026-05-02T09:22:45.992Z</time></trkpt><trkpt lat="43.8988521" lon="11.1996039"><ele>264.0</ele><time>2026-05-02T09:22:46.991Z</time></trkpt><trkpt lat="43.8989564" lon="11.1996749"><ele>264.0</ele><time>2026-05-02T09:22:47.991Z</time></trkpt><trkpt lat="43.8990841" lon="11.1997609"><ele>264.0</ele><time>2026-05-02T09:22:48.991Z</time></trkpt><trkpt lat="43.8991982" lon="11.1998314"><ele>264.0</ele><time>2026-05-02T09:22:49.992Z</time></trkpt><trkpt lat="43.8993011" lon="11.1998858"><ele>268.3333333333333</ele><time>2026-05-02T09:22:50.992Z</time></trkpt><trkpt lat="43.8994239" lon="11.1999277"><ele>272.66666666666663</ele><time>2026-05-02T09:22:51.992Z</time></trkpt><trkpt lat="43.8996155" lon="11.1999431"><ele>277.0</ele><time>2026-05-02T09:22:52.991Z</time></trkpt><trkpt lat="43.8997672" lon="11.199961"><ele>277.0</ele><time>2026-05-02T09:22:53.991Z</time></trkpt><trkpt lat="43.8998899" lon="11.1999726"><ele>277.0</ele><time>2026-05-02T09:22:54.991Z</time></trkpt><trkpt lat="43.9000184" lon="11.1999833"><ele>277.0</ele><time>2026-05-02T09:22:55.991Z</time></trkpt><trkpt lat="43.9001383" lon="11.1999903"><ele>277.0</ele><time>2026-05-02T09:22:56.991Z</time></trkpt><trkpt lat="43.9002519" lon="11.1999984"><ele>276.4</ele><time>2026-05-02T09:22:57.991Z</time></trkpt><trkpt lat="43.9003707" lon="11.2000025"><ele>275.79999999999995</ele><time>2026-05-02T09:22:58.991Z</time></trkpt><trkpt lat="43.9004735" lon="11.2000151"><ele>275.2</ele><time>2026-05-02T09:22:59.991Z</time></trkpt><trkpt lat="43.9005789" lon="11.2000281"><ele>274.59999999999997</ele><time>2026-05-02T09:23:00.991Z</time></trkpt><trkpt lat="43.9006552" lon="11.2000212"><ele>274.0</ele><time>2026-05-02T09:23:01.991Z</time></trkpt><trkpt lat="43.9007249" lon="11.2000406"><ele>274.0</ele><time>2026-05-02T09:23:02.991Z</time></trkpt><trkpt lat="43.9008369" lon="11.2000729"><ele>274.0</ele><time>2026-05-02T09:23:04.991Z</time></trkpt><trkpt lat="43.9009333" lon="11.2000984"><ele>274.0</ele><time>2026-05-02T09:23:06.991Z</time></trkpt><trkpt lat="43.9009988" lon="11.2001318"><ele>274.0</ele><time>2026-05-02T09:23:07.991Z</time></trkpt><trkpt lat="43.9010746" lon="11.2001748"><ele>274.0</ele><time>2026-05-02T09:23:08.991Z</time></trkpt><trkpt lat="43.9011595" lon="11.2002271"><ele>272.8</ele><time>2026-05-02T09:23:09.992Z</time></trkpt><trkpt lat="43.9012486" lon="11.2002877"><ele>271.59999999999997</ele><time>2026-05-02T09:23:10.992Z</time></trkpt><trkpt lat="43.901342" lon="11.2003474"><ele>270.4</ele><time>2026-05-02T09:23:11.991Z</time></trkpt><trkpt lat="43.9014314" lon="11.2004089"><ele>269.2</ele><time>2026-05-02T09:23:12.991Z</time></trkpt><trkpt lat="43.9015099" lon="11.2004623"><ele>268.0</ele><time>2026-05-02T09:23:13.991Z</time></trkpt><trkpt lat="43.9015824" lon="11.2005049"><ele>268.0</ele><time>2026-05-02T09:23:14.992Z</time></trkpt><trkpt lat="43.9016409" lon="11.2005407"><ele>268.0</ele><time>2026-05-02T09:23:15.991Z</time></trkpt><trkpt lat="43.9017069" lon="11.2005832"><ele>268.0</ele><time>2026-05-02T09:23:16.992Z</time></trkpt><trkpt lat="43.9017799" lon="11.2006307"><ele>268.0</ele><time>2026-05-02T09:23:17.991Z</time></trkpt><trkpt lat="43.9018596" lon="11.2006852"><ele>268.0</ele><time>2026-05-02T09:23:18.991Z</time></trkpt><trkpt lat="43.9019585" lon="11.2007534"><ele>268.0</ele><time>2026-05-02T09:23:19.991Z</time></trkpt><trkpt lat="43.9020643" lon="11.2008145"><ele>271.0</ele><time>2026-05-02T09:23:20.991Z</time></trkpt><trkpt lat="43.9021633" lon="11.2008763"><ele>274.0</ele><time>2026-05-02T09:23:21.991Z</time></trkpt><trkpt lat="43.9022633" lon="11.2009347"><ele>277.0</ele><time>2026-05-02T09:23:22.991Z</time></trkpt><trkpt lat="43.9023566" lon="11.2009899"><ele>280.0</ele><time>2026-05-02T09:23:23.991Z</time></trkpt><trkpt lat="43.9024397" lon="11.2010389"><ele>283.0</ele><time>2026-05-02T09:23:24.991Z</time></trkpt><trkpt lat="43.902511" lon="11.2010785"><ele>283.8</ele><time>2026-05-02T09:23:25.992Z</time></trkpt><trkpt lat="43.9026172" lon="11.2011369"><ele>284.6</ele><time>2026-05-02T09:23:27.992Z</time></trkpt><trkpt lat="43.9026737" lon="11.2011768"><ele>285.4</ele><time>2026-05-02T09:23:28.991Z</time></trkpt><trkpt lat="43.9027834" lon="11.2012656"><ele>286.2</ele><time>2026-05-02T09:23:30.991Z</time></trkpt><trkpt lat="43.9028513" lon="11.20131"><ele>287.0</ele><time>2026-05-02T09:23:31.991Z</time></trkpt><trkpt lat="43.9029367" lon="11.2013761"><ele>287.0</ele><time>2026-05-02T09:23:33.991Z</time></trkpt><trkpt lat="43.9030034" lon="11.2013984"><ele>287.0</ele><time>2026-05-02T09:23:53.991Z</time></trkpt><trkpt lat="43.9030676" lon="11.2014039"><ele>287.0</ele><time>2026-05-02T09:23:56.991Z</time></trkpt><trkpt lat="43.9031653" lon="11.2013965"><ele>287.0</ele><time>2026-05-02T09:23:58.992Z</time></trkpt><trkpt lat="43.9032835" lon="11.201399"><ele>287.0</ele><time>2026-05-02T09:24:00.991Z</time></trkpt><trkpt lat="43.9033641" lon="11.201376"><ele>287.0</ele><time>2026-05-02T09:24:01.991Z</time></trkpt><trkpt lat="43.9034375" lon="11.2013703"><ele>288.33333333333337</ele><time>2026-05-02T09:24:02.992Z</time></trkpt><trkpt lat="43.9035115" lon="11.2013485"><ele>289.6666666666667</ele><time>2026-05-02T09:24:03.991Z</time></trkpt><trkpt lat="43.9035937" lon="11.2013222"><ele>291.0</ele><time>2026-05-02T09:24:04.991Z</time></trkpt><trkpt lat="43.9036739" lon="11.2012876"><ele>292.3333333333333</ele><time>2026-05-02T09:24:05.992Z</time></trkpt><trkpt lat="43.9037411" lon="11.2012517"><ele>293.66666666666663</ele><time>2026-05-02T09:24:06.991Z</time></trkpt><trkpt lat="43.9038051" lon="11.2012135"><ele>295.0</ele><time>2026-05-02T09:24:07.992Z</time></trkpt><trkpt lat="43.9038737" lon="11.2011746"><ele>295.0</ele><time>2026-05-02T09:24:08.992Z</time></trkpt><trkpt lat="43.9039532" lon="11.2011356"><ele>295.0</ele><time>2026-05-02T09:24:09.991Z</time></trkpt><trkpt lat="43.9040279" lon="11.2010939"><ele>295.0</ele><time>2026-05-02T09:24:10.991Z</time></trkpt><trkpt lat="43.9040937" lon="11.2010575"><ele>295.0</ele><time>2026-05-02T09:24:11.991Z</time></trkpt><trkpt lat="43.9041622" lon="11.2010228"><ele>295.0</ele><time>2026-05-02T09:24:12.991Z</time></trkpt><trkpt lat="43.9042337" lon="11.2009904"><ele>295.0</ele><time>2026-05-02T09:24:13.991Z</time></trkpt><trkpt lat="43.9042996" lon="11.2009603"><ele>296.5</ele><time>2026-05-02T09:24:14.992Z</time></trkpt><trkpt lat="43.9043721" lon="11.2009314"><ele>298.0</ele><time>2026-05-02T09:24:15.991Z</time></trkpt><trkpt lat="43.9044469" lon="11.2008991"><ele>299.5</ele><time>2026-05-02T09:24:16.992Z</time></trkpt><trkpt lat="43.9045229" lon="11.2008668"><ele>301.0</ele><time>2026-05-02T09:24:17.991Z</time></trkpt><trkpt lat="43.904607" lon="11.2008271"><ele>302.5</ele><time>2026-05-02T09:24:18.991Z</time></trkpt><trkpt lat="43.9046879" lon="11.2007777"><ele>304.0</ele><time>2026-05-02T09:24:19.991Z</time></trkpt><trkpt lat="43.9047672" lon="11.2007329"><ele>304.0</ele><time>2026-05-02T09:24:20.992Z</time></trkpt><trkpt lat="43.9048393" lon="11.2006938"><ele>304.0</ele><time>2026-05-02T09:24:21.991Z</time></trkpt><trkpt lat="43.9049068" lon="11.2006558"><ele>304.0</ele><time>2026-05-02T09:24:22.991Z</time></trkpt><trkpt lat="43.9049754" lon="11.2006205"><ele>304.0</ele><time>2026-05-02T09:24:23.991Z</time></trkpt><trkpt lat="43.9050421" lon="11.2005837"><ele>304.0</ele><time>2026-05-02T09:24:24.991Z</time></trkpt><trkpt lat="43.905106" lon="11.2005513"><ele>304.0</ele><time>2026-05-02T09:24:25.991Z</time></trkpt><trkpt lat="43.9051757" lon="11.2005025"><ele>304.0</ele><time>2026-05-02T09:24:27.991Z</time></trkpt><trkpt lat="43.9052504" lon="11.2004606"><ele>302.7142857142857</ele><time>2026-05-02T09:24:34.991Z</time></trkpt><trkpt lat="43.9053164" lon="11.2004273"><ele>301.42857142857144</ele><time>2026-05-02T09:24:37.991Z</time></trkpt><trkpt lat="43.9053855" lon="11.200397"><ele>300.14285714285717</ele><time>2026-05-02T09:24:40.991Z</time></trkpt><trkpt lat="43.9054532" lon="11.2003627"><ele>298.8571428571429</ele><time>2026-05-02T09:24:43.991Z</time></trkpt><trkpt lat="43.9055307" lon="11.200319"><ele>297.57142857142856</ele><time>2026-05-02T09:24:46.991Z</time></trkpt><trkpt lat="43.905598" lon="11.2003364"><ele>296.28571428571433</ele><time>2026-05-02T09:24:49.991Z</time></trkpt><trkpt lat="43.9056131" lon="11.2004456"><ele>295.0</ele><time>2026-05-02T09:24:52.992Z</time></trkpt><trkpt lat="43.9055978" lon="11.2005901"><ele>296.2</ele><time>2026-05-02T09:24:54.991Z</time></trkpt><trkpt lat="43.9055865" lon="11.2006819"><ele>297.4</ele><time>2026-05-02T09:24:55.991Z</time></trkpt><trkpt lat="43.9055617" lon="11.2008637"><ele>298.6</ele><time>2026-05-02T09:24:57.991Z</time></trkpt><trkpt lat="43.9055413" lon="11.2009574"><ele>299.8</ele><time>2026-05-02T09:24:58.991Z</time></trkpt><trkpt lat="43.9055247" lon="11.2010959"><ele>301.0</ele><time>2026-05-02T09:25:00.991Z</time></trkpt><trkpt lat="43.9055113" lon="11.201215"><ele>301.0</ele><time>2026-05-02T09:25:03.991Z</time></trkpt><trkpt lat="43.9055042" lon="11.2013616"><ele>301.0</ele><time>2026-05-02T09:25:05.992Z</time></trkpt><trkpt lat="43.9054893" lon="11.2014624"><ele>301.0</ele><time>2026-05-02T09:25:07.991Z</time></trkpt><trkpt lat="43.9054389" lon="11.201522"><ele>301.0</ele><time>2026-05-02T09:25:14.991Z</time></trkpt><trkpt lat="43.9053945" lon="11.2014593"><ele>301.0</ele><time>2026-05-02T09:25:18.991Z</time></trkpt><trkpt lat="43.9054613" lon="11.201413"><ele>301.0</ele><time>2026-05-02T09:25:21.991Z</time></trkpt><trkpt lat="43.9055013" lon="11.2013444"><ele>301.0</ele><time>2026-05-02T09:25:24.992Z</time></trkpt><trkpt lat="43.9055771" lon="11.2013258"><ele>301.0</ele><time>2026-05-02T09:25:36.991Z</time></trkpt><trkpt lat="43.9056343" lon="11.2013791"><ele>301.0</ele><time>2026-05-02T09:25:38.991Z</time></trkpt><trkpt lat="43.9056879" lon="11.2014715"><ele>301.0</ele><time>2026-05-02T09:25:41.991Z</time></trkpt><trkpt lat="43.9057261" lon="11.2015745"><ele>301.0</ele><time>2026-05-02T09:25:45.991Z</time></trkpt><trkpt lat="43.9057557" lon="11.2016619"><ele>301.0</ele><time>2026-05-02T09:25:49.991Z</time></trkpt><trkpt lat="43.9058164" lon="11.2017144"><ele>301.0</ele><time>2026-05-02T09:25:53.992Z</time></trkpt><trkpt lat="43.9058716" lon="11.2017641"><ele>301.0</ele><time>2026-05-02T09:25:58.991Z</time></trkpt><trkpt lat="43.9059209" lon="11.2018463"><ele>300.3333333333333</ele><time>2026-05-02T09:26:04.991Z</time></trkpt><trkpt lat="43.9059821" lon="11.2019197"><ele>299.66666666666663</ele><time>2026-05-02T09:26:07.991Z</time></trkpt><trkpt lat="43.9060356" lon="11.2019966"><ele>299.0</ele><time>2026-05-02T09:26:09.992Z</time></trkpt><trkpt lat="43.9060804" lon="11.2020713"><ele>298.3333333333333</ele><time>2026-05-02T09:26:11.992Z</time></trkpt><trkpt lat="43.9061353" lon="11.2021763"><ele>297.6666666666667</ele><time>2026-05-02T09:26:14.991Z</time></trkpt><trkpt lat="43.9061939" lon="11.2022518"><ele>297.0</ele><time>2026-05-02T09:26:17.991Z</time></trkpt><trkpt lat="43.9062584" lon="11.2023189"><ele>300.6666666666667</ele><time>2026-05-02T09:26:20.991Z</time></trkpt><trkpt lat="43.9063411" lon="11.2023866"><ele>304.3333333333333</ele><time>2026-05-02T09:26:23.991Z</time></trkpt><trkpt lat="43.9064074" lon="11.2024616"><ele>308.0</ele><time>2026-05-02T09:26:25.991Z</time></trkpt><trkpt lat="43.906465" lon="11.2025426"><ele>311.66666666666663</ele><time>2026-05-02T09:26:28.991Z</time></trkpt><trkpt lat="43.9065388" lon="11.2025988"><ele>315.3333333333333</ele><time>2026-05-02T09:26:31.991Z</time></trkpt><trkpt lat="43.9066192" lon="11.2026579"><ele>319.0</ele><time>2026-05-02T09:26:34.991Z</time></trkpt><trkpt lat="43.9066762" lon="11.202696"><ele>319.0</ele><time>2026-05-02T09:26:40.991Z</time></trkpt><trkpt lat="43.9067236" lon="11.2027673"><ele>319.0</ele><time>2026-05-02T09:26:47.991Z</time></trkpt><trkpt lat="43.9067717" lon="11.2027099"><ele>319.0</ele><time>2026-05-02T09:27:34.991Z</time></trkpt><trkpt lat="43.90686" lon="11.2027236"><ele>319.0</ele><time>2026-05-02T09:30:05.991Z</time></trkpt><trkpt lat="43.906933" lon="11.2027652"><ele>319.0</ele><time>2026-05-02T09:30:08.992Z</time></trkpt><trkpt lat="43.9069929" lon="11.2028247"><ele>319.0</ele><time>2026-05-02T09:30:14.991Z</time></trkpt><trkpt lat="43.907066" lon="11.2028591"><ele>316.8571428571429</ele><time>2026-05-02T09:30:17.991Z</time></trkpt><trkpt lat="43.9071305" lon="11.202909"><ele>314.71428571428567</ele><time>2026-05-02T09:30:20.991Z</time></trkpt><trkpt lat="43.9071926" lon="11.2029365"><ele>312.57142857142856</ele><time>2026-05-02T09:30:23.991Z</time></trkpt><trkpt lat="43.907267" lon="11.2029462"><ele>310.42857142857144</ele><time>2026-05-02T09:30:48.991Z</time></trkpt><trkpt lat="43.9073298" lon="11.2029841"><ele>308.28571428571433</ele><time>2026-05-02T09:30:56.991Z</time></trkpt><trkpt lat="43.9073883" lon="11.20302"><ele>306.1428571428571</ele><time>2026-05-02T09:31:00.991Z</time></trkpt><trkpt lat="43.9074557" lon="11.2030619"><ele>304.0</ele><time>2026-05-02T09:31:17.991Z</time></trkpt><trkpt lat="43.9074711" lon="11.2031566"><ele>304.0</ele><time>2026-05-02T09:37:05.991Z</time></trkpt><trkpt lat="43.9074307" lon="11.203226"><ele>329.0</ele><time>2026-05-02T09:37:09.992Z</time></trkpt><trkpt lat="43.9074788" lon="11.2031674"><ele>329.0</ele><time>2026-05-02T09:39:41.991Z</time></trkpt><trkpt lat="43.9074788" lon="11.2031674"><ele>329.0</ele><time>2026-05-02T09:39:41.991Z</time></trkpt></trkseg><trkseg><trkpt lat="43.9075208" lon="11.2030724"><ele>305.0</ele><time>2026-05-02T09:57:21.992Z</time></trkpt><trkpt lat="43.9075783" lon="11.2031187"><ele>306.0</ele><time>2026-05-02T09:57:24.992Z</time></trkpt><trkpt lat="43.9076513" lon="11.2031629"><ele>307.0</ele><time>2026-05-02T09:57:27.993Z</time></trkpt><trkpt lat="43.9077165" lon="11.2031847"><ele>308.0</ele><time>2026-05-02T09:57:30.993Z</time></trkpt><trkpt lat="43.9077969" lon="11.2031623"><ele>309.0</ele><time>2026-05-02T09:57:33.992Z</time></trkpt><trkpt lat="43.9079039" lon="11.2031257"><ele>310.0</ele><time>2026-05-02T09:57:35.993Z</time></trkpt><trkpt lat="43.9080099" lon="11.2031118"><ele>310.0</ele><time>2026-05-02T09:57:37.992Z</time></trkpt><trkpt lat="43.9080822" lon="11.2030898"><ele>310.0</ele><time>2026-05-02T09:57:39.992Z</time></trkpt><trkpt lat="43.9081666" lon="11.2030893"><ele>310.0</ele><time>2026-05-02T09:58:08.992Z</time></trkpt><trkpt lat="43.9082346" lon="11.2030349"><ele>310.0</ele><time>2026-05-02T09:58:11.993Z</time></trkpt><trkpt lat="43.9082952" lon="11.202986"><ele>310.0</ele><time>2026-05-02T09:58:17.993Z</time></trkpt><trkpt lat="43.9083706" lon="11.2030002"><ele>310.0</ele><time>2026-05-02T09:58:19.992Z</time></trkpt><trkpt lat="43.9084824" lon="11.2029985"><ele>311.0</ele><time>2026-05-02T09:58:21.992Z</time></trkpt><trkpt lat="43.9085864" lon="11.2029945"><ele>312.0</ele><time>2026-05-02T09:58:23.992Z</time></trkpt><trkpt lat="43.9087084" lon="11.2029902"><ele>313.0</ele><time>2026-05-02T09:58:25.992Z</time></trkpt><trkpt lat="43.9087842" lon="11.2029858"><ele>314.0</ele><time>2026-05-02T09:58:26.993Z</time></trkpt><trkpt lat="43.9088644" lon="11.2029844"><ele>315.0</ele><time>2026-05-02T09:58:27.992Z</time></trkpt><trkpt lat="43.9089405" lon="11.2029855"><ele>315.0</ele><time>2026-05-02T09:58:28.993Z</time></trkpt><trkpt lat="43.9090056" lon="11.2029834"><ele>315.0</ele><time>2026-05-02T09:58:29.992Z</time></trkpt><trkpt lat="43.9091247" lon="11.2029807"><ele>315.0</ele><time>2026-05-02T09:58:31.992Z</time></trkpt><trkpt lat="43.9091912" lon="11.2029808"><ele>315.0</ele><time>2026-05-02T09:58:32.994Z</time></trkpt><trkpt lat="43.9092648" lon="11.2029848"><ele>315.0</ele><time>2026-05-02T09:58:33.992Z</time></trkpt><trkpt lat="43.9093367" lon="11.2029862"><ele>315.0</ele><time>2026-05-02T09:58:34.992Z</time></trkpt><trkpt lat="43.9094081" lon="11.2029893"><ele>317.1666666666667</ele><time>2026-05-02T09:58:35.992Z</time></trkpt><trkpt lat="43.909528" lon="11.2029828"><ele>319.3333333333333</ele><time>2026-05-02T09:58:37.992Z</time></trkpt><trkpt lat="43.909591" lon="11.2029836"><ele>321.5</ele><time>2026-05-02T09:58:38.992Z</time></trkpt><trkpt lat="43.9096595" lon="11.2029829"><ele>323.66666666666663</ele><time>2026-05-02T09:58:39.992Z</time></trkpt><trkpt lat="43.9097291" lon="11.2029869"><ele>325.8333333333333</ele><time>2026-05-02T09:58:40.992Z</time></trkpt><trkpt lat="43.909808" lon="11.2029843"><ele>328.0</ele><time>2026-05-02T09:58:41.992Z</time></trkpt><trkpt lat="43.9098937" lon="11.2029818"><ele>328.0</ele><time>2026-05-02T09:58:42.993Z</time></trkpt><trkpt lat="43.9099758" lon="11.2029819"><ele>328.0</ele><time>2026-05-02T09:58:43.992Z</time></trkpt><trkpt lat="43.9100477" lon="11.2029694"><ele>328.0</ele><time>2026-05-02T09:58:44.993Z</time></trkpt><trkpt lat="43.9101773" lon="11.2029666"><ele>328.0</ele><time>2026-05-02T09:58:46.992Z</time></trkpt><trkpt lat="43.9102815" lon="11.2029367"><ele>328.0</ele><time>2026-05-02T09:58:48.992Z</time></trkpt><trkpt lat="43.9103415" lon="11.20288"><ele>330.59999999999997</ele><time>2026-05-02T09:58:50.992Z</time></trkpt><trkpt lat="43.9104002" lon="11.2027541"><ele>333.2</ele><time>2026-05-02T09:58:52.992Z</time></trkpt><trkpt lat="43.9104792" lon="11.2026463"><ele>335.8</ele><time>2026-05-02T09:58:54.992Z</time></trkpt><trkpt lat="43.9105646" lon="11.2026094"><ele>338.4</ele><time>2026-05-02T09:58:56.992Z</time></trkpt><trkpt lat="43.9106387" lon="11.2026099"><ele>341.0</ele><time>2026-05-02T09:58:59.992Z</time></trkpt><trkpt lat="43.9106964" lon="11.2027124"><ele>341.0</ele><time>2026-05-02T09:59:02.992Z</time></trkpt><trkpt lat="43.9107582" lon="11.2028308"><ele>341.0</ele><time>2026-05-02T09:59:04.992Z</time></trkpt><trkpt lat="43.9108223" lon="11.2029512"><ele>341.0</ele><time>2026-05-02T09:59:06.993Z</time></trkpt><trkpt lat="43.9108896" lon="11.2029942"><ele>341.0</ele><time>2026-05-02T09:59:17.992Z</time></trkpt><trkpt lat="43.9108924" lon="11.2028957"><ele>341.0</ele><time>2026-05-02T09:59:21.992Z</time></trkpt><trkpt lat="43.9108284" lon="11.2028658"><ele>341.0</ele><time>2026-05-02T09:59:24.992Z</time></trkpt><trkpt lat="43.9107583" lon="11.2028502"><ele>341.0</ele><time>2026-05-02T09:59:30.992Z</time></trkpt><trkpt lat="43.9107115" lon="11.2027583"><ele>341.0</ele><time>2026-05-02T09:59:34.992Z</time></trkpt><trkpt lat="43.9106671" lon="11.2026555"><ele>341.0</ele><time>2026-05-02T09:59:37.992Z</time></trkpt><trkpt lat="43.9106352" lon="11.2025648"><ele>341.0</ele><time>2026-05-02T09:59:41.992Z</time></trkpt><trkpt lat="43.9106881" lon="11.2024638"><ele>341.0</ele><time>2026-05-02T09:59:44.992Z</time></trkpt><trkpt lat="43.9107756" lon="11.2024061"><ele>341.0</ele><time>2026-05-02T09:59:46.992Z</time></trkpt><trkpt lat="43.9108423" lon="11.2023553"><ele>341.0</ele><time>2026-05-02T09:59:48.992Z</time></trkpt><trkpt lat="43.910908" lon="11.2023631"><ele>341.0</ele><time>2026-05-02T09:59:52.992Z</time></trkpt><trkpt lat="43.9109738" lon="11.20241"><ele>341.0</ele><time>2026-05-02T09:59:55.992Z</time></trkpt><trkpt lat="43.9110427" lon="11.2024646"><ele>341.0</ele><time>2026-05-02T09:59:59.992Z</time></trkpt><trkpt lat="43.9111105" lon="11.2025709"><ele>341.0</ele><time>2026-05-02T10:00:01.992Z</time></trkpt><trkpt lat="43.9111467" lon="11.2026607"><ele>341.0</ele><time>2026-05-02T10:00:03.992Z</time></trkpt><trkpt lat="43.91115" lon="11.2027716"><ele>341.0</ele><time>2026-05-02T10:00:06.992Z</time></trkpt><trkpt lat="43.9112122" lon="11.2028986"><ele>341.0</ele><time>2026-05-02T10:00:09.992Z</time></trkpt><trkpt lat="43.9112931" lon="11.2029803"><ele>341.0</ele><time>2026-05-02T10:00:11.992Z</time></trkpt><trkpt lat="43.9113895" lon="11.2030541"><ele>341.0</ele><time>2026-05-02T10:00:13.992Z</time></trkpt><trkpt lat="43.9115156" lon="11.2031192"><ele>341.0</ele><time>2026-05-02T10:00:15.992Z</time></trkpt><trkpt lat="43.9115831" lon="11.2031486"><ele>341.0</ele><time>2026-05-02T10:00:16.992Z</time></trkpt><trkpt lat="43.9116501" lon="11.2031718"><ele>341.0</ele><time>2026-05-02T10:00:17.992Z</time></trkpt><trkpt lat="43.9117184" lon="11.2031795"><ele>341.0</ele><time>2026-05-02T10:00:18.992Z</time></trkpt><trkpt lat="43.9117827" lon="11.2031706"><ele>341.0</ele><time>2026-05-02T10:00:19.992Z</time></trkpt><trkpt lat="43.9118456" lon="11.2031651"><ele>341.0</ele><time>2026-05-02T10:00:20.992Z</time></trkpt><trkpt lat="43.9119653" lon="11.2031662"><ele>344.20000000000005</ele><time>2026-05-02T10:00:22.992Z</time></trkpt><trkpt lat="43.9120815" lon="11.2032178"><ele>347.40000000000003</ele><time>2026-05-02T10:00:24.992Z</time></trkpt><trkpt lat="43.9121947" lon="11.2032771"><ele>350.6</ele><time>2026-05-02T10:00:26.993Z</time></trkpt><trkpt lat="43.9122747" lon="11.2033487"><ele>353.8</ele><time>2026-05-02T10:00:28.992Z</time></trkpt><trkpt lat="43.9123111" lon="11.2034645"><ele>357.0</ele><time>2026-05-02T10:00:31.993Z</time></trkpt><trkpt lat="43.9123498" lon="11.2035774"><ele>357.0</ele><time>2026-05-02T10:00:35.992Z</time></trkpt><trkpt lat="43.9123762" lon="11.2036641"><ele>357.0</ele><time>2026-05-02T10:00:38.992Z</time></trkpt><trkpt lat="43.9123721" lon="11.2037947"><ele>357.0</ele><time>2026-05-02T10:00:41.992Z</time></trkpt><trkpt lat="43.9124019" lon="11.2038879"><ele>357.0</ele><time>2026-05-02T10:00:43.992Z</time></trkpt><trkpt lat="43.9124599" lon="11.2039744"><ele>357.0</ele><time>2026-05-02T10:00:47.992Z</time></trkpt><trkpt lat="43.9125031" lon="11.2040607"><ele>357.0</ele><time>2026-05-02T10:00:49.992Z</time></trkpt><trkpt lat="43.9125607" lon="11.2041716"><ele>357.0</ele><time>2026-05-02T10:00:51.992Z</time></trkpt><trkpt lat="43.9126123" lon="11.2042653"><ele>357.0</ele><time>2026-05-02T10:00:54.992Z</time></trkpt><trkpt lat="43.9126534" lon="11.2043469"><ele>357.0</ele><time>2026-05-02T10:00:59.993Z</time></trkpt><trkpt lat="43.912701" lon="11.2044581"><ele>357.0</ele><time>2026-05-02T10:01:03.992Z</time></trkpt><trkpt lat="43.9127701" lon="11.204494"><ele>357.0</ele><time>2026-05-02T10:01:05.992Z</time></trkpt><trkpt lat="43.9128564" lon="11.2045632"><ele>357.0</ele><time>2026-05-02T10:01:08.992Z</time></trkpt><trkpt lat="43.9128909" lon="11.2046431"><ele>357.0</ele><time>2026-05-02T10:01:10.992Z</time></trkpt><trkpt lat="43.9129281" lon="11.2047393"><ele>357.0</ele><time>2026-05-02T10:01:13.993Z</time></trkpt><trkpt lat="43.9129731" lon="11.2048202"><ele>357.0</ele><time>2026-05-02T10:01:15.992Z</time></trkpt><trkpt lat="43.9130083" lon="11.2048934"><ele>357.0</ele><time>2026-05-02T10:01:17.992Z</time></trkpt><trkpt lat="43.9130489" lon="11.204973"><ele>357.0</ele><time>2026-05-02T10:01:19.992Z</time></trkpt><trkpt lat="43.913096" lon="11.2050586"><ele>357.0</ele><time>2026-05-02T10:01:21.992Z</time></trkpt><trkpt lat="43.9131562" lon="11.2051341"><ele>357.0</ele><time>2026-05-02T10:01:23.992Z</time></trkpt><trkpt lat="43.9132462" lon="11.2051937"><ele>358.1666666666667</ele><time>2026-05-02T10:01:25.992Z</time></trkpt><trkpt lat="43.9133147" lon="11.2052735"><ele>359.3333333333333</ele><time>2026-05-02T10:01:27.992Z</time></trkpt><trkpt lat="43.9133794" lon="11.2053702"><ele>360.5</ele><time>2026-05-02T10:01:29.992Z</time></trkpt><trkpt lat="43.913459" lon="11.2054494"><ele>361.66666666666663</ele><time>2026-05-02T10:01:31.992Z</time></trkpt><trkpt lat="43.9135151" lon="11.2055026"><ele>362.8333333333333</ele><time>2026-05-02T10:01:33.992Z</time></trkpt><trkpt lat="43.9135657" lon="11.205555"><ele>364.0</ele><time>2026-05-02T10:01:35.992Z</time></trkpt><trkpt lat="43.9136278" lon="11.2056017"><ele>367.3333333333333</ele><time>2026-05-02T10:01:38.992Z</time></trkpt><trkpt lat="43.9136777" lon="11.2056804"><ele>370.66666666666663</ele><time>2026-05-02T10:01:46.992Z</time></trkpt><trkpt lat="43.9137406" lon="11.2057445"><ele>374.0</ele><time>2026-05-02T10:01:48.992Z</time></trkpt><trkpt lat="43.9138081" lon="11.2058025"><ele>377.3333333333333</ele><time>2026-05-02T10:01:50.992Z</time></trkpt><trkpt lat="43.9138732" lon="11.2058636"><ele>380.6666666666667</ele><time>2026-05-02T10:01:52.993Z</time></trkpt><trkpt lat="43.9139483" lon="11.2059199"><ele>384.0</ele><time>2026-05-02T10:01:54.992Z</time></trkpt><trkpt lat="43.9140107" lon="11.205961"><ele>384.0</ele><time>2026-05-02T10:01:55.993Z</time></trkpt><trkpt lat="43.9141087" lon="11.2060154"><ele>384.0</ele><time>2026-05-02T10:01:57.992Z</time></trkpt><trkpt lat="43.914173" lon="11.2060498"><ele>384.0</ele><time>2026-05-02T10:01:58.992Z</time></trkpt><trkpt lat="43.9142617" lon="11.2060892"><ele>384.0</ele><time>2026-05-02T10:01:59.992Z</time></trkpt><trkpt lat="43.9143346" lon="11.206148"><ele>384.0</ele><time>2026-05-02T10:02:00.993Z</time></trkpt><trkpt lat="43.9144295" lon="11.2062379"><ele>383.4</ele><time>2026-05-02T10:02:02.992Z</time></trkpt><trkpt lat="43.9145136" lon="11.2063192"><ele>382.79999999999995</ele><time>2026-05-02T10:02:04.992Z</time></trkpt><trkpt lat="43.9145939" lon="11.2063871"><ele>382.20000000000005</ele><time>2026-05-02T10:02:06.992Z</time></trkpt><trkpt lat="43.9146712" lon="11.2064443"><ele>381.6</ele><time>2026-05-02T10:02:08.993Z</time></trkpt><trkpt lat="43.9147597" lon="11.2064512"><ele>381.0</ele><time>2026-05-02T10:02:10.992Z</time></trkpt><trkpt lat="43.9148746" lon="11.2064792"><ele>383.5</ele><time>2026-05-02T10:02:12.992Z</time></trkpt><trkpt lat="43.9149385" lon="11.2064991"><ele>386.0</ele><time>2026-05-02T10:02:13.992Z</time></trkpt><trkpt lat="43.9150082" lon="11.2065017"><ele>388.5</ele><time>2026-05-02T10:02:14.992Z</time></trkpt><trkpt lat="43.9151111" lon="11.2065292"><ele>391.0</ele><time>2026-05-02T10:02:16.992Z</time></trkpt><trkpt lat="43.9152314" lon="11.2065517"><ele>393.5</ele><time>2026-05-02T10:02:18.993Z</time></trkpt><trkpt lat="43.9152925" lon="11.2065767"><ele>396.0</ele><time>2026-05-02T10:02:19.992Z</time></trkpt><trkpt lat="43.9153485" lon="11.2066207"><ele>396.0</ele><time>2026-05-02T10:02:20.992Z</time></trkpt><trkpt lat="43.9154424" lon="11.2066775"><ele>396.0</ele><time>2026-05-02T10:02:22.992Z</time></trkpt><trkpt lat="43.9155354" lon="11.2067707"><ele>396.0</ele><time>2026-05-02T10:02:25.992Z</time></trkpt><trkpt lat="43.9156314" lon="11.2068466"><ele>396.0</ele><time>2026-05-02T10:02:27.993Z</time></trkpt><trkpt lat="43.915739" lon="11.2069105"><ele>396.0</ele><time>2026-05-02T10:02:29.992Z</time></trkpt><trkpt lat="43.9157978" lon="11.206955"><ele>396.0</ele><time>2026-05-02T10:02:30.992Z</time></trkpt><trkpt lat="43.9158629" lon="11.2070023"><ele>396.0</ele><time>2026-05-02T10:02:31.992Z</time></trkpt><trkpt lat="43.9159206" lon="11.207046"><ele>396.0</ele><time>2026-05-02T10:02:32.992Z</time></trkpt><trkpt lat="43.9160289" lon="11.2070959"><ele>396.0</ele><time>2026-05-02T10:02:34.992Z</time></trkpt><trkpt lat="43.91613" lon="11.2071791"><ele>396.0</ele><time>2026-05-02T10:02:36.992Z</time></trkpt><trkpt lat="43.9162287" lon="11.2072537"><ele>396.7142857142857</ele><time>2026-05-02T10:02:38.993Z</time></trkpt><trkpt lat="43.9162833" lon="11.2072986"><ele>397.4285714285714</ele><time>2026-05-02T10:02:39.992Z</time></trkpt><trkpt lat="43.9163466" lon="11.2073386"><ele>398.1428571428571</ele><time>2026-05-02T10:02:40.992Z</time></trkpt><trkpt lat="43.9164073" lon="11.2073754"><ele>398.8571428571429</ele><time>2026-05-02T10:02:41.992Z</time></trkpt><trkpt lat="43.9164735" lon="11.2074176"><ele>399.57142857142856</ele><time>2026-05-02T10:02:42.992Z</time></trkpt><trkpt lat="43.9165331" lon="11.2074463"><ele>400.2857142857143</ele><time>2026-05-02T10:02:43.992Z</time></trkpt><trkpt lat="43.9165857" lon="11.2075048"><ele>401.0</ele><time>2026-05-02T10:02:44.992Z</time></trkpt><trkpt lat="43.9166487" lon="11.2075644"><ele>400.99999999999994</ele><time>2026-05-02T10:02:45.992Z</time></trkpt><trkpt lat="43.916707" lon="11.2076218"><ele>401.0</ele><time>2026-05-02T10:02:46.992Z</time></trkpt><trkpt lat="43.9167826" lon="11.207707"><ele>401.0</ele><time>2026-05-02T10:02:48.993Z</time></trkpt><trkpt lat="43.9168368" lon="11.2077813"><ele>401.0</ele><time>2026-05-02T10:02:50.992Z</time></trkpt><trkpt lat="43.9168742" lon="11.207866"><ele>400.99999999999994</ele><time>2026-05-02T10:02:53.992Z</time></trkpt><trkpt lat="43.9169325" lon="11.2079899"><ele>401.0</ele><time>2026-05-02T10:05:59.991Z</time></trkpt><trkpt lat="43.9169522" lon="11.2081306"><ele>397.66666666666663</ele><time>2026-05-02T10:06:01.991Z</time></trkpt><trkpt lat="43.9169884" lon="11.2082973"><ele>394.3333333333333</ele><time>2026-05-02T10:06:03.991Z</time></trkpt><trkpt lat="43.917006" lon="11.208398"><ele>391.0</ele><time>2026-05-02T10:06:04.991Z</time></trkpt><trkpt lat="43.9170193" lon="11.2084995"><ele>387.66666666666663</ele><time>2026-05-02T10:06:05.991Z</time></trkpt><trkpt lat="43.9170268" lon="11.2085927"><ele>384.3333333333333</ele><time>2026-05-02T10:06:06.991Z</time></trkpt><trkpt lat="43.9170472" lon="11.208734"><ele>381.0</ele><time>2026-05-02T10:06:08.991Z</time></trkpt><trkpt lat="43.9170771" lon="11.2088419"><ele>381.0</ele><time>2026-05-02T10:06:10.991Z</time></trkpt><trkpt lat="43.9171074" lon="11.2089689"><ele>381.0</ele><time>2026-05-02T10:06:13.992Z</time></trkpt><trkpt lat="43.9171889" lon="11.2090733"><ele>381.0</ele><time>2026-05-02T10:06:15.992Z</time></trkpt><trkpt lat="43.9172449" lon="11.2091354"><ele>381.0</ele><time>2026-05-02T10:06:16.991Z</time></trkpt><trkpt lat="43.9172947" lon="11.2092136"><ele>381.0</ele><time>2026-05-02T10:06:17.991Z</time></trkpt><trkpt lat="43.9173552" lon="11.209275"><ele>381.0</ele><time>2026-05-02T10:06:18.991Z</time></trkpt><trkpt lat="43.9174341" lon="11.2094116"><ele>383.0</ele><time>2026-05-02T10:06:20.991Z</time></trkpt><trkpt lat="43.9174927" lon="11.2095629"><ele>385.0</ele><time>2026-05-02T10:06:22.991Z</time></trkpt><trkpt lat="43.917524" lon="11.2097248"><ele>387.0</ele><time>2026-05-02T10:06:24.991Z</time></trkpt><trkpt lat="43.9175398" lon="11.2098573"><ele>389.0</ele><time>2026-05-02T10:06:26.991Z</time></trkpt><trkpt lat="43.9175355" lon="11.2099899"><ele>391.0</ele><time>2026-05-02T10:06:28.991Z</time></trkpt><trkpt lat="43.9175589" lon="11.210128"><ele>383.6</ele><time>2026-05-02T10:06:30.992Z</time></trkpt><trkpt lat="43.917593" lon="11.2102797"><ele>376.20000000000005</ele><time>2026-05-02T10:06:32.991Z</time></trkpt><trkpt lat="43.9176121" lon="11.2103651"><ele>368.79999999999995</ele><time>2026-05-02T10:06:33.991Z</time></trkpt><trkpt lat="43.917655" lon="11.2105338"><ele>361.4</ele><time>2026-05-02T10:06:35.991Z</time></trkpt><trkpt lat="43.917668" lon="11.2106261"><ele>354.0</ele><time>2026-05-02T10:06:36.991Z</time></trkpt><trkpt lat="43.9176869" lon="11.2107259"><ele>354.0</ele><time>2026-05-02T10:06:37.991Z</time></trkpt><trkpt lat="43.9177063" lon="11.210815"><ele>354.0</ele><time>2026-05-02T10:06:38.991Z</time></trkpt><trkpt lat="43.9177325" lon="11.2109602"><ele>354.0</ele><time>2026-05-02T10:06:40.992Z</time></trkpt><trkpt lat="43.9177441" lon="11.211086"><ele>354.0</ele><time>2026-05-02T10:06:42.991Z</time></trkpt><trkpt lat="43.9177449" lon="11.2112271"><ele>354.0</ele><time>2026-05-02T10:06:44.991Z</time></trkpt><trkpt lat="43.9177598" lon="11.2113787"><ele>354.0</ele><time>2026-05-02T10:06:46.991Z</time></trkpt><trkpt lat="43.9177668" lon="11.211485"><ele>354.0</ele><time>2026-05-02T10:06:47.991Z</time></trkpt><trkpt lat="43.9177655" lon="11.2116096"><ele>354.0</ele><time>2026-05-02T10:06:48.991Z</time></trkpt><trkpt lat="43.9177737" lon="11.2117009"><ele>354.0</ele><time>2026-05-02T10:06:49.991Z</time></trkpt><trkpt lat="43.9177844" lon="11.2118795"><ele>354.0</ele><time>2026-05-02T10:06:51.991Z</time></trkpt><trkpt lat="43.9178053" lon="11.2120452"><ele>355.2</ele><time>2026-05-02T10:06:53.991Z</time></trkpt><trkpt lat="43.9178241" lon="11.212208"><ele>356.4</ele><time>2026-05-02T10:06:55.992Z</time></trkpt><trkpt lat="43.91784" lon="11.2123192"><ele>357.6</ele><time>2026-05-02T10:06:57.991Z</time></trkpt><trkpt lat="43.917837" lon="11.2124206"><ele>358.8</ele><time>2026-05-02T10:06:59.991Z</time></trkpt><trkpt lat="43.9178479" lon="11.2125964"><ele>360.0</ele><time>2026-05-02T10:09:01.99Z</time></trkpt><trkpt lat="43.9178467" lon="11.2127491"><ele>361.4</ele><time>2026-05-02T10:09:03.99Z</time></trkpt><trkpt lat="43.9178614" lon="11.212838"><ele>362.8</ele><time>2026-05-02T10:09:04.99Z</time></trkpt><trkpt lat="43.9178568" lon="11.2129426"><ele>364.20000000000005</ele><time>2026-05-02T10:09:05.99Z</time></trkpt><trkpt lat="43.9178426" lon="11.21308"><ele>365.6</ele><time>2026-05-02T10:09:07.991Z</time></trkpt><trkpt lat="43.9178639" lon="11.2132144"><ele>367.0</ele><time>2026-05-02T10:09:09.99Z</time></trkpt><trkpt lat="43.9179057" lon="11.2133619"><ele>368.3333333333333</ele><time>2026-05-02T10:09:11.99Z</time></trkpt><trkpt lat="43.917966" lon="11.2135076"><ele>369.66666666666663</ele><time>2026-05-02T10:09:13.99Z</time></trkpt><trkpt lat="43.9179902" lon="11.2135973"><ele>371.0</ele><time>2026-05-02T10:09:14.99Z</time></trkpt><trkpt lat="43.9180377" lon="11.2136975"><ele>372.3333333333333</ele><time>2026-05-02T10:09:15.99Z</time></trkpt><trkpt lat="43.9180712" lon="11.2137909"><ele>373.6666666666667</ele><time>2026-05-02T10:09:16.99Z</time></trkpt><trkpt lat="43.9181143" lon="11.2138921"><ele>375.0</ele><time>2026-05-02T10:09:17.99Z</time></trkpt><trkpt lat="43.9181648" lon="11.2139684"><ele>376.8333333333333</ele><time>2026-05-02T10:09:18.99Z</time></trkpt><trkpt lat="43.9182208" lon="11.2140396"><ele>378.66666666666663</ele><time>2026-05-02T10:09:19.99Z</time></trkpt><trkpt lat="43.9182964" lon="11.2141083"><ele>380.5</ele><time>2026-05-02T10:09:20.991Z</time></trkpt><trkpt lat="43.9183559" lon="11.2141667"><ele>382.3333333333333</ele><time>2026-05-02T10:09:21.99Z</time></trkpt><trkpt lat="43.9184168" lon="11.2142328"><ele>384.16666666666663</ele><time>2026-05-02T10:09:22.99Z</time></trkpt><trkpt lat="43.9184773" lon="11.2142859"><ele>386.0</ele><time>2026-05-02T10:09:23.99Z</time></trkpt><trkpt lat="43.9185778" lon="11.2144296"><ele>383.66666666666663</ele><time>2026-05-02T10:09:25.99Z</time></trkpt><trkpt lat="43.9186243" lon="11.2145016"><ele>381.3333333333333</ele><time>2026-05-02T10:09:26.991Z</time></trkpt><trkpt lat="43.9186673" lon="11.214572"><ele>379.0</ele><time>2026-05-02T10:09:27.991Z</time></trkpt><trkpt lat="43.9187171" lon="11.2146505"><ele>376.66666666666663</ele><time>2026-05-02T10:09:28.99Z</time></trkpt><trkpt lat="43.918768" lon="11.2147368"><ele>374.3333333333333</ele><time>2026-05-02T10:09:29.991Z</time></trkpt><trkpt lat="43.9188299" lon="11.2148903"><ele>372.0</ele><time>2026-05-02T10:09:31.991Z</time></trkpt><trkpt lat="43.9188643" lon="11.2149901"><ele>372.0</ele><time>2026-05-02T10:09:32.991Z</time></trkpt><trkpt lat="43.9188972" lon="11.2150826"><ele>372.0</ele><time>2026-05-02T10:09:33.99Z</time></trkpt><trkpt lat="43.9189396" lon="11.2152351"><ele>372.0</ele><time>2026-05-02T10:09:35.991Z</time></trkpt><trkpt lat="43.9189439" lon="11.215395"><ele>372.0</ele><time>2026-05-02T10:09:37.991Z</time></trkpt><trkpt lat="43.9189469" lon="11.2155781"><ele>372.0</ele><time>2026-05-02T10:09:39.99Z</time></trkpt><trkpt lat="43.9189535" lon="11.2156672"><ele>373.6666666666667</ele><time>2026-05-02T10:09:40.99Z</time></trkpt><trkpt lat="43.9189356" lon="11.2157869"><ele>375.3333333333333</ele><time>2026-05-02T10:09:41.99Z</time></trkpt><trkpt lat="43.9189142" lon="11.2158914"><ele>377.0</ele><time>2026-05-02T10:09:42.99Z</time></trkpt><trkpt lat="43.9189036" lon="11.2160124"><ele>378.66666666666663</ele><time>2026-05-02T10:09:43.991Z</time></trkpt><trkpt lat="43.9189118" lon="11.216104"><ele>380.3333333333333</ele><time>2026-05-02T10:09:44.99Z</time></trkpt><trkpt lat="43.9189117" lon="11.2162039"><ele>382.0</ele><time>2026-05-02T10:09:45.99Z</time></trkpt><trkpt lat="43.9189336" lon="11.2163226"><ele>382.0</ele><time>2026-05-02T10:09:46.99Z</time></trkpt><trkpt lat="43.9189458" lon="11.2164344"><ele>382.0</ele><time>2026-05-02T10:09:47.99Z</time></trkpt><trkpt lat="43.9189525" lon="11.2165495"><ele>382.0</ele><time>2026-05-02T10:09:48.991Z</time></trkpt><trkpt lat="43.9189623" lon="11.2167274"><ele>382.0</ele><time>2026-05-02T10:09:50.99Z</time></trkpt><trkpt lat="43.91897" lon="11.2168325"><ele>382.0</ele><time>2026-05-02T10:09:51.99Z</time></trkpt><trkpt lat="43.919006" lon="11.2169735"><ele>383.0</ele><time>2026-05-02T10:09:53.99Z</time></trkpt><trkpt lat="43.9190451" lon="11.2171013"><ele>384.0</ele><time>2026-05-02T10:09:55.991Z</time></trkpt><trkpt lat="43.9190757" lon="11.217229"><ele>385.0</ele><time>2026-05-02T10:09:57.99Z</time></trkpt><trkpt lat="43.9191403" lon="11.2173503"><ele>386.0</ele><time>2026-05-02T10:09:59.99Z</time></trkpt><trkpt lat="43.9192106" lon="11.217458"><ele>387.0</ele><time>2026-05-02T10:10:01.99Z</time></trkpt><trkpt lat="43.919264" lon="11.2175447"><ele>383.40000000000003</ele><time>2026-05-02T10:10:03.99Z</time></trkpt><trkpt lat="43.9193014" lon="11.2176412"><ele>379.8</ele><time>2026-05-02T10:10:05.99Z</time></trkpt><trkpt lat="43.9193527" lon="11.2177525"><ele>376.2</ele><time>2026-05-02T10:10:07.99Z</time></trkpt><trkpt lat="43.9194074" lon="11.2178439"><ele>372.6</ele><time>2026-05-02T10:10:09.99Z</time></trkpt><trkpt lat="43.9194763" lon="11.2179308"><ele>369.0</ele><time>2026-05-02T10:10:11.99Z</time></trkpt><trkpt lat="43.9195477" lon="11.2180226"><ele>369.0</ele><time>2026-05-02T10:10:13.99Z</time></trkpt><trkpt lat="43.9196164" lon="11.2181285"><ele>369.0</ele><time>2026-05-02T10:10:15.991Z</time></trkpt><trkpt lat="43.919662" lon="11.2182281"><ele>369.0</ele><time>2026-05-02T10:10:17.99Z</time></trkpt><trkpt lat="43.9196969" lon="11.2183222"><ele>369.0</ele><time>2026-05-02T10:10:19.99Z</time></trkpt><trkpt lat="43.9197506" lon="11.2183688"><ele>369.0</ele><time>2026-05-02T10:10:21.99Z</time></trkpt><trkpt lat="43.9198239" lon="11.2183923"><ele>369.0</ele><time>2026-05-02T10:10:24.99Z</time></trkpt><trkpt lat="43.9199043" lon="11.2184411"><ele>370.1666666666667</ele><time>2026-05-02T10:10:56.99Z</time></trkpt><trkpt lat="43.9199674" lon="11.2184859"><ele>371.3333333333333</ele><time>2026-05-02T10:10:58.991Z</time></trkpt><trkpt lat="43.920035" lon="11.2185152"><ele>372.5</ele><time>2026-05-02T10:11:24.99Z</time></trkpt><trkpt lat="43.9201034" lon="11.2185132"><ele>373.66666666666663</ele><time>2026-05-02T10:11:26.99Z</time></trkpt><trkpt lat="43.920185" lon="11.2185039"><ele>374.8333333333333</ele><time>2026-05-02T10:11:28.99Z</time></trkpt><trkpt lat="43.920307" lon="11.2184777"><ele>376.0</ele><time>2026-05-02T10:11:30.991Z</time></trkpt><trkpt lat="43.9204232" lon="11.2184319"><ele>376.0</ele><time>2026-05-02T10:11:32.99Z</time></trkpt><trkpt lat="43.9205181" lon="11.2184242"><ele>376.0</ele><time>2026-05-02T10:11:34.99Z</time></trkpt><trkpt lat="43.9206214" lon="11.2184327"><ele>376.0</ele><time>2026-05-02T10:11:36.99Z</time></trkpt><trkpt lat="43.9206933" lon="11.2184718"><ele>376.0</ele><time>2026-05-02T10:11:38.99Z</time></trkpt><trkpt lat="43.9207637" lon="11.2185509"><ele>376.0</ele><time>2026-05-02T10:11:40.99Z</time></trkpt><trkpt lat="43.9208109" lon="11.2186097"><ele>376.0</ele><time>2026-05-02T10:11:42.991Z</time></trkpt><trkpt lat="43.9208887" lon="11.2186964"><ele>376.5</ele><time>2026-05-02T10:11:44.99Z</time></trkpt><trkpt lat="43.9209549" lon="11.2187931"><ele>377.0</ele><time>2026-05-02T10:11:46.99Z</time></trkpt><trkpt lat="43.9210059" lon="11.2188482"><ele>377.5</ele><time>2026-05-02T10:11:48.991Z</time></trkpt><trkpt lat="43.9210839" lon="11.2188944"><ele>378.0</ele><time>2026-05-02T10:11:52.99Z</time></trkpt><trkpt lat="43.9211518" lon="11.2188959"><ele>378.5</ele><time>2026-05-02T10:11:53.992Z</time></trkpt><trkpt lat="43.9212325" lon="11.2188983"><ele>379.0</ele><time>2026-05-02T10:11:54.99Z</time></trkpt><trkpt lat="43.9213091" lon="11.2188839"><ele>379.0</ele><time>2026-05-02T10:11:55.99Z</time></trkpt><trkpt lat="43.9213827" lon="11.2189013"><ele>379.0</ele><time>2026-05-02T10:11:56.99Z</time></trkpt><trkpt lat="43.9214929" lon="11.2188728"><ele>379.0</ele><time>2026-05-02T10:11:58.991Z</time></trkpt><trkpt lat="43.9216041" lon="11.2188277"><ele>379.0</ele><time>2026-05-02T10:12:00.99Z</time></trkpt><trkpt lat="43.9217099" lon="11.2187716"><ele>379.0</ele><time>2026-05-02T10:12:02.99Z</time></trkpt><trkpt lat="43.9217901" lon="11.2186985"><ele>383.2</ele><time>2026-05-02T10:12:04.99Z</time></trkpt><trkpt lat="43.9218856" lon="11.2186145"><ele>387.4</ele><time>2026-05-02T10:12:06.99Z</time></trkpt><trkpt lat="43.9219718" lon="11.2185564"><ele>391.6</ele><time>2026-05-02T10:12:08.991Z</time></trkpt><trkpt lat="43.9220457" lon="11.218476"><ele>395.8</ele><time>2026-05-02T10:12:10.99Z</time></trkpt><trkpt lat="43.9221494" lon="11.2183961"><ele>400.0</ele><time>2026-05-02T10:12:12.99Z</time></trkpt><trkpt lat="43.9222199" lon="11.2183309"><ele>400.00000000000006</ele><time>2026-05-02T10:12:14.99Z</time></trkpt><trkpt lat="43.9222999" lon="11.2182633"><ele>400.0</ele><time>2026-05-02T10:12:16.99Z</time></trkpt><trkpt lat="43.9223556" lon="11.2181856"><ele>400.0</ele><time>2026-05-02T10:12:18.99Z</time></trkpt><trkpt lat="43.9224251" lon="11.2181029"><ele>400.0</ele><time>2026-05-02T10:12:20.99Z</time></trkpt><trkpt lat="43.9224931" lon="11.2180201"><ele>400.00000000000006</ele><time>2026-05-02T10:12:22.99Z</time></trkpt><trkpt lat="43.9225696" lon="11.2179874"><ele>400.0</ele><time>2026-05-02T10:12:24.99Z</time></trkpt><trkpt lat="43.9226535" lon="11.2180052"><ele>396.6666666666667</ele><time>2026-05-02T10:12:27.99Z</time></trkpt><trkpt lat="43.9227165" lon="11.2180559"><ele>393.33333333333337</ele><time>2026-05-02T10:12:29.991Z</time></trkpt><trkpt lat="43.9227657" lon="11.2181257"><ele>390.0</ele><time>2026-05-02T10:12:31.99Z</time></trkpt><trkpt lat="43.9228275" lon="11.2181934"><ele>386.6666666666667</ele><time>2026-05-02T10:12:33.99Z</time></trkpt><trkpt lat="43.9229052" lon="11.2182517"><ele>383.33333333333337</ele><time>2026-05-02T10:12:35.99Z</time></trkpt><trkpt lat="43.9229554" lon="11.2183098"><ele>380.0</ele><time>2026-05-02T10:12:37.99Z</time></trkpt><trkpt lat="43.9230245" lon="11.2183725"><ele>380.0</ele><time>2026-05-02T10:12:39.991Z</time></trkpt><trkpt lat="43.9230982" lon="11.2184381"><ele>380.0</ele><time>2026-05-02T10:12:41.99Z</time></trkpt><trkpt lat="43.9231601" lon="11.2185156"><ele>380.0</ele><time>2026-05-02T10:12:43.99Z</time></trkpt><trkpt lat="43.9232202" lon="11.2185948"><ele>380.0</ele><time>2026-05-02T10:12:45.99Z</time></trkpt><trkpt lat="43.9232782" lon="11.2186673"><ele>380.0</ele><time>2026-05-02T10:12:46.991Z</time></trkpt><trkpt lat="43.9233544" lon="11.2187731"><ele>380.0</ele><time>2026-05-02T10:12:48.99Z</time></trkpt><trkpt lat="43.923407" lon="11.2188603"><ele>379.5</ele><time>2026-05-02T10:12:50.99Z</time></trkpt><trkpt lat="43.9234767" lon="11.2189366"><ele>379.0</ele><time>2026-05-02T10:12:53.991Z</time></trkpt><trkpt lat="43.9235459" lon="11.2190171"><ele>378.5</ele><time>2026-05-02T10:12:56.99Z</time></trkpt><trkpt lat="43.9236172" lon="11.2190504"><ele>378.0</ele><time>2026-05-02T10:12:58.99Z</time></trkpt><trkpt lat="43.9237129" lon="11.2190664"><ele>377.5</ele><time>2026-05-02T10:13:00.99Z</time></trkpt><trkpt lat="43.9238046" lon="11.2190648"><ele>377.0</ele><time>2026-05-02T10:13:02.99Z</time></trkpt><trkpt lat="43.923878" lon="11.2190113"><ele>377.0</ele><time>2026-05-02T10:13:04.991Z</time></trkpt><trkpt lat="43.9239395" lon="11.2189614"><ele>377.0</ele><time>2026-05-02T10:13:07.99Z</time></trkpt><trkpt lat="43.924002" lon="11.2189112"><ele>377.0</ele><time>2026-05-02T10:13:10.991Z</time></trkpt><trkpt lat="43.9240803" lon="11.2188576"><ele>377.0</ele><time>2026-05-02T10:13:13.99Z</time></trkpt><trkpt lat="43.9241328" lon="11.2187957"><ele>377.0</ele><time>2026-05-02T10:13:15.99Z</time></trkpt><trkpt lat="43.9241939" lon="11.2187463"><ele>377.0</ele><time>2026-05-02T10:13:17.99Z</time></trkpt><trkpt lat="43.9242731" lon="11.2187006"><ele>379.0</ele><time>2026-05-02T10:13:19.99Z</time></trkpt><trkpt lat="43.9243629" lon="11.2186671"><ele>381.0</ele><time>2026-05-02T10:13:21.991Z</time></trkpt><trkpt lat="43.9244337" lon="11.2186389"><ele>383.0</ele><time>2026-05-02T10:13:23.99Z</time></trkpt><trkpt lat="43.9245111" lon="11.2185983"><ele>385.0</ele><time>2026-05-02T10:13:25.99Z</time></trkpt><trkpt lat="43.9245906" lon="11.2185976"><ele>386.99999999999994</ele><time>2026-05-02T10:13:27.99Z</time></trkpt><trkpt lat="43.9246716" lon="11.2186496"><ele>389.0</ele><time>2026-05-02T10:13:30.99Z</time></trkpt><trkpt lat="43.9247418" lon="11.2186816"><ele>389.0</ele><time>2026-05-02T10:13:36.99Z</time></trkpt><trkpt lat="43.9247855" lon="11.218763"><ele>389.0</ele><time>2026-05-02T10:13:43.99Z</time></trkpt><trkpt lat="43.9248232" lon="11.2188508"><ele>389.0</ele><time>2026-05-02T10:13:45.99Z</time></trkpt><trkpt lat="43.924875" lon="11.218913"><ele>389.0</ele><time>2026-05-02T10:13:48.99Z</time></trkpt><trkpt lat="43.9249206" lon="11.2189893"><ele>389.0</ele><time>2026-05-02T10:13:53.991Z</time></trkpt><trkpt lat="43.9249621" lon="11.2190601"><ele>389.0</ele><time>2026-05-02T10:14:03.99Z</time></trkpt><trkpt lat="43.9250082" lon="11.2191319"><ele>389.0</ele><time>2026-05-02T10:14:10.99Z</time></trkpt><trkpt lat="43.925046" lon="11.219203"><ele>388.42857142857144</ele><time>2026-05-02T10:14:16.99Z</time></trkpt><trkpt lat="43.9250977" lon="11.2192732"><ele>387.85714285714283</ele><time>2026-05-02T10:14:23.99Z</time></trkpt><trkpt lat="43.9251428" lon="11.2193358"><ele>387.2857142857143</ele><time>2026-05-02T10:14:29.99Z</time></trkpt><trkpt lat="43.9251858" lon="11.2194089"><ele>386.7142857142857</ele><time>2026-05-02T10:14:33.991Z</time></trkpt><trkpt lat="43.9252472" lon="11.2194518"><ele>386.1428571428571</ele><time>2026-05-02T10:14:45.99Z</time></trkpt><trkpt lat="43.9253138" lon="11.2195013"><ele>385.57142857142856</ele><time>2026-05-02T10:14:50.99Z</time></trkpt><trkpt lat="43.9253776" lon="11.2195212"><ele>385.0</ele><time>2026-05-02T10:14:54.99Z</time></trkpt><trkpt lat="43.9254488" lon="11.2195655"><ele>385.0</ele><time>2026-05-02T10:14:58.99Z</time></trkpt><trkpt lat="43.9255243" lon="11.2195886"><ele>385.0</ele><time>2026-05-02T10:15:03.99Z</time></trkpt><trkpt lat="43.9255923" lon="11.2196258"><ele>385.0</ele><time>2026-05-02T10:15:06.99Z</time></trkpt><trkpt lat="43.9256442" lon="11.2196777"><ele>385.0</ele><time>2026-05-02T10:15:09.99Z</time></trkpt><trkpt lat="43.9257152" lon="11.2197143"><ele>385.0</ele><time>2026-05-02T10:15:14.991Z</time></trkpt><trkpt lat="43.9257945" lon="11.2197437"><ele>385.0</ele><time>2026-05-02T10:15:17.99Z</time></trkpt><trkpt lat="43.9258629" lon="11.2197686"><ele>385.0</ele><time>2026-05-02T10:15:28.99Z</time></trkpt><trkpt lat="43.9259437" lon="11.2197924"><ele>383.7142857142857</ele><time>2026-05-02T10:15:45.99Z</time></trkpt><trkpt lat="43.9260128" lon="11.2198099"><ele>382.42857142857144</ele><time>2026-05-02T10:15:56.99Z</time></trkpt><trkpt lat="43.9260842" lon="11.2198274"><ele>381.1428571428571</ele><time>2026-05-02T10:16:03.99Z</time></trkpt><trkpt lat="43.9261582" lon="11.2198541"><ele>379.8571428571429</ele><time>2026-05-02T10:16:07.99Z</time></trkpt><trkpt lat="43.9262374" lon="11.2198876"><ele>378.57142857142856</ele><time>2026-05-02T10:16:10.99Z</time></trkpt><trkpt lat="43.926318" lon="11.2199083"><ele>377.2857142857143</ele><time>2026-05-02T10:16:13.99Z</time></trkpt><trkpt lat="43.9263806" lon="11.2199235"><ele>376.0</ele><time>2026-05-02T10:16:15.99Z</time></trkpt><trkpt lat="43.9264461" lon="11.2199367"><ele>381.66666666666663</ele><time>2026-05-02T10:16:17.99Z</time></trkpt><trkpt lat="43.9265277" lon="11.2199351"><ele>387.3333333333333</ele><time>2026-05-02T10:16:20.99Z</time></trkpt><trkpt lat="43.9266191" lon="11.2199168"><ele>393.0</ele><time>2026-05-02T10:16:23.991Z</time></trkpt><trkpt lat="43.926682" lon="11.2199112"><ele>398.66666666666663</ele><time>2026-05-02T10:16:25.99Z</time></trkpt><trkpt lat="43.9267614" lon="11.2199189"><ele>404.3333333333333</ele><time>2026-05-02T10:16:28.99Z</time></trkpt><trkpt lat="43.9268466" lon="11.2199454"><ele>410.0</ele><time>2026-05-02T10:16:31.99Z</time></trkpt><trkpt lat="43.9269178" lon="11.2199714"><ele>410.0</ele><time>2026-05-02T10:16:33.99Z</time></trkpt><trkpt lat="43.9269772" lon="11.2200026"><ele>410.0</ele><time>2026-05-02T10:16:41.991Z</time></trkpt><trkpt lat="43.9270435" lon="11.2200326"><ele>410.0</ele><time>2026-05-02T10:16:43.99Z</time></trkpt><trkpt lat="43.9271094" lon="11.2200667"><ele>410.0</ele><time>2026-05-02T10:16:45.99Z</time></trkpt><trkpt lat="43.9271818" lon="11.2201122"><ele>410.0</ele><time>2026-05-02T10:16:47.991Z</time></trkpt><trkpt lat="43.9272395" lon="11.2201583"><ele>410.0</ele><time>2026-05-02T10:16:49.991Z</time></trkpt><trkpt lat="43.9272992" lon="11.220195"><ele>410.0</ele><time>2026-05-02T10:16:51.99Z</time></trkpt><trkpt lat="43.9273596" lon="11.2202291"><ele>410.0</ele><time>2026-05-02T10:16:53.99Z</time></trkpt><trkpt lat="43.9274234" lon="11.2202587"><ele>410.0</ele><time>2026-05-02T10:16:55.99Z</time></trkpt><trkpt lat="43.9274902" lon="11.2202789"><ele>410.0</ele><time>2026-05-02T10:17:02.99Z</time></trkpt><trkpt lat="43.9275635" lon="11.2202956"><ele>410.0</ele><time>2026-05-02T10:17:06.99Z</time></trkpt><trkpt lat="43.9276274" lon="11.2203062"><ele>410.0</ele><time>2026-05-02T10:17:10.99Z</time></trkpt><trkpt lat="43.9277014" lon="11.220307"><ele>410.0</ele><time>2026-05-02T10:17:16.991Z</time></trkpt><trkpt lat="43.9277644" lon="11.2203163"><ele>410.0</ele><time>2026-05-02T10:17:19.99Z</time></trkpt><trkpt lat="43.9278341" lon="11.2203055"><ele>407.3333333333333</ele><time>2026-05-02T10:17:23.991Z</time></trkpt><trkpt lat="43.9279031" lon="11.2203137"><ele>404.66666666666663</ele><time>2026-05-02T10:17:26.99Z</time></trkpt><trkpt lat="43.9280192" lon="11.2203648"><ele>402.0</ele><time>2026-05-02T10:21:46.99Z</time></trkpt><trkpt lat="43.9280887" lon="11.2204032"><ele>399.33333333333337</ele><time>2026-05-02T10:21:56.99Z</time></trkpt><trkpt lat="43.9281713" lon="11.2204512"><ele>396.6666666666667</ele><time>2026-05-02T10:22:02.99Z</time></trkpt><trkpt lat="43.9282545" lon="11.2205105"><ele>394.0</ele><time>2026-05-02T10:22:05.99Z</time></trkpt><trkpt lat="43.9283085" lon="11.2205582"><ele>394.00000000000006</ele><time>2026-05-02T10:22:07.991Z</time></trkpt><trkpt lat="43.9283746" lon="11.2206488"><ele>394.0</ele><time>2026-05-02T10:22:11.99Z</time></trkpt><trkpt lat="43.9284384" lon="11.220709"><ele>394.0</ele><time>2026-05-02T10:22:13.99Z</time></trkpt><trkpt lat="43.9285112" lon="11.2207712"><ele>394.0</ele><time>2026-05-02T10:22:15.99Z</time></trkpt><trkpt lat="43.9285749" lon="11.2208332"><ele>394.00000000000006</ele><time>2026-05-02T10:22:17.99Z</time></trkpt><trkpt lat="43.9286301" lon="11.2208901"><ele>394.0</ele><time>2026-05-02T10:22:19.99Z</time></trkpt><trkpt lat="43.9286786" lon="11.22095"><ele>396.50000000000006</ele><time>2026-05-02T10:22:21.991Z</time></trkpt><trkpt lat="43.9287109" lon="11.2210645"><ele>399.0</ele><time>2026-05-02T10:22:24.99Z</time></trkpt><trkpt lat="43.9287229" lon="11.2211555"><ele>401.5</ele><time>2026-05-02T10:22:27.99Z</time></trkpt><trkpt lat="43.9288033" lon="11.221217"><ele>404.0</ele><time>2026-05-02T10:22:30.99Z</time></trkpt><trkpt lat="43.9288753" lon="11.2211984"><ele>406.50000000000006</ele><time>2026-05-02T10:22:32.99Z</time></trkpt><trkpt lat="43.9289636" lon="11.2211972"><ele>409.0</ele><time>2026-05-02T10:22:35.99Z</time></trkpt><trkpt lat="43.9290409" lon="11.2212141"><ele>409.00000000000006</ele><time>2026-05-02T10:22:38.99Z</time></trkpt><trkpt lat="43.9291044" lon="11.2212488"><ele>409.0</ele><time>2026-05-02T10:22:42.99Z</time></trkpt><trkpt lat="43.9291851" lon="11.2212771"><ele>409.0</ele><time>2026-05-02T10:22:45.99Z</time></trkpt><trkpt lat="43.9292632" lon="11.221244"><ele>409.0</ele><time>2026-05-02T10:22:48.99Z</time></trkpt><trkpt lat="43.929329" lon="11.2212721"><ele>409.00000000000006</ele><time>2026-05-02T10:22:50.99Z</time></trkpt><trkpt lat="43.9294364" lon="11.2212927"><ele>409.0</ele><time>2026-05-02T10:22:52.99Z</time></trkpt><trkpt lat="43.9295232" lon="11.2213048"><ele>409.6666666666667</ele><time>2026-05-02T10:22:54.99Z</time></trkpt><trkpt lat="43.9296089" lon="11.2213351"><ele>410.33333333333337</ele><time>2026-05-02T10:22:56.991Z</time></trkpt><trkpt lat="43.9296672" lon="11.2214031"><ele>411.0</ele><time>2026-05-02T10:22:58.99Z</time></trkpt><trkpt lat="43.9297217" lon="11.2214752"><ele>411.66666666666663</ele><time>2026-05-02T10:23:00.991Z</time></trkpt><trkpt lat="43.9297974" lon="11.2215851"><ele>412.3333333333333</ele><time>2026-05-02T10:23:02.99Z</time></trkpt><trkpt lat="43.9298619" lon="11.2216783"><ele>413.0</ele><time>2026-05-02T10:23:04.99Z</time></trkpt><trkpt lat="43.929938" lon="11.2217795"><ele>412.16666666666663</ele><time>2026-05-02T10:23:06.99Z</time></trkpt><trkpt lat="43.9299989" lon="11.2218668"><ele>411.3333333333333</ele><time>2026-05-02T10:23:08.99Z</time></trkpt><trkpt lat="43.9300499" lon="11.2219718"><ele>410.5</ele><time>2026-05-02T10:23:10.99Z</time></trkpt><trkpt lat="43.9300939" lon="11.2221081"><ele>409.66666666666663</ele><time>2026-05-02T10:23:12.991Z</time></trkpt><trkpt lat="43.9301184" lon="11.2221918"><ele>408.8333333333333</ele><time>2026-05-02T10:23:14.99Z</time></trkpt><trkpt lat="43.9301477" lon="11.2222935"><ele>408.0</ele><time>2026-05-02T10:23:16.99Z</time></trkpt><trkpt lat="43.9301704" lon="11.2223752"><ele>410.5</ele><time>2026-05-02T10:23:18.991Z</time></trkpt><trkpt lat="43.930183" lon="11.2224762"><ele>413.0</ele><time>2026-05-02T10:23:20.99Z</time></trkpt><trkpt lat="43.9301822" lon="11.2225971"><ele>415.5</ele><time>2026-05-02T10:23:29.99Z</time></trkpt><trkpt lat="43.9302193" lon="11.222692"><ele>418.0</ele><time>2026-05-02T10:23:31.991Z</time></trkpt><trkpt lat="43.9302641" lon="11.2228056"><ele>420.5</ele><time>2026-05-02T10:23:33.99Z</time></trkpt><trkpt lat="43.9302964" lon="11.222889"><ele>423.0</ele><time>2026-05-02T10:23:35.99Z</time></trkpt><trkpt lat="43.9303433" lon="11.2229994"><ele>423.0</ele><time>2026-05-02T10:23:37.99Z</time></trkpt><trkpt lat="43.9303699" lon="11.2230882"><ele>423.0</ele><time>2026-05-02T10:23:39.99Z</time></trkpt><trkpt lat="43.9303921" lon="11.2231731"><ele>423.0</ele><time>2026-05-02T10:23:41.991Z</time></trkpt><trkpt lat="43.9304316" lon="11.2232591"><ele>423.0</ele><time>2026-05-02T10:23:43.99Z</time></trkpt><trkpt lat="43.9304755" lon="11.2233366"><ele>423.0</ele><time>2026-05-02T10:23:49.991Z</time></trkpt><trkpt lat="43.9305145" lon="11.2234073"><ele>423.0</ele><time>2026-05-02T10:23:53.99Z</time></trkpt><trkpt lat="43.9305639" lon="11.2234914"><ele>423.0</ele><time>2026-05-02T10:23:58.99Z</time></trkpt><trkpt lat="43.9306042" lon="11.2235844"><ele>423.85714285714283</ele><time>2026-05-02T10:24:01.991Z</time></trkpt><trkpt lat="43.9306322" lon="11.2236631"><ele>424.7142857142857</ele><time>2026-05-02T10:24:03.991Z</time></trkpt><trkpt lat="43.9306711" lon="11.2237408"><ele>425.57142857142856</ele><time>2026-05-02T10:24:05.99Z</time></trkpt><trkpt lat="43.9306973" lon="11.2238594"><ele>426.42857142857144</ele><time>2026-05-02T10:24:08.991Z</time></trkpt><trkpt lat="43.9306745" lon="11.2239449"><ele>427.28571428571433</ele><time>2026-05-02T10:24:25.99Z</time></trkpt><trkpt lat="43.9306201" lon="11.2239892"><ele>428.14285714285717</ele><time>2026-05-02T10:24:27.992Z</time></trkpt><trkpt lat="43.9305424" lon="11.2240225"><ele>429.0</ele><time>2026-05-02T10:24:31.991Z</time></trkpt><trkpt lat="43.9304637" lon="11.2240878"><ele>430.1666666666667</ele><time>2026-05-02T10:24:34.99Z</time></trkpt><trkpt lat="43.9304406" lon="11.2241833"><ele>431.33333333333337</ele><time>2026-05-02T10:24:37.99Z</time></trkpt><trkpt lat="43.9304367" lon="11.2242757"><ele>432.5</ele><time>2026-05-02T10:24:39.99Z</time></trkpt><trkpt lat="43.930442" lon="11.2244236"><ele>433.6666666666667</ele><time>2026-05-02T10:24:41.99Z</time></trkpt><trkpt lat="43.9304" lon="11.2245204"><ele>434.83333333333337</ele><time>2026-05-02T10:24:51.99Z</time></trkpt><trkpt lat="43.9303769" lon="11.2246073"><ele>436.0</ele><time>2026-05-02T10:24:54.99Z</time></trkpt><trkpt lat="43.930388" lon="11.224707"><ele>436.00000000000006</ele><time>2026-05-02T10:24:57.99Z</time></trkpt><trkpt lat="43.9303994" lon="11.224801"><ele>436.0</ele><time>2026-05-02T10:24:59.99Z</time></trkpt><trkpt lat="43.9304096" lon="11.2248889"><ele>436.0</ele><time>2026-05-02T10:25:01.99Z</time></trkpt><trkpt lat="43.9304489" lon="11.2250068"><ele>436.0</ele><time>2026-05-02T10:25:04.99Z</time></trkpt><trkpt lat="43.9305173" lon="11.2251118"><ele>436.00000000000006</ele><time>2026-05-02T10:25:06.99Z</time></trkpt><trkpt lat="43.9305705" lon="11.2252007"><ele>436.0</ele><time>2026-05-02T10:25:08.99Z</time></trkpt><trkpt lat="43.9306117" lon="11.2253044"><ele>436.6666666666667</ele><time>2026-05-02T10:25:11.991Z</time></trkpt><trkpt lat="43.9306308" lon="11.2254148"><ele>437.33333333333337</ele><time>2026-05-02T10:25:14.99Z</time></trkpt><trkpt lat="43.9306595" lon="11.2254937"><ele>438.0</ele><time>2026-05-02T10:25:17.99Z</time></trkpt><trkpt lat="43.9307068" lon="11.2255914"><ele>438.66666666666663</ele><time>2026-05-02T10:25:20.991Z</time></trkpt><trkpt lat="43.9307662" lon="11.2256763"><ele>439.3333333333333</ele><time>2026-05-02T10:25:23.991Z</time></trkpt><trkpt lat="43.9307999" lon="11.2257555"><ele>440.0</ele><time>2026-05-02T10:25:25.99Z</time></trkpt><trkpt lat="43.9308307" lon="11.2258549"><ele>438.99999999999994</ele><time>2026-05-02T10:25:27.99Z</time></trkpt><trkpt lat="43.9308479" lon="11.2259521"><ele>438.0</ele><time>2026-05-02T10:25:29.991Z</time></trkpt><trkpt lat="43.9308771" lon="11.2260617"><ele>437.0</ele><time>2026-05-02T10:25:32.991Z</time></trkpt><trkpt lat="43.9309194" lon="11.2261747"><ele>436.0</ele><time>2026-05-02T10:25:35.99Z</time></trkpt><trkpt lat="43.9309517" lon="11.2262569"><ele>434.99999999999994</ele><time>2026-05-02T10:25:48.99Z</time></trkpt><trkpt lat="43.9310104" lon="11.2262077"><ele>434.0</ele><time>2026-05-02T10:28:00.99Z</time></trkpt><trkpt lat="43.9310012" lon="11.226097"><ele>433.99999999999994</ele><time>2026-05-02T10:28:03.991Z</time></trkpt><trkpt lat="43.9310789" lon="11.2261081"><ele>434.0</ele><time>2026-05-02T10:28:08.991Z</time></trkpt><trkpt lat="43.9311255" lon="11.2261993"><ele>434.0</ele><time>2026-05-02T10:28:10.99Z</time></trkpt><trkpt lat="43.9311782" lon="11.2263048"><ele>434.0</ele><time>2026-05-02T10:28:12.991Z</time></trkpt><trkpt lat="43.9312553" lon="11.2264329"><ele>433.99999999999994</ele><time>2026-05-02T10:28:14.991Z</time></trkpt><trkpt lat="43.9313054" lon="11.2265086"><ele>434.0</ele><time>2026-05-02T10:28:15.99Z</time></trkpt><trkpt lat="43.9313501" lon="11.2265944"><ele>435.14285714285717</ele><time>2026-05-02T10:28:16.991Z</time></trkpt><trkpt lat="43.9313922" lon="11.2266756"><ele>436.2857142857143</ele><time>2026-05-02T10:28:17.99Z</time></trkpt><trkpt lat="43.9314386" lon="11.2267557"><ele>437.42857142857144</ele><time>2026-05-02T10:28:18.99Z</time></trkpt><trkpt lat="43.9314836" lon="11.2268375"><ele>438.57142857142856</ele><time>2026-05-02T10:28:19.991Z</time></trkpt><trkpt lat="43.9315254" lon="11.2269203"><ele>439.7142857142857</ele><time>2026-05-02T10:28:20.99Z</time></trkpt><trkpt lat="43.9315697" lon="11.2270054"><ele>440.8571428571429</ele><time>2026-05-02T10:28:21.991Z</time></trkpt><trkpt lat="43.9316158" lon="11.227091"><ele>442.0</ele><time>2026-05-02T10:28:22.99Z</time></trkpt><trkpt lat="43.9316742" lon="11.2271657"><ele>443.0</ele><time>2026-05-02T10:28:23.99Z</time></trkpt><trkpt lat="43.9317348" lon="11.2272296"><ele>444.0</ele><time>2026-05-02T10:28:24.99Z</time></trkpt><trkpt lat="43.9318016" lon="11.2272842"><ele>445.0</ele><time>2026-05-02T10:28:25.99Z</time></trkpt><trkpt lat="43.9318736" lon="11.2273325"><ele>446.0</ele><time>2026-05-02T10:28:26.99Z</time></trkpt><trkpt lat="43.9319437" lon="11.2273616"><ele>446.99999999999994</ele><time>2026-05-02T10:28:27.99Z</time></trkpt><trkpt lat="43.9320132" lon="11.2273758"><ele>448.0</ele><time>2026-05-02T10:28:28.99Z</time></trkpt><trkpt lat="43.9320813" lon="11.2273822"><ele>449.0</ele><time>2026-05-02T10:28:29.991Z</time></trkpt><trkpt lat="43.9321482" lon="11.2273821"><ele>449.0</ele><time>2026-05-02T10:28:30.99Z</time></trkpt><trkpt lat="43.9322584" lon="11.2273554"><ele>449.0</ele><time>2026-05-02T10:28:32.99Z</time></trkpt><trkpt lat="43.9323159" lon="11.2273178"><ele>449.0</ele><time>2026-05-02T10:28:33.991Z</time></trkpt><trkpt lat="43.9324176" lon="11.2272305"><ele>449.0</ele><time>2026-05-02T10:28:35.99Z</time></trkpt><trkpt lat="43.9325199" lon="11.227148"><ele>449.0</ele><time>2026-05-02T10:28:37.99Z</time></trkpt><trkpt lat="43.9325796" lon="11.2271168"><ele>445.8333333333333</ele><time>2026-05-02T10:28:38.99Z</time></trkpt><trkpt lat="43.9326435" lon="11.2271073"><ele>442.66666666666663</ele><time>2026-05-02T10:28:39.99Z</time></trkpt><trkpt lat="43.9327173" lon="11.2271126"><ele>439.5</ele><time>2026-05-02T10:28:40.991Z</time></trkpt><trkpt lat="43.9328004" lon="11.2271352"><ele>436.33333333333337</ele><time>2026-05-02T10:28:41.99Z</time></trkpt><trkpt lat="43.93289" lon="11.2271673"><ele>433.1666666666667</ele><time>2026-05-02T10:28:42.991Z</time></trkpt><trkpt lat="43.9329867" lon="11.2272023"><ele>430.0</ele><time>2026-05-02T10:28:43.99Z</time></trkpt><trkpt lat="43.933073" lon="11.2272356"><ele>430.0</ele><time>2026-05-02T10:28:44.992Z</time></trkpt><trkpt lat="43.9331573" lon="11.2272685"><ele>430.0</ele><time>2026-05-02T10:28:45.99Z</time></trkpt><trkpt lat="43.9332498" lon="11.2273075"><ele>430.0</ele><time>2026-05-02T10:28:46.991Z</time></trkpt><trkpt lat="43.9333385" lon="11.2273494"><ele>430.0</ele><time>2026-05-02T10:28:47.99Z</time></trkpt><trkpt lat="43.9334274" lon="11.227396"><ele>430.0</ele><time>2026-05-02T10:28:48.99Z</time></trkpt><trkpt lat="43.9335067" lon="11.2274568"><ele>431.83333333333337</ele><time>2026-05-02T10:28:49.99Z</time></trkpt><trkpt lat="43.9335698" lon="11.2275231"><ele>433.6666666666667</ele><time>2026-05-02T10:28:50.99Z</time></trkpt><trkpt lat="43.9336216" lon="11.2276066"><ele>435.5</ele><time>2026-05-02T10:28:51.991Z</time></trkpt><trkpt lat="43.9336604" lon="11.2277007"><ele>437.33333333333337</ele><time>2026-05-02T10:28:52.99Z</time></trkpt><trkpt lat="43.9337025" lon="11.2277955"><ele>439.1666666666667</ele><time>2026-05-02T10:28:53.99Z</time></trkpt><trkpt lat="43.9337576" lon="11.2278712"><ele>441.0</ele><time>2026-05-02T10:28:54.991Z</time></trkpt><trkpt lat="43.9338324" lon="11.2279307"><ele>441.0</ele><time>2026-05-02T10:28:55.99Z</time></trkpt><trkpt lat="43.9339166" lon="11.2279718"><ele>441.0</ele><time>2026-05-02T10:28:56.99Z</time></trkpt><trkpt lat="43.9340037" lon="11.2280027"><ele>441.0</ele><time>2026-05-02T10:28:57.99Z</time></trkpt><trkpt lat="43.9340911" lon="11.2280224"><ele>441.0</ele><time>2026-05-02T10:28:58.991Z</time></trkpt><trkpt lat="43.9341732" lon="11.2280371"><ele>441.0</ele><time>2026-05-02T10:28:59.99Z</time></trkpt><trkpt lat="43.9342563" lon="11.2280535"><ele>441.0</ele><time>2026-05-02T10:29:00.99Z</time></trkpt><trkpt lat="43.9343388" lon="11.2280734"><ele>439.6666666666667</ele><time>2026-05-02T10:29:01.991Z</time></trkpt><trkpt lat="43.9344131" lon="11.228092"><ele>438.33333333333337</ele><time>2026-05-02T10:29:02.99Z</time></trkpt><trkpt lat="43.9344907" lon="11.2281008"><ele>437.0</ele><time>2026-05-02T10:29:03.99Z</time></trkpt><trkpt lat="43.934563" lon="11.2281116"><ele>435.6666666666667</ele><time>2026-05-02T10:29:04.99Z</time></trkpt><trkpt lat="43.9346403" lon="11.2281224"><ele>434.33333333333337</ele><time>2026-05-02T10:29:05.99Z</time></trkpt><trkpt lat="43.9347208" lon="11.2281459"><ele>433.0</ele><time>2026-05-02T10:29:06.991Z</time></trkpt><trkpt lat="43.9348087" lon="11.2281912"><ele>432.83333333333337</ele><time>2026-05-02T10:29:07.99Z</time></trkpt><trkpt lat="43.9349086" lon="11.2282345"><ele>432.6666666666667</ele><time>2026-05-02T10:29:08.99Z</time></trkpt><trkpt lat="43.934994" lon="11.2282904"><ele>432.5</ele><time>2026-05-02T10:29:09.99Z</time></trkpt><trkpt lat="43.9350728" lon="11.2283327"><ele>432.33333333333337</ele><time>2026-05-02T10:29:10.99Z</time></trkpt><trkpt lat="43.9351301" lon="11.2283822"><ele>432.1666666666667</ele><time>2026-05-02T10:29:11.99Z</time></trkpt><trkpt lat="43.9352075" lon="11.2284429"><ele>432.0</ele><time>2026-05-02T10:29:12.991Z</time></trkpt><trkpt lat="43.9352825" lon="11.2285131"><ele>432.0</ele><time>2026-05-02T10:29:13.99Z</time></trkpt><trkpt lat="43.9353605" lon="11.2285762"><ele>432.0</ele><time>2026-05-02T10:29:14.99Z</time></trkpt><trkpt lat="43.9354269" lon="11.228635"><ele>432.0</ele><time>2026-05-02T10:29:15.99Z</time></trkpt><trkpt lat="43.9354901" lon="11.2287048"><ele>432.0</ele><time>2026-05-02T10:29:16.991Z</time></trkpt><trkpt lat="43.9355429" lon="11.2287783"><ele>432.0</ele><time>2026-05-02T10:29:17.99Z</time></trkpt><trkpt lat="43.9355964" lon="11.2288505"><ele>432.0</ele><time>2026-05-02T10:29:18.991Z</time></trkpt><trkpt lat="43.9356756" lon="11.2289626"><ele>435.20000000000005</ele><time>2026-05-02T10:29:20.99Z</time></trkpt><trkpt lat="43.9357387" lon="11.2291071"><ele>438.40000000000003</ele><time>2026-05-02T10:29:22.991Z</time></trkpt><trkpt lat="43.9357579" lon="11.229254"><ele>441.59999999999997</ele><time>2026-05-02T10:29:24.99Z</time></trkpt><trkpt lat="43.9357579" lon="11.2293428"><ele>444.79999999999995</ele><time>2026-05-02T10:29:25.99Z</time></trkpt><trkpt lat="43.9357548" lon="11.2294536"><ele>448.0</ele><time>2026-05-02T10:29:26.99Z</time></trkpt><trkpt lat="43.9357502" lon="11.2295635"><ele>448.0</ele><time>2026-05-02T10:29:27.99Z</time></trkpt><trkpt lat="43.9357515" lon="11.2296722"><ele>447.99999999999994</ele><time>2026-05-02T10:29:28.991Z</time></trkpt><trkpt lat="43.9357714" lon="11.2297682"><ele>447.99999999999994</ele><time>2026-05-02T10:29:29.991Z</time></trkpt><trkpt lat="43.9358206" lon="11.2298893"><ele>448.0</ele><time>2026-05-02T10:29:31.99Z</time></trkpt><trkpt lat="43.9359223" lon="11.2299494"><ele>448.0</ele><time>2026-05-02T10:29:33.99Z</time></trkpt><trkpt lat="43.9360272" lon="11.2299278"><ele>447.4</ele><time>2026-05-02T10:29:34.99Z</time></trkpt><trkpt lat="43.9361253" lon="11.2299133"><ele>446.79999999999995</ele><time>2026-05-02T10:29:35.99Z</time></trkpt><trkpt lat="43.9362198" lon="11.2299066"><ele>446.2</ele><time>2026-05-02T10:29:36.99Z</time></trkpt><trkpt lat="43.9363145" lon="11.2299201"><ele>445.6</ele><time>2026-05-02T10:29:37.99Z</time></trkpt><trkpt lat="43.9364039" lon="11.2299168"><ele>445.0</ele><time>2026-05-02T10:29:38.99Z</time></trkpt><trkpt lat="43.9364841" lon="11.2299304"><ele>445.00000000000006</ele><time>2026-05-02T10:29:39.99Z</time></trkpt><trkpt lat="43.9365639" lon="11.2299604"><ele>445.0</ele><time>2026-05-02T10:29:40.99Z</time></trkpt><trkpt lat="43.9366253" lon="11.2299895"><ele>445.0</ele><time>2026-05-02T10:29:41.99Z</time></trkpt><trkpt lat="43.9366838" lon="11.2300345"><ele>445.0</ele><time>2026-05-02T10:29:42.99Z</time></trkpt><trkpt lat="43.9367369" lon="11.2300878"><ele>445.00000000000006</ele><time>2026-05-02T10:29:43.99Z</time></trkpt><trkpt lat="43.9368186" lon="11.2301988"><ele>445.0</ele><time>2026-05-02T10:29:45.991Z</time></trkpt><trkpt lat="43.9368658" lon="11.230283"><ele>444.00000000000006</ele><time>2026-05-02T10:29:46.991Z</time></trkpt><trkpt lat="43.9369202" lon="11.2303851"><ele>443.0</ele><time>2026-05-02T10:29:47.99Z</time></trkpt><trkpt lat="43.9369653" lon="11.230494"><ele>442.0</ele><time>2026-05-02T10:29:48.99Z</time></trkpt><trkpt lat="43.937031" lon="11.2305788"><ele>441.0</ele><time>2026-05-02T10:29:49.99Z</time></trkpt><trkpt lat="43.9371005" lon="11.2306601"><ele>440.00000000000006</ele><time>2026-05-02T10:29:50.99Z</time></trkpt><trkpt lat="43.9371484" lon="11.2307546"><ele>439.0</ele><time>2026-05-02T10:29:51.99Z</time></trkpt><trkpt lat="43.9371961" lon="11.2308334"><ele>439.0</ele><time>2026-05-02T10:29:52.99Z</time></trkpt><trkpt lat="43.9372337" lon="11.2309289"><ele>439.0</ele><time>2026-05-02T10:29:53.991Z</time></trkpt><trkpt lat="43.9372696" lon="11.2310237"><ele>439.0</ele><time>2026-05-02T10:29:54.99Z</time></trkpt><trkpt lat="43.9372784" lon="11.231153"><ele>439.0</ele><time>2026-05-02T10:29:55.99Z</time></trkpt><trkpt lat="43.9373203" lon="11.2312991"><ele>439.0</ele><time>2026-05-02T10:29:56.991Z</time></trkpt><trkpt lat="43.9373638" lon="11.2314345"><ele>441.50000000000006</ele><time>2026-05-02T10:29:57.99Z</time></trkpt><trkpt lat="43.9374077" lon="11.2315469"><ele>444.0</ele><time>2026-05-02T10:29:58.99Z</time></trkpt><trkpt lat="43.9374297" lon="11.2316588"><ele>446.5</ele><time>2026-05-02T10:29:59.99Z</time></trkpt><trkpt lat="43.9374464" lon="11.2317932"><ele>449.0</ele><time>2026-05-02T10:30:00.99Z</time></trkpt><trkpt lat="43.9374711" lon="11.2318999"><ele>451.50000000000006</ele><time>2026-05-02T10:30:01.99Z</time></trkpt><trkpt lat="43.9375018" lon="11.2319919"><ele>454.0</ele><time>2026-05-02T10:30:02.991Z</time></trkpt><trkpt lat="43.9375378" lon="11.2320798"><ele>454.00000000000006</ele><time>2026-05-02T10:30:03.99Z</time></trkpt><trkpt lat="43.937598" lon="11.2321481"><ele>454.0</ele><time>2026-05-02T10:30:04.99Z</time></trkpt><trkpt lat="43.9376509" lon="11.2322045"><ele>454.0</ele><time>2026-05-02T10:30:05.99Z</time></trkpt><trkpt lat="43.9377089" lon="11.232243"><ele>454.0</ele><time>2026-05-02T10:30:06.99Z</time></trkpt><trkpt lat="43.9378335" lon="11.2322945"><ele>454.00000000000006</ele><time>2026-05-02T10:30:08.991Z</time></trkpt><trkpt lat="43.9379229" lon="11.2322959"><ele>454.0</ele><time>2026-05-02T10:30:09.99Z</time></trkpt><trkpt lat="43.9380528" lon="11.2323112"><ele>454.0</ele><time>2026-05-02T10:30:11.99Z</time></trkpt><trkpt lat="43.9381127" lon="11.2323389"><ele>454.0</ele><time>2026-05-02T10:30:12.99Z</time></trkpt><trkpt lat="43.9381742" lon="11.2323633"><ele>454.0</ele><time>2026-05-02T10:30:13.99Z</time></trkpt><trkpt lat="43.9382845" lon="11.2324664"><ele>454.0</ele><time>2026-05-02T10:30:15.99Z</time></trkpt><trkpt lat="43.9383665" lon="11.2325364"><ele>454.0</ele><time>2026-05-02T10:30:16.99Z</time></trkpt><trkpt lat="43.9384543" lon="11.2326116"><ele>450.5</ele><time>2026-05-02T10:30:17.991Z</time></trkpt><trkpt lat="43.9385552" lon="11.2326895"><ele>447.0</ele><time>2026-05-02T10:30:18.99Z</time></trkpt><trkpt lat="43.9386614" lon="11.2327763"><ele>443.5</ele><time>2026-05-02T10:30:19.99Z</time></trkpt><trkpt lat="43.9387545" lon="11.2328636"><ele>440.0</ele><time>2026-05-02T10:30:20.99Z</time></trkpt><trkpt lat="43.9388646" lon="11.2329596"><ele>440.0</ele><time>2026-05-02T10:30:21.99Z</time></trkpt><trkpt lat="43.9389644" lon="11.2330374"><ele>440.0</ele><time>2026-05-02T10:30:22.99Z</time></trkpt><trkpt lat="43.939048" lon="11.2331079"><ele>440.0</ele><time>2026-05-02T10:30:23.99Z</time></trkpt><trkpt lat="43.9391343" lon="11.2331682"><ele>440.0</ele><time>2026-05-02T10:30:24.992Z</time></trkpt><trkpt lat="43.9392096" lon="11.233234"><ele>440.0</ele><time>2026-05-02T10:30:25.99Z</time></trkpt><trkpt lat="43.9392893" lon="11.233316"><ele>441.2</ele><time>2026-05-02T10:30:26.991Z</time></trkpt><trkpt lat="43.9393791" lon="11.2333938"><ele>442.4</ele><time>2026-05-02T10:30:27.99Z</time></trkpt><trkpt lat="43.9394682" lon="11.2334597"><ele>443.6</ele><time>2026-05-02T10:30:28.99Z</time></trkpt><trkpt lat="43.9395553" lon="11.233519"><ele>444.8</ele><time>2026-05-02T10:30:29.99Z</time></trkpt><trkpt lat="43.9396266" lon="11.2335826"><ele>446.0</ele><time>2026-05-02T10:30:30.99Z</time></trkpt><trkpt lat="43.9396968" lon="11.2336603"><ele>445.99999999999994</ele><time>2026-05-02T10:30:31.99Z</time></trkpt><trkpt lat="43.9397658" lon="11.2337435"><ele>446.0</ele><time>2026-05-02T10:30:32.991Z</time></trkpt><trkpt lat="43.9398312" lon="11.2338171"><ele>446.0</ele><time>2026-05-02T10:30:33.99Z</time></trkpt><trkpt lat="43.9398943" lon="11.2338574"><ele>446.0</ele><time>2026-05-02T10:30:34.99Z</time></trkpt><trkpt lat="43.9399719" lon="11.2338724"><ele>445.99999999999994</ele><time>2026-05-02T10:30:35.99Z</time></trkpt><trkpt lat="43.9400523" lon="11.2338727"><ele>446.0</ele><time>2026-05-02T10:30:36.99Z</time></trkpt><trkpt lat="43.9401441" lon="11.2338601"><ele>446.3333333333333</ele><time>2026-05-02T10:30:37.99Z</time></trkpt><trkpt lat="43.9402058" lon="11.2338413"><ele>446.66666666666663</ele><time>2026-05-02T10:30:38.99Z</time></trkpt><trkpt lat="43.9402843" lon="11.233844"><ele>447.0</ele><time>2026-05-02T10:30:39.99Z</time></trkpt><trkpt lat="43.9403605" lon="11.2338782"><ele>447.33333333333337</ele><time>2026-05-02T10:30:40.99Z</time></trkpt><trkpt lat="43.9404485" lon="11.2339322"><ele>447.6666666666667</ele><time>2026-05-02T10:30:41.992Z</time></trkpt><trkpt lat="43.9405314" lon="11.2339709"><ele>448.0</ele><time>2026-05-02T10:30:42.99Z</time></trkpt><trkpt lat="43.9406021" lon="11.234"><ele>450.79999999999995</ele><time>2026-05-02T10:30:43.99Z</time></trkpt><trkpt lat="43.9406798" lon="11.2340106"><ele>453.59999999999997</ele><time>2026-05-02T10:30:44.99Z</time></trkpt><trkpt lat="43.9407744" lon="11.2340239"><ele>456.40000000000003</ele><time>2026-05-02T10:30:45.99Z</time></trkpt><trkpt lat="43.9408829" lon="11.234047"><ele>459.20000000000005</ele><time>2026-05-02T10:30:46.991Z</time></trkpt><trkpt lat="43.9409967" lon="11.234062"><ele>462.0</ele><time>2026-05-02T10:30:47.99Z</time></trkpt><trkpt lat="43.9411164" lon="11.2340778"><ele>462.6666666666667</ele><time>2026-05-02T10:30:48.99Z</time></trkpt><trkpt lat="43.9412246" lon="11.2340957"><ele>463.33333333333337</ele><time>2026-05-02T10:30:49.99Z</time></trkpt><trkpt lat="43.9413069" lon="11.2341119"><ele>464.0</ele><time>2026-05-02T10:30:50.99Z</time></trkpt><trkpt lat="43.9413736" lon="11.2341292"><ele>464.6666666666667</ele><time>2026-05-02T10:30:51.99Z</time></trkpt><trkpt lat="43.9414435" lon="11.234168"><ele>465.33333333333337</ele><time>2026-05-02T10:30:52.99Z</time></trkpt><trkpt lat="43.9415239" lon="11.2342212"><ele>466.0</ele><time>2026-05-02T10:30:53.99Z</time></trkpt><trkpt lat="43.9416168" lon="11.2342828"><ele>469.5</ele><time>2026-05-02T10:30:54.99Z</time></trkpt><trkpt lat="43.941717" lon="11.2343439"><ele>473.0</ele><time>2026-05-02T10:30:55.99Z</time></trkpt><trkpt lat="43.941823" lon="11.2343984"><ele>476.5</ele><time>2026-05-02T10:30:56.991Z</time></trkpt><trkpt lat="43.9419314" lon="11.2344532"><ele>480.0</ele><time>2026-05-02T10:30:57.99Z</time></trkpt><trkpt lat="43.9420372" lon="11.2345069"><ele>480.0</ele><time>2026-05-02T10:30:58.99Z</time></trkpt><trkpt lat="43.9421402" lon="11.2345643"><ele>480.0</ele><time>2026-05-02T10:30:59.99Z</time></trkpt><trkpt lat="43.9422393" lon="11.2346158"><ele>480.0</ele><time>2026-05-02T10:31:00.99Z</time></trkpt><trkpt lat="43.9423302" lon="11.2346528"><ele>480.0</ele><time>2026-05-02T10:31:01.99Z</time></trkpt><trkpt lat="43.9424039" lon="11.2346676"><ele>480.0</ele><time>2026-05-02T10:31:02.99Z</time></trkpt><trkpt lat="43.9424707" lon="11.234659"><ele>480.0</ele><time>2026-05-02T10:31:03.99Z</time></trkpt><trkpt lat="43.9425424" lon="11.2346449"><ele>480.0</ele><time>2026-05-02T10:31:04.99Z</time></trkpt><trkpt lat="43.9426106" lon="11.2346182"><ele>480.0</ele><time>2026-05-02T10:31:05.99Z</time></trkpt><trkpt lat="43.9426839" lon="11.234585"><ele>480.0</ele><time>2026-05-02T10:31:06.99Z</time></trkpt><trkpt lat="43.9427524" lon="11.2345382"><ele>480.0</ele><time>2026-05-02T10:31:07.991Z</time></trkpt><trkpt lat="43.9428283" lon="11.2344714"><ele>480.0</ele><time>2026-05-02T10:31:09.99Z</time></trkpt><trkpt lat="43.9428974" lon="11.2345087"><ele>480.8333333333333</ele><time>2026-05-02T10:31:14.99Z</time></trkpt><trkpt lat="43.9428847" lon="11.2345966"><ele>481.66666666666663</ele><time>2026-05-02T10:31:33.99Z</time></trkpt><trkpt lat="43.9429439" lon="11.2346847"><ele>482.5</ele><time>2026-05-02T10:31:40.99Z</time></trkpt><trkpt lat="43.9429577" lon="11.2347789"><ele>483.3333333333333</ele><time>2026-05-02T10:31:42.991Z</time></trkpt><trkpt lat="43.9429345" lon="11.2348806"><ele>484.16666666666663</ele><time>2026-05-02T10:31:44.99Z</time></trkpt><trkpt lat="43.9429054" lon="11.2350304"><ele>485.0</ele><time>2026-05-02T10:31:46.99Z</time></trkpt><trkpt lat="43.9429064" lon="11.2351849"><ele>485.28571428571433</ele><time>2026-05-02T10:31:48.99Z</time></trkpt><trkpt lat="43.9429133" lon="11.2352731"><ele>485.57142857142856</ele><time>2026-05-02T10:31:49.99Z</time></trkpt><trkpt lat="43.9429212" lon="11.2353641"><ele>485.8571428571429</ele><time>2026-05-02T10:31:50.99Z</time></trkpt><trkpt lat="43.9429272" lon="11.2354616"><ele>486.14285714285717</ele><time>2026-05-02T10:31:51.99Z</time></trkpt><trkpt lat="43.9429371" lon="11.2355644"><ele>486.42857142857144</ele><time>2026-05-02T10:31:52.99Z</time></trkpt><trkpt lat="43.942952" lon="11.2356734"><ele>486.7142857142857</ele><time>2026-05-02T10:31:53.99Z</time></trkpt><trkpt lat="43.9429716" lon="11.2357694"><ele>487.0</ele><time>2026-05-02T10:31:54.99Z</time></trkpt><trkpt lat="43.9430166" lon="11.2359079"><ele>488.40000000000003</ele><time>2026-05-02T10:31:56.99Z</time></trkpt><trkpt lat="43.9430552" lon="11.2359853"><ele>489.80000000000007</ele><time>2026-05-02T10:32:03.991Z</time></trkpt><trkpt lat="43.9431251" lon="11.2361115"><ele>491.2</ele><time>2026-05-02T10:32:05.99Z</time></trkpt><trkpt lat="43.9431847" lon="11.2362464"><ele>492.6</ele><time>2026-05-02T10:32:07.991Z</time></trkpt><trkpt lat="43.9432311" lon="11.2363703"><ele>494.0</ele><time>2026-05-02T10:32:09.991Z</time></trkpt><trkpt lat="43.943286" lon="11.2365161"><ele>493.6</ele><time>2026-05-02T10:32:11.99Z</time></trkpt><trkpt lat="43.9433196" lon="11.236592"><ele>493.2</ele><time>2026-05-02T10:32:12.99Z</time></trkpt><trkpt lat="43.9433824" lon="11.2367373"><ele>492.80000000000007</ele><time>2026-05-02T10:32:14.99Z</time></trkpt><trkpt lat="43.9434414" lon="11.2368836"><ele>492.40000000000003</ele><time>2026-05-02T10:32:16.99Z</time></trkpt><trkpt lat="43.9434835" lon="11.2370251"><ele>492.0</ele><time>2026-05-02T10:32:18.99Z</time></trkpt><trkpt lat="43.9435228" lon="11.2371643"><ele>494.0</ele><time>2026-05-02T10:32:20.991Z</time></trkpt><trkpt lat="43.9435668" lon="11.2373101"><ele>496.0</ele><time>2026-05-02T10:32:22.99Z</time></trkpt><trkpt lat="43.9436092" lon="11.2374097"><ele>498.0</ele><time>2026-05-02T10:32:24.99Z</time></trkpt><trkpt lat="43.943674" lon="11.2375115"><ele>500.0</ele><time>2026-05-02T10:32:26.99Z</time></trkpt><trkpt lat="43.9437249" lon="11.2375772"><ele>502.0</ele><time>2026-05-02T10:32:28.99Z</time></trkpt><trkpt lat="43.9437775" lon="11.2376324"><ele>504.0</ele><time>2026-05-02T10:32:38.99Z</time></trkpt><trkpt lat="43.9438307" lon="11.2376974"><ele>504.0</ele><time>2026-05-02T10:32:58.991Z</time></trkpt><trkpt lat="43.9439041" lon="11.2377549"><ele>504.0</ele><time>2026-05-02T10:33:01.991Z</time></trkpt><trkpt lat="43.9439949" lon="11.2377911"><ele>504.0</ele><time>2026-05-02T10:33:04.99Z</time></trkpt><trkpt lat="43.9440681" lon="11.2378082"><ele>504.0</ele><time>2026-05-02T10:33:06.991Z</time></trkpt><trkpt lat="43.9441427" lon="11.2378431"><ele>504.0</ele><time>2026-05-02T10:33:08.991Z</time></trkpt><trkpt lat="43.9442147" lon="11.2379276"><ele>504.0</ele><time>2026-05-02T10:33:11.99Z</time></trkpt><trkpt lat="43.9442052" lon="11.2380386"><ele>504.0</ele><time>2026-05-02T10:33:15.99Z</time></trkpt><trkpt lat="43.9441231" lon="11.2380341"><ele>504.0</ele><time>2026-05-02T10:33:21.99Z</time></trkpt><trkpt lat="43.9440607" lon="11.2380554"><ele>504.0</ele><time>2026-05-02T10:33:23.99Z</time></trkpt><trkpt lat="43.9439949" lon="11.2381067"><ele>504.0</ele><time>2026-05-02T10:33:25.99Z</time></trkpt><trkpt lat="43.9439386" lon="11.2381768"><ele>504.0</ele><time>2026-05-02T10:33:27.991Z</time></trkpt><trkpt lat="43.9439005" lon="11.2382719"><ele>504.0</ele><time>2026-05-02T10:33:29.99Z</time></trkpt><trkpt lat="43.9439319" lon="11.2383723"><ele>504.1666666666667</ele><time>2026-05-02T10:33:32.99Z</time></trkpt><trkpt lat="43.9440024" lon="11.2384537"><ele>504.33333333333337</ele><time>2026-05-02T10:33:34.99Z</time></trkpt><trkpt lat="43.9440568" lon="11.2385355"><ele>504.5</ele><time>2026-05-02T10:33:36.991Z</time></trkpt><trkpt lat="43.9441206" lon="11.2386107"><ele>504.6666666666667</ele><time>2026-05-02T10:33:38.99Z</time></trkpt><trkpt lat="43.9441672" lon="11.238697"><ele>504.83333333333337</ele><time>2026-05-02T10:33:40.99Z</time></trkpt><trkpt lat="43.9442066" lon="11.2387771"><ele>505.0</ele><time>2026-05-02T10:33:43.99Z</time></trkpt><trkpt lat="43.9442895" lon="11.2387365"><ele>505.00000000000006</ele><time>2026-05-02T10:33:48.991Z</time></trkpt><trkpt lat="43.9443705" lon="11.2386201"><ele>505.0</ele><time>2026-05-02T10:33:50.991Z</time></trkpt><trkpt lat="43.9444329" lon="11.2385361"><ele>505.0</ele><time>2026-05-02T10:33:52.99Z</time></trkpt><trkpt lat="43.9445002" lon="11.2385237"><ele>505.0</ele><time>2026-05-02T10:33:55.99Z</time></trkpt><trkpt lat="43.9445808" lon="11.2386032"><ele>505.00000000000006</ele><time>2026-05-02T10:33:57.99Z</time></trkpt><trkpt lat="43.9446348" lon="11.2386745"><ele>505.0</ele><time>2026-05-02T10:33:58.99Z</time></trkpt><trkpt lat="43.9446946" lon="11.2387377"><ele>505.00000000000006</ele><time>2026-05-02T10:33:59.991Z</time></trkpt><trkpt lat="43.9447641" lon="11.2388013"><ele>505.0</ele><time>2026-05-02T10:34:00.99Z</time></trkpt><trkpt lat="43.9448247" lon="11.2388714"><ele>505.0</ele><time>2026-05-02T10:34:01.99Z</time></trkpt><trkpt lat="43.9448915" lon="11.2389435"><ele>505.0</ele><time>2026-05-02T10:34:02.991Z</time></trkpt><trkpt lat="43.9449558" lon="11.2390078"><ele>505.00000000000006</ele><time>2026-05-02T10:34:03.99Z</time></trkpt><trkpt lat="43.9450168" lon="11.2390657"><ele>505.0</ele><time>2026-05-02T10:34:04.99Z</time></trkpt><trkpt lat="43.9451094" lon="11.239161"><ele>506.0</ele><time>2026-05-02T10:34:06.99Z</time></trkpt><trkpt lat="43.9452132" lon="11.2392725"><ele>507.0</ele><time>2026-05-02T10:34:08.991Z</time></trkpt><trkpt lat="43.9452707" lon="11.2393364"><ele>508.0</ele><time>2026-05-02T10:34:09.99Z</time></trkpt><trkpt lat="43.9453275" lon="11.2394077"><ele>509.0</ele><time>2026-05-02T10:34:10.99Z</time></trkpt><trkpt lat="43.9453948" lon="11.2394981"><ele>510.0</ele><time>2026-05-02T10:34:11.99Z</time></trkpt><trkpt lat="43.9454683" lon="11.2395942"><ele>510.0</ele><time>2026-05-02T10:34:12.99Z</time></trkpt><trkpt lat="43.9455428" lon="11.2396788"><ele>510.0</ele><time>2026-05-02T10:34:13.99Z</time></trkpt><trkpt lat="43.9456123" lon="11.2397582"><ele>510.0</ele><time>2026-05-02T10:34:14.99Z</time></trkpt><trkpt lat="43.9456712" lon="11.2398312"><ele>510.0</ele><time>2026-05-02T10:34:15.991Z</time></trkpt><trkpt lat="43.9457294" lon="11.2399087"><ele>510.0</ele><time>2026-05-02T10:34:16.99Z</time></trkpt><trkpt lat="43.945791" lon="11.2399755"><ele>510.0</ele><time>2026-05-02T10:34:17.99Z</time></trkpt><trkpt lat="43.9458426" lon="11.2400295"><ele>509.8</ele><time>2026-05-02T10:34:18.99Z</time></trkpt><trkpt lat="43.9459338" lon="11.2401195"><ele>509.6</ele><time>2026-05-02T10:34:20.991Z</time></trkpt><trkpt lat="43.9460056" lon="11.2401977"><ele>509.4</ele><time>2026-05-02T10:34:22.99Z</time></trkpt><trkpt lat="43.946034" lon="11.240297"><ele>509.2</ele><time>2026-05-02T10:34:24.99Z</time></trkpt><trkpt lat="43.9460198" lon="11.2404369"><ele>509.0</ele><time>2026-05-02T10:34:26.99Z</time></trkpt><trkpt lat="43.9459879" lon="11.240601"><ele>507.8333333333333</ele><time>2026-05-02T10:34:28.99Z</time></trkpt><trkpt lat="43.9459928" lon="11.2407129"><ele>506.66666666666663</ele><time>2026-05-02T10:34:29.99Z</time></trkpt><trkpt lat="43.9460066" lon="11.2408366"><ele>505.5</ele><time>2026-05-02T10:34:30.99Z</time></trkpt><trkpt lat="43.946012" lon="11.2409288"><ele>504.33333333333337</ele><time>2026-05-02T10:34:31.991Z</time></trkpt><trkpt lat="43.9460252" lon="11.2410249"><ele>503.1666666666667</ele><time>2026-05-02T10:34:32.991Z</time></trkpt><trkpt lat="43.9460347" lon="11.2411296"><ele>502.0</ele><time>2026-05-02T10:34:33.991Z</time></trkpt><trkpt lat="43.946026" lon="11.2412247"><ele>502.00000000000006</ele><time>2026-05-02T10:34:34.991Z</time></trkpt><trkpt lat="43.9460306" lon="11.2413175"><ele>502.0</ele><time>2026-05-02T10:34:35.99Z</time></trkpt><trkpt lat="43.9460679" lon="11.2414833"><ele>502.0</ele><time>2026-05-02T10:34:37.99Z</time></trkpt><trkpt lat="43.9461034" lon="11.2415663"><ele>502.0</ele><time>2026-05-02T10:34:38.99Z</time></trkpt><trkpt lat="43.9461468" lon="11.2416468"><ele>502.00000000000006</ele><time>2026-05-02T10:34:39.99Z</time></trkpt><trkpt lat="43.946191" lon="11.2417346"><ele>502.0</ele><time>2026-05-02T10:34:40.99Z</time></trkpt><trkpt lat="43.9462308" lon="11.2418235"><ele>502.33333333333337</ele><time>2026-05-02T10:34:41.99Z</time></trkpt><trkpt lat="43.9462771" lon="11.2419066"><ele>502.6666666666667</ele><time>2026-05-02T10:34:42.99Z</time></trkpt><trkpt lat="43.9463168" lon="11.2419775"><ele>503.0</ele><time>2026-05-02T10:34:43.991Z</time></trkpt><trkpt lat="43.9463546" lon="11.2420479"><ele>503.33333333333337</ele><time>2026-05-02T10:34:44.99Z</time></trkpt><trkpt lat="43.9463939" lon="11.24212"><ele>503.6666666666667</ele><time>2026-05-02T10:34:45.99Z</time></trkpt><trkpt lat="43.9464409" lon="11.2421959"><ele>504.0</ele><time>2026-05-02T10:34:46.99Z</time></trkpt><trkpt lat="43.9465347" lon="11.2423045"><ele>504.0</ele><time>2026-05-02T10:34:48.99Z</time></trkpt><trkpt lat="43.9465961" lon="11.2423474"><ele>504.0</ele><time>2026-05-02T10:34:49.99Z</time></trkpt><trkpt lat="43.9466743" lon="11.2423776"><ele>504.0</ele><time>2026-05-02T10:34:50.991Z</time></trkpt><trkpt lat="43.9467479" lon="11.2424044"><ele>504.0</ele><time>2026-05-02T10:34:51.99Z</time></trkpt><trkpt lat="43.9468189" lon="11.2424282"><ele>504.0</ele><time>2026-05-02T10:34:52.99Z</time></trkpt><trkpt lat="43.9468981" lon="11.2424595"><ele>504.0</ele><time>2026-05-02T10:34:53.99Z</time></trkpt><trkpt lat="43.9469715" lon="11.2425067"><ele>504.6666666666667</ele><time>2026-05-02T10:34:54.99Z</time></trkpt><trkpt lat="43.9470546" lon="11.2425449"><ele>505.33333333333337</ele><time>2026-05-02T10:34:55.99Z</time></trkpt><trkpt lat="43.9471339" lon="11.2425929"><ele>506.0</ele><time>2026-05-02T10:34:56.991Z</time></trkpt><trkpt lat="43.9471993" lon="11.2426379"><ele>506.6666666666667</ele><time>2026-05-02T10:34:57.991Z</time></trkpt><trkpt lat="43.9472676" lon="11.2426739"><ele>507.33333333333337</ele><time>2026-05-02T10:34:58.991Z</time></trkpt><trkpt lat="43.9473378" lon="11.2427143"><ele>508.0</ele><time>2026-05-02T10:34:59.99Z</time></trkpt><trkpt lat="43.9473981" lon="11.2427597"><ele>508.0</ele><time>2026-05-02T10:35:00.99Z</time></trkpt><trkpt lat="43.9474971" lon="11.2428176"><ele>508.0</ele><time>2026-05-02T10:35:10.99Z</time></trkpt><trkpt lat="43.947578" lon="11.2428987"><ele>508.0</ele><time>2026-05-02T10:35:12.991Z</time></trkpt><trkpt lat="43.9476831" lon="11.2429791"><ele>508.0</ele><time>2026-05-02T10:35:14.991Z</time></trkpt><trkpt lat="43.9477888" lon="11.2430773"><ele>510.1666666666667</ele><time>2026-05-02T10:35:16.991Z</time></trkpt><trkpt lat="43.9478428" lon="11.2431494"><ele>512.3333333333334</ele><time>2026-05-02T10:35:17.99Z</time></trkpt><trkpt lat="43.9479043" lon="11.2432089"><ele>514.5</ele><time>2026-05-02T10:35:18.99Z</time></trkpt><trkpt lat="43.9479875" lon="11.2432862"><ele>516.6666666666666</ele><time>2026-05-02T10:35:19.99Z</time></trkpt><trkpt lat="43.9480643" lon="11.2433478"><ele>518.8333333333333</ele><time>2026-05-02T10:35:20.991Z</time></trkpt><trkpt lat="43.9481373" lon="11.2434049"><ele>521.0</ele><time>2026-05-02T10:35:21.99Z</time></trkpt><trkpt lat="43.9481965" lon="11.2434581"><ele>521.0</ele><time>2026-05-02T10:35:22.992Z</time></trkpt><trkpt lat="43.9482572" lon="11.2434987"><ele>521.0</ele><time>2026-05-02T10:35:23.991Z</time></trkpt><trkpt lat="43.948367" lon="11.2435248"><ele>521.0</ele><time>2026-05-02T10:35:25.99Z</time></trkpt><trkpt lat="43.9482654" lon="11.2434825"><ele>521.0</ele><time>2026-05-02T10:36:04.99Z</time></trkpt><trkpt lat="43.9481962" lon="11.2434501"><ele>521.0</ele><time>2026-05-02T10:36:05.99Z</time></trkpt><trkpt lat="43.9481243" lon="11.2434048"><ele>521.0</ele><time>2026-05-02T10:36:06.99Z</time></trkpt><trkpt lat="43.9480442" lon="11.2433411"><ele>521.0</ele><time>2026-05-02T10:36:07.99Z</time></trkpt><trkpt lat="43.9479571" lon="11.2432815"><ele>521.0</ele><time>2026-05-02T10:36:08.99Z</time></trkpt><trkpt lat="43.9478993" lon="11.2432256"><ele>521.0</ele><time>2026-05-02T10:36:09.99Z</time></trkpt><trkpt lat="43.9478446" lon="11.2431728"><ele>521.0</ele><time>2026-05-02T10:36:10.99Z</time></trkpt><trkpt lat="43.9477685" lon="11.243062"><ele>521.0</ele><time>2026-05-02T10:36:12.99Z</time></trkpt><trkpt lat="43.9477041" lon="11.2429865"><ele>521.0</ele><time>2026-05-02T10:36:14.99Z</time></trkpt><trkpt lat="43.9476054" lon="11.2429214"><ele>520.3333333333333</ele><time>2026-05-02T10:36:16.991Z</time></trkpt><trkpt lat="43.9475408" lon="11.2428627"><ele>519.6666666666666</ele><time>2026-05-02T10:36:18.99Z</time></trkpt><trkpt lat="43.9475207" lon="11.2427518"><ele>519.0</ele><time>2026-05-02T10:36:22.99Z</time></trkpt><trkpt lat="43.9475599" lon="11.2426635"><ele>518.3333333333334</ele><time>2026-05-02T10:36:26.99Z</time></trkpt><trkpt lat="43.9476499" lon="11.2426198"><ele>517.6666666666667</ele><time>2026-05-02T10:36:28.991Z</time></trkpt><trkpt lat="43.9477396" lon="11.2426003"><ele>517.0</ele><time>2026-05-02T10:36:30.99Z</time></trkpt><trkpt lat="43.9478039" lon="11.2426007"><ele>517.0</ele><time>2026-05-02T10:36:31.99Z</time></trkpt><trkpt lat="43.9478652" lon="11.2425677"><ele>517.0</ele><time>2026-05-02T10:36:32.991Z</time></trkpt><trkpt lat="43.9479326" lon="11.2425419"><ele>517.0</ele><time>2026-05-02T10:36:33.99Z</time></trkpt><trkpt lat="43.9480048" lon="11.2425055"><ele>517.0</ele><time>2026-05-02T10:36:34.99Z</time></trkpt><trkpt lat="43.9480739" lon="11.2424642"><ele>517.0</ele><time>2026-05-02T10:36:35.99Z</time></trkpt><trkpt lat="43.9481761" lon="11.2423979"><ele>517.0</ele><time>2026-05-02T10:36:37.99Z</time></trkpt><trkpt lat="43.9482673" lon="11.24235"><ele>515.2</ele><time>2026-05-02T10:36:39.991Z</time></trkpt><trkpt lat="43.9483455" lon="11.2422874"><ele>513.4000000000001</ele><time>2026-05-02T10:36:41.99Z</time></trkpt><trkpt lat="43.948437" lon="11.2422583"><ele>511.59999999999997</ele><time>2026-05-02T10:36:44.99Z</time></trkpt><trkpt lat="43.9484977" lon="11.2422041"><ele>509.79999999999995</ele><time>2026-05-02T10:36:46.99Z</time></trkpt><trkpt lat="43.9485671" lon="11.2421333"><ele>508.0</ele><time>2026-05-02T10:36:48.99Z</time></trkpt><trkpt lat="43.9486653" lon="11.2420519"><ele>508.00000000000006</ele><time>2026-05-02T10:36:50.99Z</time></trkpt><trkpt lat="43.9487183" lon="11.2420024"><ele>508.0</ele><time>2026-05-02T10:36:51.99Z</time></trkpt><trkpt lat="43.9487998" lon="11.2419381"><ele>508.0</ele><time>2026-05-02T10:36:53.99Z</time></trkpt><trkpt lat="43.9488788" lon="11.2418986"><ele>508.0</ele><time>2026-05-02T10:36:55.991Z</time></trkpt><trkpt lat="43.9489826" lon="11.2418868"><ele>508.00000000000006</ele><time>2026-05-02T10:36:57.99Z</time></trkpt><trkpt lat="43.9490734" lon="11.2419064"><ele>508.0</ele><time>2026-05-02T10:36:59.991Z</time></trkpt><trkpt lat="43.9491722" lon="11.2419412"><ele>506.79999999999995</ele><time>2026-05-02T10:37:01.991Z</time></trkpt><trkpt lat="43.9492776" lon="11.241942"><ele>505.59999999999997</ele><time>2026-05-02T10:37:03.99Z</time></trkpt><trkpt lat="43.9493753" lon="11.2419381"><ele>504.40000000000003</ele><time>2026-05-02T10:37:05.99Z</time></trkpt><trkpt lat="43.9494548" lon="11.2418795"><ele>503.20000000000005</ele><time>2026-05-02T10:37:07.99Z</time></trkpt><trkpt lat="43.9495026" lon="11.2418108"><ele>502.0</ele><time>2026-05-02T10:37:09.99Z</time></trkpt><trkpt lat="43.9495655" lon="11.2416975"><ele>502.00000000000006</ele><time>2026-05-02T10:37:11.99Z</time></trkpt><trkpt lat="43.9496013" lon="11.2415835"><ele>502.0</ele><time>2026-05-02T10:37:13.99Z</time></trkpt><trkpt lat="43.9496307" lon="11.2414787"><ele>502.0</ele><time>2026-05-02T10:37:15.99Z</time></trkpt><trkpt lat="43.9496646" lon="11.2413509"><ele>502.0</ele><time>2026-05-02T10:37:17.99Z</time></trkpt><trkpt lat="43.9496829" lon="11.2412286"><ele>502.00000000000006</ele><time>2026-05-02T10:37:19.99Z</time></trkpt><trkpt lat="43.9497292" lon="11.2411426"><ele>502.0</ele><time>2026-05-02T10:37:21.99Z</time></trkpt><trkpt lat="43.9497678" lon="11.2410498"><ele>501.20000000000005</ele><time>2026-05-02T10:37:23.991Z</time></trkpt><trkpt lat="43.9498078" lon="11.2409347"><ele>500.40000000000003</ele><time>2026-05-02T10:37:26.991Z</time></trkpt><trkpt lat="43.9498547" lon="11.2408231"><ele>499.59999999999997</ele><time>2026-05-02T10:37:28.99Z</time></trkpt><trkpt lat="43.949893" lon="11.2407052"><ele>498.79999999999995</ele><time>2026-05-02T10:37:30.991Z</time></trkpt><trkpt lat="43.949923" lon="11.240612"><ele>498.0</ele><time>2026-05-02T10:37:32.99Z</time></trkpt><trkpt lat="43.9499788" lon="11.2404712"><ele>496.5</ele><time>2026-05-02T10:37:34.99Z</time></trkpt><trkpt lat="43.9500319" lon="11.2403659"><ele>495.0</ele><time>2026-05-02T10:37:36.991Z</time></trkpt><trkpt lat="43.9500758" lon="11.240289"><ele>493.5</ele><time>2026-05-02T10:37:38.99Z</time></trkpt><trkpt lat="43.9501674" lon="11.2402212"><ele>492.0</ele><time>2026-05-02T10:37:40.99Z</time></trkpt><trkpt lat="43.9502141" lon="11.2401071"><ele>490.5</ele><time>2026-05-02T10:37:42.99Z</time></trkpt><trkpt lat="43.9502404" lon="11.240025"><ele>489.0</ele><time>2026-05-02T10:37:43.99Z</time></trkpt><trkpt lat="43.9502645" lon="11.2399442"><ele>489.0</ele><time>2026-05-02T10:37:44.99Z</time></trkpt><trkpt lat="43.9503036" lon="11.2398234"><ele>489.0</ele><time>2026-05-02T10:37:46.991Z</time></trkpt><trkpt lat="43.9503325" lon="11.2397447"><ele>489.0</ele><time>2026-05-02T10:37:47.991Z</time></trkpt><trkpt lat="43.950397" lon="11.2396396"><ele>489.0</ele><time>2026-05-02T10:37:49.99Z</time></trkpt><trkpt lat="43.9504717" lon="11.2395244"><ele>489.0</ele><time>2026-05-02T10:37:52.99Z</time></trkpt><trkpt lat="43.9505618" lon="11.239389"><ele>489.1666666666667</ele><time>2026-05-02T10:37:54.991Z</time></trkpt><trkpt lat="43.9506059" lon="11.2393145"><ele>489.33333333333337</ele><time>2026-05-02T10:37:55.99Z</time></trkpt><trkpt lat="43.9506643" lon="11.2392399"><ele>489.5</ele><time>2026-05-02T10:37:56.99Z</time></trkpt><trkpt lat="43.950745" lon="11.2391485"><ele>489.6666666666667</ele><time>2026-05-02T10:37:58.99Z</time></trkpt><trkpt lat="43.9508043" lon="11.2390921"><ele>489.83333333333337</ele><time>2026-05-02T10:38:00.991Z</time></trkpt><trkpt lat="43.9508473" lon="11.2390115"><ele>490.0</ele><time>2026-05-02T10:38:02.99Z</time></trkpt><trkpt lat="43.9508819" lon="11.2389351"><ele>484.1666666666667</ele><time>2026-05-02T10:38:04.99Z</time></trkpt><trkpt lat="43.9509247" lon="11.2388496"><ele>478.33333333333337</ele><time>2026-05-02T10:38:06.99Z</time></trkpt><trkpt lat="43.9509633" lon="11.2387123"><ele>472.5</ele><time>2026-05-02T10:38:08.99Z</time></trkpt><trkpt lat="43.950982" lon="11.2385771"><ele>466.66666666666663</ele><time>2026-05-02T10:38:10.99Z</time></trkpt><trkpt lat="43.9509934" lon="11.2384508"><ele>460.8333333333333</ele><time>2026-05-02T10:38:12.99Z</time></trkpt><trkpt lat="43.9509899" lon="11.2383588"><ele>455.0</ele><time>2026-05-02T10:38:19.99Z</time></trkpt><trkpt lat="43.9509439" lon="11.2382961"><ele>455.0</ele><time>2026-05-02T10:38:34.99Z</time></trkpt><trkpt lat="43.9508884" lon="11.2382344"><ele>455.0</ele><time>2026-05-02T10:38:40.99Z</time></trkpt><trkpt lat="43.9508445" lon="11.2381532"><ele>455.0</ele><time>2026-05-02T10:38:44.99Z</time></trkpt><trkpt lat="43.950816" lon="11.2380733"><ele>455.0</ele><time>2026-05-02T10:38:50.991Z</time></trkpt><trkpt lat="43.9508401" lon="11.2379815"><ele>455.0</ele><time>2026-05-02T10:38:55.991Z</time></trkpt><trkpt lat="43.9508252" lon="11.2378816"><ele>455.0</ele><time>2026-05-02T10:39:00.99Z</time></trkpt><trkpt lat="43.9507728" lon="11.237824"><ele>455.0</ele><time>2026-05-02T10:39:03.99Z</time></trkpt><trkpt lat="43.9507036" lon="11.2377713"><ele>455.8333333333333</ele><time>2026-05-02T10:39:06.99Z</time></trkpt><trkpt lat="43.9506326" lon="11.2377444"><ele>456.66666666666663</ele><time>2026-05-02T10:39:08.99Z</time></trkpt><trkpt lat="43.9505474" lon="11.2377118"><ele>457.5</ele><time>2026-05-02T10:39:11.99Z</time></trkpt><trkpt lat="43.9504702" lon="11.2376622"><ele>458.33333333333337</ele><time>2026-05-02T10:39:14.99Z</time></trkpt><trkpt lat="43.9504016" lon="11.2375882"><ele>459.1666666666667</ele><time>2026-05-02T10:39:17.99Z</time></trkpt><trkpt lat="43.9503333" lon="11.2375128"><ele>460.0</ele><time>2026-05-02T10:39:20.99Z</time></trkpt><trkpt lat="43.950301" lon="11.2374129"><ele>459.99999999999994</ele><time>2026-05-02T10:39:23.99Z</time></trkpt><trkpt lat="43.950353" lon="11.2373356"><ele>460.0</ele><time>2026-05-02T10:39:33.99Z</time></trkpt><trkpt lat="43.9503707" lon="11.2372506"><ele>459.99999999999994</ele><time>2026-05-02T10:39:37.991Z</time></trkpt><trkpt lat="43.9504041" lon="11.2373322"><ele>459.99999999999994</ele><time>2026-05-02T10:41:18.99Z</time></trkpt><trkpt lat="43.9504471" lon="11.2373987"><ele>460.0</ele><time>2026-05-02T10:41:22.99Z</time></trkpt><trkpt lat="43.9505096" lon="11.2374532"><ele>459.99999999999994</ele><time>2026-05-02T10:41:25.99Z</time></trkpt><trkpt lat="43.9505854" lon="11.2375124"><ele>459.99999999999994</ele><time>2026-05-02T10:41:28.99Z</time></trkpt><trkpt lat="43.9506637" lon="11.2375831"><ele>460.00000000000006</ele><time>2026-05-02T10:41:31.991Z</time></trkpt><trkpt lat="43.9507393" lon="11.2376581"><ele>460.0</ele><time>2026-05-02T10:41:34.99Z</time></trkpt><trkpt lat="43.9507657" lon="11.2377425"><ele>460.0</ele><time>2026-05-02T10:41:36.99Z</time></trkpt><trkpt lat="43.9507767" lon="11.2378404"><ele>460.0</ele><time>2026-05-02T10:41:38.991Z</time></trkpt><trkpt lat="43.9508249" lon="11.2379293"><ele>460.00000000000006</ele><time>2026-05-02T10:41:40.99Z</time></trkpt><trkpt lat="43.9508772" lon="11.238042"><ele>460.0</ele><time>2026-05-02T10:41:42.991Z</time></trkpt><trkpt lat="43.9509326" lon="11.2381565"><ele>459.1666666666667</ele><time>2026-05-02T10:41:44.989Z</time></trkpt><trkpt lat="43.9509719" lon="11.2382622"><ele>458.33333333333337</ele><time>2026-05-02T10:41:47.989Z</time></trkpt><trkpt lat="43.9509806" lon="11.2383584"><ele>457.5</ele><time>2026-05-02T10:41:55.988Z</time></trkpt><trkpt lat="43.9509885" lon="11.2384554"><ele>456.66666666666663</ele><time>2026-05-02T10:41:57.989Z</time></trkpt><trkpt lat="43.9509961" lon="11.2385539"><ele>455.8333333333333</ele><time>2026-05-02T10:41:59.989Z</time></trkpt><trkpt lat="43.9509806" lon="11.238656"><ele>455.0</ele><time>2026-05-02T10:42:01.988Z</time></trkpt><trkpt lat="43.9509427" lon="11.2387602"><ele>455.0</ele><time>2026-05-02T10:42:03.989Z</time></trkpt><trkpt lat="43.9509" lon="11.2388905"><ele>455.0</ele><time>2026-05-02T10:42:05.989Z</time></trkpt><trkpt lat="43.9508292" lon="11.239064"><ele>455.0</ele><time>2026-05-02T10:42:07.99Z</time></trkpt><trkpt lat="43.9507452" lon="11.2391587"><ele>455.0</ele><time>2026-05-02T10:42:09.989Z</time></trkpt><trkpt lat="43.9506997" lon="11.2392245"><ele>455.0</ele><time>2026-05-02T10:42:10.989Z</time></trkpt><trkpt lat="43.9506475" lon="11.2392901"><ele>462.0</ele><time>2026-05-02T10:42:11.989Z</time></trkpt><trkpt lat="43.9505582" lon="11.2393953"><ele>469.0</ele><time>2026-05-02T10:42:13.989Z</time></trkpt><trkpt lat="43.9505049" lon="11.239461"><ele>476.0</ele><time>2026-05-02T10:42:14.99Z</time></trkpt><trkpt lat="43.9504386" lon="11.2395655"><ele>483.0</ele><time>2026-05-02T10:42:16.989Z</time></trkpt><trkpt lat="43.9503755" lon="11.2396762"><ele>490.0</ele><time>2026-05-02T10:42:18.989Z</time></trkpt><trkpt lat="43.9503516" lon="11.2397694"><ele>489.8571428571429</ele><time>2026-05-02T10:42:19.989Z</time></trkpt><trkpt lat="43.9503151" lon="11.2398492"><ele>489.7142857142857</ele><time>2026-05-02T10:42:20.989Z</time></trkpt><trkpt lat="43.9502723" lon="11.2399478"><ele>489.57142857142856</ele><time>2026-05-02T10:42:21.989Z</time></trkpt><trkpt lat="43.9502589" lon="11.2400365"><ele>489.42857142857144</ele><time>2026-05-02T10:42:22.989Z</time></trkpt><trkpt lat="43.950224" lon="11.2401109"><ele>489.28571428571433</ele><time>2026-05-02T10:42:23.989Z</time></trkpt><trkpt lat="43.9501791" lon="11.2402027"><ele>489.14285714285717</ele><time>2026-05-02T10:42:25.989Z</time></trkpt><trkpt lat="43.9501231" lon="11.2402527"><ele>489.0</ele><time>2026-05-02T10:42:26.989Z</time></trkpt><trkpt lat="43.9500685" lon="11.2402987"><ele>489.0</ele><time>2026-05-02T10:42:27.99Z</time></trkpt><trkpt lat="43.9500134" lon="11.2403539"><ele>489.0</ele><time>2026-05-02T10:42:28.99Z</time></trkpt><trkpt lat="43.9499694" lon="11.240505"><ele>489.0</ele><time>2026-05-02T10:42:30.989Z</time></trkpt><trkpt lat="43.9499093" lon="11.2406391"><ele>489.0</ele><time>2026-05-02T10:42:32.989Z</time></trkpt><trkpt lat="43.9498806" lon="11.2407197"><ele>489.0</ele><time>2026-05-02T10:42:33.989Z</time></trkpt><trkpt lat="43.9498074" lon="11.2408508"><ele>490.5</ele><time>2026-05-02T10:42:35.989Z</time></trkpt><trkpt lat="43.9497697" lon="11.2409769"><ele>492.0</ele><time>2026-05-02T10:42:37.989Z</time></trkpt><trkpt lat="43.9497358" lon="11.2410605"><ele>493.5</ele><time>2026-05-02T10:42:38.989Z</time></trkpt><trkpt lat="43.9496953" lon="11.2411893"><ele>495.0</ele><time>2026-05-02T10:42:40.99Z</time></trkpt><trkpt lat="43.9496647" lon="11.2412853"><ele>496.5</ele><time>2026-05-02T10:42:41.989Z</time></trkpt><trkpt lat="43.9496369" lon="11.2414153"><ele>498.0</ele><time>2026-05-02T10:42:42.99Z</time></trkpt><trkpt lat="43.9495941" lon="11.241546"><ele>498.79999999999995</ele><time>2026-05-02T10:42:43.989Z</time></trkpt><trkpt lat="43.9495516" lon="11.2416531"><ele>499.59999999999997</ele><time>2026-05-02T10:42:44.989Z</time></trkpt><trkpt lat="43.9495184" lon="11.2417487"><ele>500.40000000000003</ele><time>2026-05-02T10:42:45.989Z</time></trkpt><trkpt lat="43.9494838" lon="11.2418401"><ele>501.20000000000005</ele><time>2026-05-02T10:42:46.989Z</time></trkpt><trkpt lat="43.9493917" lon="11.2419217"><ele>502.0</ele><time>2026-05-02T10:42:48.991Z</time></trkpt><trkpt lat="43.949268" lon="11.2419525"><ele>503.00000000000006</ele><time>2026-05-02T10:42:50.989Z</time></trkpt><trkpt lat="43.9491645" lon="11.2419532"><ele>504.0</ele><time>2026-05-02T10:42:52.989Z</time></trkpt><trkpt lat="43.9490808" lon="11.2419036"><ele>505.0</ele><time>2026-05-02T10:42:55.989Z</time></trkpt><trkpt lat="43.9490003" lon="11.2418951"><ele>506.0</ele><time>2026-05-02T10:42:57.989Z</time></trkpt><trkpt lat="43.9488966" lon="11.2419041"><ele>507.00000000000006</ele><time>2026-05-02T10:42:59.989Z</time></trkpt><trkpt lat="43.9488328" lon="11.2419288"><ele>508.0</ele><time>2026-05-02T10:43:00.989Z</time></trkpt><trkpt lat="43.9487268" lon="11.2419971"><ele>508.00000000000006</ele><time>2026-05-02T10:43:02.989Z</time></trkpt><trkpt lat="43.9486606" lon="11.242056"><ele>508.0</ele><time>2026-05-02T10:43:03.989Z</time></trkpt><trkpt lat="43.9485916" lon="11.2421127"><ele>508.0</ele><time>2026-05-02T10:43:04.989Z</time></trkpt><trkpt lat="43.9485318" lon="11.2421638"><ele>508.0</ele><time>2026-05-02T10:43:05.989Z</time></trkpt><trkpt lat="43.9484778" lon="11.2422308"><ele>508.00000000000006</ele><time>2026-05-02T10:43:06.989Z</time></trkpt><trkpt lat="43.9483641" lon="11.2423039"><ele>508.0</ele><time>2026-05-02T10:43:08.989Z</time></trkpt><trkpt lat="43.9482544" lon="11.2423642"><ele>509.79999999999995</ele><time>2026-05-02T10:43:10.989Z</time></trkpt><trkpt lat="43.9481561" lon="11.2424288"><ele>511.59999999999997</ele><time>2026-05-02T10:43:12.99Z</time></trkpt><trkpt lat="43.9480305" lon="11.242492"><ele>513.4000000000001</ele><time>2026-05-02T10:43:14.989Z</time></trkpt><trkpt lat="43.9479558" lon="11.2425343"><ele>515.2</ele><time>2026-05-02T10:43:15.989Z</time></trkpt><trkpt lat="43.9478881" lon="11.2425611"><ele>517.0</ele><time>2026-05-02T10:43:16.989Z</time></trkpt><trkpt lat="43.9478234" lon="11.2425787"><ele>517.0</ele><time>2026-05-02T10:43:17.99Z</time></trkpt><trkpt lat="43.9477181" lon="11.2426162"><ele>517.0</ele><time>2026-05-02T10:43:19.989Z</time></trkpt><trkpt lat="43.9476165" lon="11.2426401"><ele>517.0</ele><time>2026-05-02T10:43:21.989Z</time></trkpt><trkpt lat="43.9475304" lon="11.2426998"><ele>517.0</ele><time>2026-05-02T10:43:23.989Z</time></trkpt><trkpt lat="43.9475153" lon="11.2427869"><ele>517.0</ele><time>2026-05-02T10:43:26.989Z</time></trkpt><trkpt lat="43.9475691" lon="11.2428903"><ele>517.0</ele><time>2026-05-02T10:43:28.989Z</time></trkpt><trkpt lat="43.9476263" lon="11.242948"><ele>517.0</ele><time>2026-05-02T10:43:29.99Z</time></trkpt><trkpt lat="43.9476981" lon="11.2429978"><ele>517.0</ele><time>2026-05-02T10:43:30.989Z</time></trkpt><trkpt lat="43.9477476" lon="11.2430718"><ele>517.0</ele><time>2026-05-02T10:43:31.989Z</time></trkpt><trkpt lat="43.947836" lon="11.2431972"><ele>517.0</ele><time>2026-05-02T10:43:33.989Z</time></trkpt><trkpt lat="43.9479003" lon="11.2432719"><ele>517.0</ele><time>2026-05-02T10:43:34.989Z</time></trkpt><trkpt lat="43.9479817" lon="11.2433335"><ele>517.8000000000001</ele><time>2026-05-02T10:43:35.989Z</time></trkpt><trkpt lat="43.9480666" lon="11.2433895"><ele>518.6</ele><time>2026-05-02T10:43:36.989Z</time></trkpt><trkpt lat="43.9481633" lon="11.2434633"><ele>519.4000000000001</ele><time>2026-05-02T10:43:37.99Z</time></trkpt><trkpt lat="43.9482644" lon="11.2435173"><ele>520.2</ele><time>2026-05-02T10:43:38.989Z</time></trkpt><trkpt lat="43.9483551" lon="11.2435503"><ele>521.0</ele><time>2026-05-02T10:43:39.989Z</time></trkpt><trkpt lat="43.9484743" lon="11.2435884"><ele>521.8333333333333</ele><time>2026-05-02T10:43:41.989Z</time></trkpt><trkpt lat="43.9485324" lon="11.2436244"><ele>522.6666666666666</ele><time>2026-05-02T10:43:42.989Z</time></trkpt><trkpt lat="43.9485945" lon="11.243684"><ele>523.5</ele><time>2026-05-02T10:43:43.99Z</time></trkpt><trkpt lat="43.9486537" lon="11.2437345"><ele>524.3333333333334</ele><time>2026-05-02T10:43:44.989Z</time></trkpt><trkpt lat="43.9487259" lon="11.2438016"><ele>525.1666666666667</ele><time>2026-05-02T10:43:45.989Z</time></trkpt><trkpt lat="43.9487944" lon="11.2438645"><ele>526.0</ele><time>2026-05-02T10:43:46.989Z</time></trkpt><trkpt lat="43.9488601" lon="11.2439261"><ele>524.5</ele><time>2026-05-02T10:43:47.989Z</time></trkpt><trkpt lat="43.948926" lon="11.2439844"><ele>523.0</ele><time>2026-05-02T10:43:48.989Z</time></trkpt><trkpt lat="43.9489932" lon="11.2440454"><ele>521.5</ele><time>2026-05-02T10:43:49.989Z</time></trkpt><trkpt lat="43.9490479" lon="11.2441045"><ele>520.0</ele><time>2026-05-02T10:43:50.989Z</time></trkpt><trkpt lat="43.9491026" lon="11.2441633"><ele>518.5</ele><time>2026-05-02T10:43:51.989Z</time></trkpt><trkpt lat="43.94919" lon="11.2442516"><ele>517.0</ele><time>2026-05-02T10:43:53.989Z</time></trkpt><trkpt lat="43.9492412" lon="11.2443387"><ele>516.5</ele><time>2026-05-02T10:43:55.99Z</time></trkpt><trkpt lat="43.9492741" lon="11.2444828"><ele>516.0</ele><time>2026-05-02T10:43:57.989Z</time></trkpt><trkpt lat="43.9493003" lon="11.2445672"><ele>515.5</ele><time>2026-05-02T10:43:58.989Z</time></trkpt><trkpt lat="43.9493504" lon="11.2447184"><ele>515.0</ele><time>2026-05-02T10:44:00.989Z</time></trkpt><trkpt lat="43.9493839" lon="11.2447939"><ele>514.5</ele><time>2026-05-02T10:44:01.989Z</time></trkpt><trkpt lat="43.9494241" lon="11.2448613"><ele>514.0</ele><time>2026-05-02T10:44:02.989Z</time></trkpt><trkpt lat="43.9494715" lon="11.2449211"><ele>514.0</ele><time>2026-05-02T10:44:03.99Z</time></trkpt><trkpt lat="43.9495386" lon="11.2449898"><ele>514.0</ele><time>2026-05-02T10:44:05.99Z</time></trkpt><trkpt lat="43.9495828" lon="11.2450874"><ele>514.0</ele><time>2026-05-02T10:44:07.989Z</time></trkpt><trkpt lat="43.9496329" lon="11.245158"><ele>514.0</ele><time>2026-05-02T10:44:09.989Z</time></trkpt><trkpt lat="43.9497007" lon="11.2452025"><ele>514.0</ele><time>2026-05-02T10:44:18.989Z</time></trkpt><trkpt lat="43.9497434" lon="11.245289"><ele>514.0</ele><time>2026-05-02T10:44:20.99Z</time></trkpt><trkpt lat="43.949808" lon="11.2453711"><ele>514.0</ele><time>2026-05-02T10:44:22.989Z</time></trkpt><trkpt lat="43.9498722" lon="11.2453861"><ele>514.0</ele><time>2026-05-02T10:44:23.989Z</time></trkpt><trkpt lat="43.9499711" lon="11.2454457"><ele>514.0</ele><time>2026-05-02T10:44:25.989Z</time></trkpt><trkpt lat="43.9500493" lon="11.2455108"><ele>514.0</ele><time>2026-05-02T10:44:27.989Z</time></trkpt><trkpt lat="43.95013" lon="11.2455998"><ele>514.0</ele><time>2026-05-02T10:44:29.989Z</time></trkpt><trkpt lat="43.9502189" lon="11.2457011"><ele>515.6666666666667</ele><time>2026-05-02T10:44:31.99Z</time></trkpt><trkpt lat="43.9502828" lon="11.2457434"><ele>517.3333333333334</ele><time>2026-05-02T10:44:32.989Z</time></trkpt><trkpt lat="43.9503592" lon="11.2458124"><ele>519.0</ele><time>2026-05-02T10:44:34.989Z</time></trkpt><trkpt lat="43.9504239" lon="11.2459076"><ele>520.6666666666666</ele><time>2026-05-02T10:44:36.989Z</time></trkpt><trkpt lat="43.9504804" lon="11.2459777"><ele>522.3333333333333</ele><time>2026-05-02T10:44:38.989Z</time></trkpt><trkpt lat="43.9505213" lon="11.2460801"><ele>524.0</ele><time>2026-05-02T10:44:40.99Z</time></trkpt><trkpt lat="43.9505467" lon="11.2462079"><ele>524.0</ele><time>2026-05-02T10:44:42.989Z</time></trkpt><trkpt lat="43.950537" lon="11.2463189"><ele>524.0</ele><time>2026-05-02T10:44:44.989Z</time></trkpt><trkpt lat="43.9505371" lon="11.2464326"><ele>524.0</ele><time>2026-05-02T10:44:46.989Z</time></trkpt><trkpt lat="43.9505535" lon="11.2465542"><ele>524.0</ele><time>2026-05-02T10:44:50.989Z</time></trkpt><trkpt lat="43.9505403" lon="11.2466852"><ele>524.0</ele><time>2026-05-02T10:44:52.989Z</time></trkpt><trkpt lat="43.9505592" lon="11.2468072"><ele>524.0</ele><time>2026-05-02T10:45:25.99Z</time></trkpt><trkpt lat="43.950554" lon="11.2466924"><ele>524.0</ele><time>2026-05-02T10:45:36.989Z</time></trkpt><trkpt lat="43.9505613" lon="11.2465829"><ele>524.0</ele><time>2026-05-02T10:45:38.989Z</time></trkpt><trkpt lat="43.9505595" lon="11.2464505"><ele>524.0</ele><time>2026-05-02T10:45:40.99Z</time></trkpt><trkpt lat="43.9505378" lon="11.24634"><ele>524.0</ele><time>2026-05-02T10:45:42.99Z</time></trkpt><trkpt lat="43.9505341" lon="11.2462242"><ele>524.0</ele><time>2026-05-02T10:45:44.989Z</time></trkpt><trkpt lat="43.9505311" lon="11.2461161"><ele>524.0</ele><time>2026-05-02T10:45:46.989Z</time></trkpt><trkpt lat="43.9505123" lon="11.246022"><ele>524.0</ele><time>2026-05-02T10:45:48.989Z</time></trkpt><trkpt lat="43.9504735" lon="11.2459297"><ele>524.0</ele><time>2026-05-02T10:45:51.989Z</time></trkpt><trkpt lat="43.9504167" lon="11.2458558"><ele>524.0</ele><time>2026-05-02T10:45:53.99Z</time></trkpt><trkpt lat="43.9503572" lon="11.2457871"><ele>524.0</ele><time>2026-05-02T10:45:55.989Z</time></trkpt><trkpt lat="43.9502921" lon="11.2457437"><ele>524.0</ele><time>2026-05-02T10:45:56.989Z</time></trkpt><trkpt lat="43.9501823" lon="11.2456592"><ele>524.0</ele><time>2026-05-02T10:45:58.989Z</time></trkpt><trkpt lat="43.9501336" lon="11.2455913"><ele>522.0</ele><time>2026-05-02T10:45:59.989Z</time></trkpt><trkpt lat="43.95004" lon="11.2454899"><ele>520.0</ele><time>2026-05-02T10:46:01.989Z</time></trkpt><trkpt lat="43.949928" lon="11.2454094"><ele>518.0</ele><time>2026-05-02T10:46:03.989Z</time></trkpt><trkpt lat="43.9498689" lon="11.2453642"><ele>516.0</ele><time>2026-05-02T10:46:04.989Z</time></trkpt><trkpt lat="43.9497661" lon="11.245304"><ele>514.0</ele><time>2026-05-02T10:46:06.989Z</time></trkpt><trkpt lat="43.9497114" lon="11.2452344"><ele>514.0</ele><time>2026-05-02T10:46:08.99Z</time></trkpt><trkpt lat="43.9497234" lon="11.2451451"><ele>514.0</ele><time>2026-05-02T10:46:13.989Z</time></trkpt><trkpt lat="43.9497854" lon="11.2451648"><ele>514.0</ele><time>2026-05-02T10:46:16.989Z</time></trkpt><trkpt lat="43.9498826" lon="11.245225"><ele>514.0</ele><time>2026-05-02T10:46:18.99Z</time></trkpt><trkpt lat="43.9499997" lon="11.2452857"><ele>514.0</ele><time>2026-05-02T10:46:20.989Z</time></trkpt><trkpt lat="43.9500631" lon="11.2453198"><ele>514.0</ele><time>2026-05-02T10:46:21.989Z</time></trkpt><trkpt lat="43.9501286" lon="11.2453511"><ele>512.4</ele><time>2026-05-02T10:46:22.989Z</time></trkpt><trkpt lat="43.9502277" lon="11.2453794"><ele>510.79999999999995</ele><time>2026-05-02T10:46:24.989Z</time></trkpt><trkpt lat="43.9503247" lon="11.2454357"><ele>509.20000000000005</ele><time>2026-05-02T10:46:26.989Z</time></trkpt><trkpt lat="43.9504046" lon="11.2455529"><ele>507.6</ele><time>2026-05-02T10:46:28.989Z</time></trkpt><trkpt lat="43.9504759" lon="11.2456387"><ele>506.0</ele><time>2026-05-02T10:46:30.989Z</time></trkpt><trkpt lat="43.9505481" lon="11.2457105"><ele>508.8</ele><time>2026-05-02T10:46:32.989Z</time></trkpt><trkpt lat="43.9506248" lon="11.2458047"><ele>511.6</ele><time>2026-05-02T10:46:34.99Z</time></trkpt><trkpt lat="43.9506785" lon="11.2458908"><ele>514.4</ele><time>2026-05-02T10:46:38.989Z</time></trkpt><trkpt lat="43.9507367" lon="11.2460138"><ele>517.2</ele><time>2026-05-02T10:46:51.989Z</time></trkpt><trkpt lat="43.9508078" lon="11.246101"><ele>520.0</ele><time>2026-05-02T10:46:54.989Z</time></trkpt><trkpt lat="43.9508849" lon="11.2461769"><ele>520.0</ele><time>2026-05-02T10:46:57.989Z</time></trkpt><trkpt lat="43.9509646" lon="11.2462194"><ele>520.0</ele><time>2026-05-02T10:46:59.989Z</time></trkpt><trkpt lat="43.9510373" lon="11.2462618"><ele>520.0</ele><time>2026-05-02T10:47:01.989Z</time></trkpt><trkpt lat="43.9511248" lon="11.2462895"><ele>520.0</ele><time>2026-05-02T10:47:04.989Z</time></trkpt><trkpt lat="43.9511887" lon="11.2463014"><ele>520.0</ele><time>2026-05-02T10:47:06.989Z</time></trkpt><trkpt lat="43.9512533" lon="11.2463204"><ele>520.0</ele><time>2026-05-02T10:47:08.989Z</time></trkpt><trkpt lat="43.9513582" lon="11.2463345"><ele>520.0</ele><time>2026-05-02T10:47:11.989Z</time></trkpt><trkpt lat="43.9514427" lon="11.246364"><ele>520.0</ele><time>2026-05-02T10:47:13.989Z</time></trkpt><trkpt lat="43.9515138" lon="11.2463695"><ele>520.0</ele><time>2026-05-02T10:47:15.99Z</time></trkpt><trkpt lat="43.9516043" lon="11.2463723"><ele>520.0</ele><time>2026-05-02T10:47:17.989Z</time></trkpt><trkpt lat="43.9516925" lon="11.2463597"><ele>520.0</ele><time>2026-05-02T10:47:19.989Z</time></trkpt><trkpt lat="43.9517666" lon="11.2463254"><ele>520.0</ele><time>2026-05-02T10:47:21.989Z</time></trkpt><trkpt lat="43.9518359" lon="11.2462862"><ele>518.8571428571429</ele><time>2026-05-02T10:47:25.989Z</time></trkpt><trkpt lat="43.9518996" lon="11.2462504"><ele>517.7142857142858</ele><time>2026-05-02T10:47:28.989Z</time></trkpt><trkpt lat="43.9519648" lon="11.2462121"><ele>516.5714285714286</ele><time>2026-05-02T10:47:30.99Z</time></trkpt><trkpt lat="43.9520308" lon="11.2461779"><ele>515.4285714285714</ele><time>2026-05-02T10:47:32.989Z</time></trkpt><trkpt lat="43.9520901" lon="11.2461437"><ele>514.2857142857142</ele><time>2026-05-02T10:47:35.989Z</time></trkpt><trkpt lat="43.952152" lon="11.2461194"><ele>513.1428571428571</ele><time>2026-05-02T10:47:38.989Z</time></trkpt><trkpt lat="43.9522403" lon="11.246101"><ele>512.0</ele><time>2026-05-02T10:47:42.989Z</time></trkpt><trkpt lat="43.9523147" lon="11.2460931"><ele>511.99999999999994</ele><time>2026-05-02T10:47:45.989Z</time></trkpt><trkpt lat="43.9523785" lon="11.2460807"><ele>512.0</ele><time>2026-05-02T10:47:47.989Z</time></trkpt><trkpt lat="43.9524722" lon="11.2461044"><ele>512.0</ele><time>2026-05-02T10:47:50.989Z</time></trkpt><trkpt lat="43.9525503" lon="11.2461433"><ele>512.0</ele><time>2026-05-02T10:47:52.989Z</time></trkpt><trkpt lat="43.952614" lon="11.2461817"><ele>511.99999999999994</ele><time>2026-05-02T10:47:54.989Z</time></trkpt><trkpt lat="43.9527021" lon="11.2462365"><ele>512.0</ele><time>2026-05-02T10:47:57.989Z</time></trkpt><trkpt lat="43.9527655" lon="11.2462714"><ele>512.5</ele><time>2026-05-02T10:47:59.99Z</time></trkpt><trkpt lat="43.9528232" lon="11.2463065"><ele>513.0</ele><time>2026-05-02T10:48:01.989Z</time></trkpt><trkpt lat="43.9528896" lon="11.2463514"><ele>513.5</ele><time>2026-05-02T10:48:03.989Z</time></trkpt><trkpt lat="43.95294" lon="11.2464172"><ele>514.0</ele><time>2026-05-02T10:48:05.989Z</time></trkpt><trkpt lat="43.9530032" lon="11.2465005"><ele>514.5</ele><time>2026-05-02T10:48:08.989Z</time></trkpt><trkpt lat="43.9530773" lon="11.2465568"><ele>515.0</ele><time>2026-05-02T10:48:11.989Z</time></trkpt><trkpt lat="43.9531584" lon="11.2465819"><ele>515.0</ele><time>2026-05-02T10:48:13.989Z</time></trkpt><trkpt lat="43.9532232" lon="11.2466414"><ele>515.0</ele><time>2026-05-02T10:48:14.989Z</time></trkpt><trkpt lat="43.9532976" lon="11.2466606"><ele>515.0</ele><time>2026-05-02T10:48:16.989Z</time></trkpt><trkpt lat="43.9533574" lon="11.2466058"><ele>515.0</ele><time>2026-05-02T10:48:19.99Z</time></trkpt><trkpt lat="43.953403" lon="11.2465024"><ele>515.0</ele><time>2026-05-02T10:48:22.99Z</time></trkpt><trkpt lat="43.9534492" lon="11.2463807"><ele>515.0</ele><time>2026-05-02T10:48:25.989Z</time></trkpt><trkpt lat="43.9535301" lon="11.2462463"><ele>515.2</ele><time>2026-05-02T10:48:27.989Z</time></trkpt><trkpt lat="43.9535893" lon="11.246124"><ele>515.4</ele><time>2026-05-02T10:48:29.989Z</time></trkpt><trkpt lat="43.9536509" lon="11.2460177"><ele>515.6</ele><time>2026-05-02T10:48:31.989Z</time></trkpt><trkpt lat="43.9537148" lon="11.2459115"><ele>515.8</ele><time>2026-05-02T10:48:33.989Z</time></trkpt><trkpt lat="43.9537812" lon="11.2458354"><ele>516.0</ele><time>2026-05-02T10:48:35.989Z</time></trkpt><trkpt lat="43.9538474" lon="11.245749"><ele>516.0</ele><time>2026-05-02T10:48:37.989Z</time></trkpt><trkpt lat="43.9539159" lon="11.2456803"><ele>516.0</ele><time>2026-05-02T10:48:39.989Z</time></trkpt><trkpt lat="43.9539813" lon="11.2456192"><ele>516.0</ele><time>2026-05-02T10:48:41.989Z</time></trkpt><trkpt lat="43.9540717" lon="11.2455649"><ele>516.0</ele><time>2026-05-02T10:48:43.989Z</time></trkpt><trkpt lat="43.9541719" lon="11.2455203"><ele>516.0</ele><time>2026-05-02T10:48:45.99Z</time></trkpt><trkpt lat="43.9542409" lon="11.2454428"><ele>516.8</ele><time>2026-05-02T10:48:48.989Z</time></trkpt><trkpt lat="43.9542996" lon="11.2453836"><ele>517.6</ele><time>2026-05-02T10:48:51.99Z</time></trkpt><trkpt lat="43.9543708" lon="11.2452854"><ele>518.4</ele><time>2026-05-02T10:48:54.989Z</time></trkpt><trkpt lat="43.9544453" lon="11.2451967"><ele>519.2</ele><time>2026-05-02T10:48:56.989Z</time></trkpt><trkpt lat="43.9545576" lon="11.2450941"><ele>520.0</ele><time>2026-05-02T10:48:58.989Z</time></trkpt><trkpt lat="43.9546189" lon="11.2450264"><ele>520.0</ele><time>2026-05-02T10:48:59.989Z</time></trkpt><trkpt lat="43.9546848" lon="11.2449481"><ele>520.0</ele><time>2026-05-02T10:49:00.989Z</time></trkpt><trkpt lat="43.9547436" lon="11.2448948"><ele>520.0</ele><time>2026-05-02T10:49:01.989Z</time></trkpt><trkpt lat="43.954817" lon="11.2448084"><ele>520.0</ele><time>2026-05-02T10:49:03.989Z</time></trkpt><trkpt lat="43.9548646" lon="11.2447339"><ele>520.0</ele><time>2026-05-02T10:49:05.989Z</time></trkpt><trkpt lat="43.9549229" lon="11.2446487"><ele>520.0</ele><time>2026-05-02T10:49:07.99Z</time></trkpt><trkpt lat="43.9549821" lon="11.2445974"><ele>519.8333333333334</ele><time>2026-05-02T10:49:09.989Z</time></trkpt><trkpt lat="43.955074" lon="11.2445278"><ele>519.6666666666667</ele><time>2026-05-02T10:49:11.989Z</time></trkpt><trkpt lat="43.9551594" lon="11.244455"><ele>519.5</ele><time>2026-05-02T10:49:13.989Z</time></trkpt><trkpt lat="43.95522" lon="11.2444156"><ele>519.3333333333334</ele><time>2026-05-02T10:49:15.99Z</time></trkpt><trkpt lat="43.9552987" lon="11.2444492"><ele>519.1666666666666</ele><time>2026-05-02T10:49:18.99Z</time></trkpt><trkpt lat="43.9553839" lon="11.2444813"><ele>519.0</ele><time>2026-05-02T10:49:21.989Z</time></trkpt><trkpt lat="43.9554649" lon="11.2444551"><ele>519.0</ele><time>2026-05-02T10:49:23.99Z</time></trkpt><trkpt lat="43.9555307" lon="11.2443763"><ele>519.0</ele><time>2026-05-02T10:49:25.989Z</time></trkpt><trkpt lat="43.9555861" lon="11.2442664"><ele>519.0</ele><time>2026-05-02T10:49:27.989Z</time></trkpt><trkpt lat="43.9556455" lon="11.2441745"><ele>519.0</ele><time>2026-05-02T10:49:29.989Z</time></trkpt><trkpt lat="43.9557066" lon="11.2440824"><ele>519.0</ele><time>2026-05-02T10:49:31.99Z</time></trkpt><trkpt lat="43.9557449" lon="11.2440071"><ele>519.0</ele><time>2026-05-02T10:49:32.99Z</time></trkpt><trkpt lat="43.9558258" lon="11.2438904"><ele>516.6666666666666</ele><time>2026-05-02T10:49:34.989Z</time></trkpt><trkpt lat="43.9558992" lon="11.2438446"><ele>514.3333333333334</ele><time>2026-05-02T10:49:36.99Z</time></trkpt><trkpt lat="43.9559677" lon="11.2438033"><ele>512.0</ele><time>2026-05-02T10:49:38.989Z</time></trkpt><trkpt lat="43.9560619" lon="11.2437837"><ele>509.6666666666667</ele><time>2026-05-02T10:49:40.989Z</time></trkpt><trkpt lat="43.9561599" lon="11.2437403"><ele>507.33333333333337</ele><time>2026-05-02T10:49:42.99Z</time></trkpt><trkpt lat="43.9562282" lon="11.2437031"><ele>505.0</ele><time>2026-05-02T10:49:44.989Z</time></trkpt><trkpt lat="43.9562914" lon="11.2436635"><ele>505.00000000000006</ele><time>2026-05-02T10:49:46.989Z</time></trkpt><trkpt lat="43.9563512" lon="11.2436302"><ele>505.0</ele><time>2026-05-02T10:49:48.989Z</time></trkpt><trkpt lat="43.9564101" lon="11.2435914"><ele>505.0</ele><time>2026-05-02T10:49:50.989Z</time></trkpt><trkpt lat="43.9564973" lon="11.2435459"><ele>505.0</ele><time>2026-05-02T10:49:53.989Z</time></trkpt><trkpt lat="43.9565686" lon="11.2435023"><ele>505.00000000000006</ele><time>2026-05-02T10:49:55.99Z</time></trkpt><trkpt lat="43.9566388" lon="11.2434481"><ele>505.0</ele><time>2026-05-02T10:49:57.989Z</time></trkpt><trkpt lat="43.9567142" lon="11.2434082"><ele>503.83333333333337</ele><time>2026-05-02T10:49:59.99Z</time></trkpt><trkpt lat="43.9567812" lon="11.2433864"><ele>502.6666666666667</ele><time>2026-05-02T10:50:01.989Z</time></trkpt><trkpt lat="43.9568555" lon="11.2433582"><ele>501.5</ele><time>2026-05-02T10:50:04.99Z</time></trkpt><trkpt lat="43.9569538" lon="11.2433245"><ele>500.33333333333337</ele><time>2026-05-02T10:50:07.989Z</time></trkpt><trkpt lat="43.9570173" lon="11.243331"><ele>499.1666666666667</ele><time>2026-05-02T10:50:09.989Z</time></trkpt><trkpt lat="43.9570902" lon="11.2433371"><ele>498.0</ele><time>2026-05-02T10:50:12.989Z</time></trkpt><trkpt lat="43.9571755" lon="11.243307"><ele>498.0</ele><time>2026-05-02T10:50:15.989Z</time></trkpt><trkpt lat="43.9572533" lon="11.243322"><ele>498.0</ele><time>2026-05-02T10:50:18.99Z</time></trkpt><trkpt lat="43.9573074" lon="11.2433762"><ele>498.0</ele><time>2026-05-02T10:50:20.989Z</time></trkpt><trkpt lat="43.9573788" lon="11.2434439"><ele>498.0</ele><time>2026-05-02T10:50:23.989Z</time></trkpt><trkpt lat="43.9574432" lon="11.2435058"><ele>498.0</ele><time>2026-05-02T10:50:25.989Z</time></trkpt><trkpt lat="43.9575042" lon="11.2435565"><ele>498.0</ele><time>2026-05-02T10:50:28.989Z</time></trkpt><trkpt lat="43.9575755" lon="11.2436364"><ele>497.2857142857143</ele><time>2026-05-02T10:50:31.989Z</time></trkpt><trkpt lat="43.9576349" lon="11.2437039"><ele>496.57142857142856</ele><time>2026-05-02T10:50:33.989Z</time></trkpt><trkpt lat="43.9576878" lon="11.2437851"><ele>495.85714285714283</ele><time>2026-05-02T10:50:35.99Z</time></trkpt><trkpt lat="43.9577373" lon="11.2438612"><ele>495.1428571428571</ele><time>2026-05-02T10:50:37.989Z</time></trkpt><trkpt lat="43.9577826" lon="11.243924"><ele>494.42857142857144</ele><time>2026-05-02T10:50:42.989Z</time></trkpt><trkpt lat="43.9578245" lon="11.2440035"><ele>493.71428571428567</ele><time>2026-05-02T10:50:50.989Z</time></trkpt><trkpt lat="43.9578781" lon="11.2440669"><ele>493.0</ele><time>2026-05-02T10:50:53.989Z</time></trkpt><trkpt lat="43.9579408" lon="11.2441045"><ele>493.0</ele><time>2026-05-02T10:50:55.989Z</time></trkpt><trkpt lat="43.9580249" lon="11.2441668"><ele>492.99999999999994</ele><time>2026-05-02T10:50:57.989Z</time></trkpt><trkpt lat="43.9580883" lon="11.2441912"><ele>492.99999999999994</ele><time>2026-05-02T10:50:59.989Z</time></trkpt><trkpt lat="43.9581823" lon="11.2441709"><ele>493.0</ele><time>2026-05-02T10:51:01.989Z</time></trkpt><trkpt lat="43.958272" lon="11.2441227"><ele>493.0</ele><time>2026-05-02T10:51:03.99Z</time></trkpt><trkpt lat="43.9583745" lon="11.2440548"><ele>492.83333333333337</ele><time>2026-05-02T10:51:05.99Z</time></trkpt><trkpt lat="43.9584479" lon="11.2440096"><ele>492.6666666666667</ele><time>2026-05-02T10:51:07.989Z</time></trkpt><trkpt lat="43.9585072" lon="11.2439452"><ele>492.5</ele><time>2026-05-02T10:51:09.989Z</time></trkpt><trkpt lat="43.9585589" lon="11.2438868"><ele>492.33333333333337</ele><time>2026-05-02T10:51:11.989Z</time></trkpt><trkpt lat="43.9586386" lon="11.2438047"><ele>492.1666666666667</ele><time>2026-05-02T10:51:14.99Z</time></trkpt><trkpt lat="43.9587025" lon="11.243726"><ele>492.0</ele><time>2026-05-02T10:51:16.99Z</time></trkpt><trkpt lat="43.9587521" lon="11.243594"><ele>492.0</ele><time>2026-05-02T10:51:18.989Z</time></trkpt><trkpt lat="43.958813" lon="11.2434662"><ele>492.0</ele><time>2026-05-02T10:51:20.989Z</time></trkpt><trkpt lat="43.9588545" lon="11.2433615"><ele>492.0</ele><time>2026-05-02T10:51:22.99Z</time></trkpt><trkpt lat="43.9589024" lon="11.2432842"><ele>492.0</ele><time>2026-05-02T10:51:24.989Z</time></trkpt><trkpt lat="43.9589552" lon="11.2432348"><ele>492.0</ele><time>2026-05-02T10:51:26.99Z</time></trkpt><trkpt lat="43.9590278" lon="11.2432033"><ele>492.0</ele><time>2026-05-02T10:51:28.99Z</time></trkpt><trkpt lat="43.9590947" lon="11.2431833"><ele>492.0</ele><time>2026-05-02T10:51:30.99Z</time></trkpt><trkpt lat="43.9591884" lon="11.243177"><ele>492.0</ele><time>2026-05-02T10:51:32.989Z</time></trkpt><trkpt lat="43.9592811" lon="11.2431533"><ele>492.0</ele><time>2026-05-02T10:51:34.989Z</time></trkpt><trkpt lat="43.9593849" lon="11.2431395"><ele>492.0</ele><time>2026-05-02T10:51:36.99Z</time></trkpt><trkpt lat="43.9594541" lon="11.2431224"><ele>492.0</ele><time>2026-05-02T10:51:38.989Z</time></trkpt><trkpt lat="43.9595163" lon="11.2430939"><ele>492.0</ele><time>2026-05-02T10:51:40.99Z</time></trkpt><trkpt lat="43.9595457" lon="11.2430142"><ele>490.1666666666667</ele><time>2026-05-02T10:51:42.99Z</time></trkpt><trkpt lat="43.9595695" lon="11.2429313"><ele>488.33333333333337</ele><time>2026-05-02T10:51:44.989Z</time></trkpt><trkpt lat="43.9596198" lon="11.2428291"><ele>486.5</ele><time>2026-05-02T10:51:46.989Z</time></trkpt><trkpt lat="43.9596543" lon="11.2427236"><ele>484.6666666666667</ele><time>2026-05-02T10:51:48.989Z</time></trkpt><trkpt lat="43.9596774" lon="11.2426065"><ele>482.83333333333337</ele><time>2026-05-02T10:51:50.989Z</time></trkpt><trkpt lat="43.959688" lon="11.2424996"><ele>481.0</ele><time>2026-05-02T10:51:52.99Z</time></trkpt><trkpt lat="43.9596918" lon="11.2423729"><ele>479.83333333333337</ele><time>2026-05-02T10:51:54.99Z</time></trkpt><trkpt lat="43.9596918" lon="11.2422459"><ele>478.6666666666667</ele><time>2026-05-02T10:51:56.989Z</time></trkpt><trkpt lat="43.9596846" lon="11.2421171"><ele>477.5</ele><time>2026-05-02T10:51:58.989Z</time></trkpt><trkpt lat="43.9596736" lon="11.2420166"><ele>476.33333333333337</ele><time>2026-05-02T10:52:00.989Z</time></trkpt><trkpt lat="43.959665" lon="11.2418953"><ele>475.1666666666667</ele><time>2026-05-02T10:52:02.99Z</time></trkpt><trkpt lat="43.959665" lon="11.2417733"><ele>474.0</ele><time>2026-05-02T10:52:04.989Z</time></trkpt><trkpt lat="43.9596597" lon="11.2416642"><ele>474.0</ele><time>2026-05-02T10:52:06.989Z</time></trkpt><trkpt lat="43.9596488" lon="11.241568"><ele>474.0</ele><time>2026-05-02T10:52:08.989Z</time></trkpt><trkpt lat="43.9596142" lon="11.2414687"><ele>474.0</ele><time>2026-05-02T10:52:43.99Z</time></trkpt><trkpt lat="43.9595555" lon="11.2413532"><ele>474.0</ele><time>2026-05-02T10:52:45.989Z</time></trkpt><trkpt lat="43.959492" lon="11.2412963"><ele>474.0</ele><time>2026-05-02T10:52:46.989Z</time></trkpt><trkpt lat="43.9593864" lon="11.2411889"><ele>473.79999999999995</ele><time>2026-05-02T10:52:48.989Z</time></trkpt><trkpt lat="43.9593332" lon="11.2411156"><ele>473.59999999999997</ele><time>2026-05-02T10:52:49.989Z</time></trkpt><trkpt lat="43.9592823" lon="11.241038"><ele>473.4</ele><time>2026-05-02T10:52:50.989Z</time></trkpt><trkpt lat="43.9591869" lon="11.2409517"><ele>473.2</ele><time>2026-05-02T10:52:52.989Z</time></trkpt><trkpt lat="43.9590533" lon="11.2409057"><ele>473.0</ele><time>2026-05-02T10:52:54.989Z</time></trkpt><trkpt lat="43.9589426" lon="11.2409027"><ele>473.0</ele><time>2026-05-02T10:52:55.989Z</time></trkpt><trkpt lat="43.9588533" lon="11.2408939"><ele>472.99999999999994</ele><time>2026-05-02T10:52:56.989Z</time></trkpt><trkpt lat="43.9587583" lon="11.2408886"><ele>472.99999999999994</ele><time>2026-05-02T10:52:57.989Z</time></trkpt><trkpt lat="43.958661" lon="11.2408803"><ele>473.0</ele><time>2026-05-02T10:52:58.989Z</time></trkpt><trkpt lat="43.9585665" lon="11.2408732"><ele>473.0</ele><time>2026-05-02T10:52:59.989Z</time></trkpt><trkpt lat="43.9584765" lon="11.2408618"><ele>472.99999999999994</ele><time>2026-05-02T10:53:00.989Z</time></trkpt><trkpt lat="43.9583929" lon="11.2408467"><ele>473.0</ele><time>2026-05-02T10:53:01.989Z</time></trkpt><trkpt lat="43.9583143" lon="11.2408332"><ele>473.0</ele><time>2026-05-02T10:53:02.989Z</time></trkpt><trkpt lat="43.9582361" lon="11.2408288"><ele>473.0</ele><time>2026-05-02T10:53:03.989Z</time></trkpt><trkpt lat="43.9581511" lon="11.2408206"><ele>472.99999999999994</ele><time>2026-05-02T10:53:04.99Z</time></trkpt><trkpt lat="43.9580709" lon="11.2408047"><ele>473.0</ele><time>2026-05-02T10:53:05.989Z</time></trkpt><trkpt lat="43.9579859" lon="11.2407843"><ele>471.57142857142856</ele><time>2026-05-02T10:53:06.989Z</time></trkpt><trkpt lat="43.9579077" lon="11.2407734"><ele>470.1428571428571</ele><time>2026-05-02T10:53:07.989Z</time></trkpt><trkpt lat="43.9578366" lon="11.2407612"><ele>468.71428571428567</ele><time>2026-05-02T10:53:08.991Z</time></trkpt><trkpt lat="43.9577708" lon="11.2407553"><ele>467.2857142857143</ele><time>2026-05-02T10:53:09.989Z</time></trkpt><trkpt lat="43.9577043" lon="11.2407635"><ele>465.8571428571428</ele><time>2026-05-02T10:53:10.989Z</time></trkpt><trkpt lat="43.9576356" lon="11.240775"><ele>464.4285714285714</ele><time>2026-05-02T10:53:11.989Z</time></trkpt><trkpt lat="43.9575654" lon="11.240775"><ele>463.0</ele><time>2026-05-02T10:53:12.989Z</time></trkpt><trkpt lat="43.9574995" lon="11.2407651"><ele>461.1666666666667</ele><time>2026-05-02T10:53:13.989Z</time></trkpt><trkpt lat="43.9574373" lon="11.2407394"><ele>459.33333333333337</ele><time>2026-05-02T10:53:14.989Z</time></trkpt><trkpt lat="43.957375" lon="11.2407112"><ele>457.5</ele><time>2026-05-02T10:53:15.99Z</time></trkpt><trkpt lat="43.9573024" lon="11.2406922"><ele>455.66666666666663</ele><time>2026-05-02T10:53:16.989Z</time></trkpt><trkpt lat="43.9572285" lon="11.2406701"><ele>453.8333333333333</ele><time>2026-05-02T10:53:17.989Z</time></trkpt><trkpt lat="43.9571558" lon="11.2406508"><ele>452.0</ele><time>2026-05-02T10:53:18.99Z</time></trkpt><trkpt lat="43.9570295" lon="11.2406533"><ele>451.99999999999994</ele><time>2026-05-02T10:53:20.99Z</time></trkpt><trkpt lat="43.9569577" lon="11.240685"><ele>452.0</ele><time>2026-05-02T10:53:21.989Z</time></trkpt><trkpt lat="43.9568904" lon="11.2407433"><ele>452.0</ele><time>2026-05-02T10:53:22.991Z</time></trkpt><trkpt lat="43.9568242" lon="11.2408151"><ele>452.0</ele><time>2026-05-02T10:53:23.989Z</time></trkpt><trkpt lat="43.9567627" lon="11.2408603"><ele>451.99999999999994</ele><time>2026-05-02T10:53:24.989Z</time></trkpt><trkpt lat="43.9566928" lon="11.2409187"><ele>452.0</ele><time>2026-05-02T10:53:25.989Z</time></trkpt><trkpt lat="43.9566141" lon="11.2409706"><ele>450.99999999999994</ele><time>2026-05-02T10:53:26.989Z</time></trkpt><trkpt lat="43.9565424" lon="11.2410312"><ele>450.0</ele><time>2026-05-02T10:53:27.989Z</time></trkpt><trkpt lat="43.9564573" lon="11.2410739"><ele>449.0</ele><time>2026-05-02T10:53:28.99Z</time></trkpt><trkpt lat="43.9563772" lon="11.2411182"><ele>448.0</ele><time>2026-05-02T10:53:29.989Z</time></trkpt><trkpt lat="43.9562907" lon="11.2411571"><ele>446.99999999999994</ele><time>2026-05-02T10:53:30.989Z</time></trkpt><trkpt lat="43.9562222" lon="11.2412265"><ele>446.0</ele><time>2026-05-02T10:53:31.989Z</time></trkpt><trkpt lat="43.9561517" lon="11.241275"><ele>446.0</ele><time>2026-05-02T10:53:32.99Z</time></trkpt><trkpt lat="43.9560486" lon="11.2412963"><ele>446.0</ele><time>2026-05-02T10:53:34.989Z</time></trkpt><trkpt lat="43.9559313" lon="11.2412596"><ele>446.0</ele><time>2026-05-02T10:53:36.989Z</time></trkpt><trkpt lat="43.9558631" lon="11.2412249"><ele>446.0</ele><time>2026-05-02T10:53:37.989Z</time></trkpt><trkpt lat="43.9557402" lon="11.2411627"><ele>446.0</ele><time>2026-05-02T10:53:39.989Z</time></trkpt><trkpt lat="43.9556299" lon="11.2411002"><ele>444.20000000000005</ele><time>2026-05-02T10:53:41.989Z</time></trkpt><trkpt lat="43.9555458" lon="11.2410179"><ele>442.40000000000003</ele><time>2026-05-02T10:53:43.99Z</time></trkpt><trkpt lat="43.9554947" lon="11.240932"><ele>440.6</ele><time>2026-05-02T10:53:45.99Z</time></trkpt><trkpt lat="43.9554585" lon="11.240846"><ele>438.8</ele><time>2026-05-02T10:53:55.989Z</time></trkpt><trkpt lat="43.9554336" lon="11.2406862"><ele>437.0</ele><time>2026-05-02T10:53:57.989Z</time></trkpt><trkpt lat="43.9554208" lon="11.2405803"><ele>434.99999999999994</ele><time>2026-05-02T10:53:58.989Z</time></trkpt><trkpt lat="43.9554018" lon="11.2404538"><ele>433.0</ele><time>2026-05-02T10:53:59.99Z</time></trkpt><trkpt lat="43.9553868" lon="11.2403317"><ele>431.0</ele><time>2026-05-02T10:54:00.989Z</time></trkpt><trkpt lat="43.9553754" lon="11.2402147"><ele>429.0</ele><time>2026-05-02T10:54:01.989Z</time></trkpt><trkpt lat="43.9553638" lon="11.2401095"><ele>426.99999999999994</ele><time>2026-05-02T10:54:02.989Z</time></trkpt><trkpt lat="43.9553512" lon="11.2400159"><ele>425.0</ele><time>2026-05-02T10:54:03.989Z</time></trkpt><trkpt lat="43.9553305" lon="11.2398952"><ele>424.99999999999994</ele><time>2026-05-02T10:54:05.989Z</time></trkpt><trkpt lat="43.9553871" lon="11.2398085"><ele>425.0</ele><time>2026-05-02T10:54:18.989Z</time></trkpt><trkpt lat="43.9554582" lon="11.2398429"><ele>425.0</ele><time>2026-05-02T10:54:20.989Z</time></trkpt><trkpt lat="43.9555532" lon="11.2399548"><ele>425.0</ele><time>2026-05-02T10:54:22.989Z</time></trkpt><trkpt lat="43.9556068" lon="11.240033"><ele>424.99999999999994</ele><time>2026-05-02T10:54:23.989Z</time></trkpt><trkpt lat="43.9556609" lon="11.2401107"><ele>425.0</ele><time>2026-05-02T10:54:24.989Z</time></trkpt><trkpt lat="43.9557167" lon="11.2401853"><ele>425.0</ele><time>2026-05-02T10:54:25.99Z</time></trkpt><trkpt lat="43.955775" lon="11.2402542"><ele>425.0</ele><time>2026-05-02T10:54:26.989Z</time></trkpt><trkpt lat="43.9558349" lon="11.240313"><ele>425.0</ele><time>2026-05-02T10:54:27.989Z</time></trkpt><trkpt lat="43.9558987" lon="11.2403529"><ele>425.0</ele><time>2026-05-02T10:54:28.989Z</time></trkpt><trkpt lat="43.9559632" lon="11.2403816"><ele>425.0</ele><time>2026-05-02T10:54:29.989Z</time></trkpt><trkpt lat="43.9560272" lon="11.2403965"><ele>425.0</ele><time>2026-05-02T10:54:30.989Z</time></trkpt><trkpt lat="43.9560902" lon="11.2403922"><ele>425.0</ele><time>2026-05-02T10:54:31.989Z</time></trkpt><trkpt lat="43.9562119" lon="11.2403267"><ele>425.3333333333333</ele><time>2026-05-02T10:54:33.989Z</time></trkpt><trkpt lat="43.9562724" lon="11.2402597"><ele>425.66666666666663</ele><time>2026-05-02T10:54:34.989Z</time></trkpt><trkpt lat="43.9563326" lon="11.2401886"><ele>426.0</ele><time>2026-05-02T10:54:35.99Z</time></trkpt><trkpt lat="43.9563996" lon="11.2401025"><ele>426.33333333333337</ele><time>2026-05-02T10:54:36.989Z</time></trkpt><trkpt lat="43.9564601" lon="11.2400234"><ele>426.6666666666667</ele><time>2026-05-02T10:54:37.989Z</time></trkpt><trkpt lat="43.9565151" lon="11.239945"><ele>427.0</ele><time>2026-05-02T10:54:38.989Z</time></trkpt><trkpt lat="43.9565678" lon="11.23987"><ele>427.2857142857143</ele><time>2026-05-02T10:54:39.989Z</time></trkpt><trkpt lat="43.9566213" lon="11.2397989"><ele>427.57142857142856</ele><time>2026-05-02T10:54:40.99Z</time></trkpt><trkpt lat="43.9566633" lon="11.2397222"><ele>427.8571428571429</ele><time>2026-05-02T10:54:41.991Z</time></trkpt><trkpt lat="43.9567221" lon="11.2396703"><ele>428.1428571428571</ele><time>2026-05-02T10:54:42.989Z</time></trkpt><trkpt lat="43.9567679" lon="11.2396038"><ele>428.42857142857144</ele><time>2026-05-02T10:54:43.989Z</time></trkpt><trkpt lat="43.9568104" lon="11.2395294"><ele>428.7142857142857</ele><time>2026-05-02T10:54:44.989Z</time></trkpt><trkpt lat="43.9568494" lon="11.2394557"><ele>429.0</ele><time>2026-05-02T10:54:45.989Z</time></trkpt><trkpt lat="43.9569154" lon="11.239304"><ele>429.0</ele><time>2026-05-02T10:54:47.989Z</time></trkpt><trkpt lat="43.9569744" lon="11.2391519"><ele>429.0</ele><time>2026-05-02T10:54:49.99Z</time></trkpt><trkpt lat="43.9570043" lon="11.2390702"><ele>429.0</ele><time>2026-05-02T10:54:50.989Z</time></trkpt><trkpt lat="43.9570362" lon="11.2389653"><ele>429.0</ele><time>2026-05-02T10:54:51.989Z</time></trkpt><trkpt lat="43.9570646" lon="11.2388555"><ele>429.0</ele><time>2026-05-02T10:54:52.99Z</time></trkpt><trkpt lat="43.9570956" lon="11.2387368"><ele>429.0</ele><time>2026-05-02T10:54:53.989Z</time></trkpt><trkpt lat="43.9571261" lon="11.2386125"><ele>426.6</ele><time>2026-05-02T10:54:54.989Z</time></trkpt><trkpt lat="43.9571474" lon="11.2384509"><ele>424.2</ele><time>2026-05-02T10:54:55.989Z</time></trkpt><trkpt lat="43.9571597" lon="11.2383177"><ele>421.8</ele><time>2026-05-02T10:54:56.989Z</time></trkpt><trkpt lat="43.9571798" lon="11.2381839"><ele>419.40000000000003</ele><time>2026-05-02T10:54:57.989Z</time></trkpt><trkpt lat="43.9572049" lon="11.238042"><ele>417.0</ele><time>2026-05-02T10:54:58.989Z</time></trkpt><trkpt lat="43.9572341" lon="11.2379037"><ele>415.20000000000005</ele><time>2026-05-02T10:54:59.989Z</time></trkpt><trkpt lat="43.9572657" lon="11.2377707"><ele>413.4</ele><time>2026-05-02T10:55:00.989Z</time></trkpt><trkpt lat="43.957293" lon="11.2376433"><ele>411.6</ele><time>2026-05-02T10:55:01.99Z</time></trkpt><trkpt lat="43.9573233" lon="11.2375258"><ele>409.79999999999995</ele><time>2026-05-02T10:55:02.989Z</time></trkpt><trkpt lat="43.9573559" lon="11.2374158"><ele>408.0</ele><time>2026-05-02T10:55:03.989Z</time></trkpt><trkpt lat="43.9573964" lon="11.2373"><ele>409.0</ele><time>2026-05-02T10:55:04.989Z</time></trkpt><trkpt lat="43.957441" lon="11.237174"><ele>410.0</ele><time>2026-05-02T10:55:05.989Z</time></trkpt><trkpt lat="43.9574884" lon="11.2370569"><ele>411.0</ele><time>2026-05-02T10:55:06.99Z</time></trkpt><trkpt lat="43.9575472" lon="11.236933"><ele>412.0</ele><time>2026-05-02T10:55:07.989Z</time></trkpt><trkpt lat="43.9576103" lon="11.2368129"><ele>413.0</ele><time>2026-05-02T10:55:08.989Z</time></trkpt><trkpt lat="43.9576812" lon="11.2367108"><ele>413.0</ele><time>2026-05-02T10:55:09.989Z</time></trkpt><trkpt lat="43.9577566" lon="11.2366099"><ele>413.0</ele><time>2026-05-02T10:55:10.989Z</time></trkpt><trkpt lat="43.9578432" lon="11.2365024"><ele>413.0</ele><time>2026-05-02T10:55:11.989Z</time></trkpt><trkpt lat="43.957953" lon="11.2363745"><ele>413.0</ele><time>2026-05-02T10:55:12.989Z</time></trkpt><trkpt lat="43.9580519" lon="11.2362617"><ele>411.79999999999995</ele><time>2026-05-02T10:55:13.989Z</time></trkpt><trkpt lat="43.9581422" lon="11.2361582"><ele>410.6</ele><time>2026-05-02T10:55:14.989Z</time></trkpt><trkpt lat="43.9582277" lon="11.2360581"><ele>409.4</ele><time>2026-05-02T10:55:15.989Z</time></trkpt><trkpt lat="43.9583036" lon="11.2359649"><ele>408.20000000000005</ele><time>2026-05-02T10:55:16.989Z</time></trkpt><trkpt lat="43.9583807" lon="11.235887"><ele>407.0</ele><time>2026-05-02T10:55:17.99Z</time></trkpt><trkpt lat="43.9584653" lon="11.2358256"><ele>407.0</ele><time>2026-05-02T10:55:18.989Z</time></trkpt><trkpt lat="43.9585581" lon="11.2357886"><ele>407.0</ele><time>2026-05-02T10:55:19.989Z</time></trkpt><trkpt lat="43.9586581" lon="11.2357581"><ele>407.0</ele><time>2026-05-02T10:55:20.99Z</time></trkpt><trkpt lat="43.9587606" lon="11.2357082"><ele>407.0</ele><time>2026-05-02T10:55:21.989Z</time></trkpt><trkpt lat="43.9588582" lon="11.235672"><ele>407.0</ele><time>2026-05-02T10:55:22.989Z</time></trkpt><trkpt lat="43.9589725" lon="11.2355765"><ele>403.25</ele><time>2026-05-02T10:55:23.989Z</time></trkpt><trkpt lat="43.9590725" lon="11.2354876"><ele>399.5</ele><time>2026-05-02T10:55:24.989Z</time></trkpt><trkpt lat="43.9591718" lon="11.2353963"><ele>395.75</ele><time>2026-05-02T10:55:25.989Z</time></trkpt><trkpt lat="43.9592726" lon="11.2353221"><ele>392.0</ele><time>2026-05-02T10:55:26.989Z</time></trkpt><trkpt lat="43.9593721" lon="11.2352649"><ele>391.99999999999994</ele><time>2026-05-02T10:55:27.989Z</time></trkpt><trkpt lat="43.9594643" lon="11.2351866"><ele>392.0</ele><time>2026-05-02T10:55:28.989Z</time></trkpt><trkpt lat="43.9595443" lon="11.2351278"><ele>392.0</ele><time>2026-05-02T10:55:29.989Z</time></trkpt><trkpt lat="43.9596129" lon="11.2350693"><ele>392.0</ele><time>2026-05-02T10:55:30.99Z</time></trkpt><trkpt lat="43.9596627" lon="11.2350023"><ele>391.99999999999994</ele><time>2026-05-02T10:55:31.989Z</time></trkpt><trkpt lat="43.9597288" lon="11.2349719"><ele>392.0</ele><time>2026-05-02T10:55:32.989Z</time></trkpt><trkpt lat="43.9597885" lon="11.2349251"><ele>391.99999999999994</ele><time>2026-05-02T10:55:33.989Z</time></trkpt><trkpt lat="43.9598559" lon="11.2348796"><ele>392.0</ele><time>2026-05-02T10:55:34.989Z</time></trkpt><trkpt lat="43.9599132" lon="11.2348318"><ele>392.0</ele><time>2026-05-02T10:55:35.99Z</time></trkpt><trkpt lat="43.9599973" lon="11.2347526"><ele>392.0</ele><time>2026-05-02T10:55:37.99Z</time></trkpt><trkpt lat="43.9600615" lon="11.2346396"><ele>391.99999999999994</ele><time>2026-05-02T10:55:39.989Z</time></trkpt><trkpt lat="43.9600769" lon="11.2345377"><ele>392.0</ele><time>2026-05-02T10:55:41.989Z</time></trkpt><trkpt lat="43.9600538" lon="11.2343582"><ele>388.99999999999994</ele><time>2026-05-02T10:55:43.99Z</time></trkpt><trkpt lat="43.9600319" lon="11.234252"><ele>386.0</ele><time>2026-05-02T10:55:44.989Z</time></trkpt><trkpt lat="43.9600079" lon="11.2341384"><ele>383.0</ele><time>2026-05-02T10:55:45.989Z</time></trkpt><trkpt lat="43.9599814" lon="11.2340269"><ele>380.0</ele><time>2026-05-02T10:55:46.989Z</time></trkpt><trkpt lat="43.9599586" lon="11.2339193"><ele>377.0</ele><time>2026-05-02T10:55:47.989Z</time></trkpt><trkpt lat="43.9599377" lon="11.233813"><ele>374.0</ele><time>2026-05-02T10:55:48.989Z</time></trkpt><trkpt lat="43.9599232" lon="11.2337116"><ele>373.0</ele><time>2026-05-02T10:55:49.989Z</time></trkpt><trkpt lat="43.9599135" lon="11.2336119"><ele>372.0</ele><time>2026-05-02T10:55:50.989Z</time></trkpt><trkpt lat="43.9599164" lon="11.2335203"><ele>371.0</ele><time>2026-05-02T10:55:51.99Z</time></trkpt><trkpt lat="43.9599318" lon="11.2333609"><ele>370.0</ele><time>2026-05-02T10:55:53.989Z</time></trkpt><trkpt lat="43.9599923" lon="11.2332451"><ele>369.0</ele><time>2026-05-02T10:55:55.989Z</time></trkpt><trkpt lat="43.960109" lon="11.2331748"><ele>368.2</ele><time>2026-05-02T10:55:57.989Z</time></trkpt><trkpt lat="43.9601875" lon="11.2331475"><ele>367.4</ele><time>2026-05-02T10:55:58.989Z</time></trkpt><trkpt lat="43.9602832" lon="11.2331202"><ele>366.6</ele><time>2026-05-02T10:55:59.99Z</time></trkpt><trkpt lat="43.9603895" lon="11.2330939"><ele>365.8</ele><time>2026-05-02T10:56:00.989Z</time></trkpt><trkpt lat="43.9604914" lon="11.2330701"><ele>365.0</ele><time>2026-05-02T10:56:01.989Z</time></trkpt><trkpt lat="43.9605895" lon="11.2330444"><ele>364.2</ele><time>2026-05-02T10:56:02.989Z</time></trkpt><trkpt lat="43.9606828" lon="11.2330135"><ele>363.4</ele><time>2026-05-02T10:56:03.989Z</time></trkpt><trkpt lat="43.960776" lon="11.2329739"><ele>362.6</ele><time>2026-05-02T10:56:04.99Z</time></trkpt><trkpt lat="43.9608664" lon="11.2329147"><ele>361.8</ele><time>2026-05-02T10:56:05.99Z</time></trkpt><trkpt lat="43.9609623" lon="11.2328299"><ele>361.0</ele><time>2026-05-02T10:56:06.989Z</time></trkpt><trkpt lat="43.9610635" lon="11.2327301"><ele>360.4</ele><time>2026-05-02T10:56:07.989Z</time></trkpt><trkpt lat="43.9611587" lon="11.2326339"><ele>359.8</ele><time>2026-05-02T10:56:08.99Z</time></trkpt><trkpt lat="43.9612497" lon="11.2325409"><ele>359.2</ele><time>2026-05-02T10:56:09.989Z</time></trkpt><trkpt lat="43.9613196" lon="11.2324681"><ele>358.59999999999997</ele><time>2026-05-02T10:56:10.989Z</time></trkpt><trkpt lat="43.9613649" lon="11.2323946"><ele>358.0</ele><time>2026-05-02T10:56:11.989Z</time></trkpt><trkpt lat="43.9613612" lon="11.2322363"><ele>356.59999999999997</ele><time>2026-05-02T10:56:13.989Z</time></trkpt><trkpt lat="43.961314" lon="11.2321715"><ele>355.2</ele><time>2026-05-02T10:56:14.99Z</time></trkpt><trkpt lat="43.9612203" lon="11.2321155"><ele>353.8</ele><time>2026-05-02T10:56:15.989Z</time></trkpt><trkpt lat="43.9611145" lon="11.2320514"><ele>352.4</ele><time>2026-05-02T10:56:16.989Z</time></trkpt><trkpt lat="43.9610105" lon="11.2319824"><ele>351.0</ele><time>2026-05-02T10:56:17.989Z</time></trkpt><trkpt lat="43.9609107" lon="11.231912"><ele>351.0</ele><time>2026-05-02T10:56:18.99Z</time></trkpt><trkpt lat="43.9608216" lon="11.2318503"><ele>351.0</ele><time>2026-05-02T10:56:19.989Z</time></trkpt><trkpt lat="43.9607498" lon="11.2317952"><ele>351.0</ele><time>2026-05-02T10:56:20.99Z</time></trkpt><trkpt lat="43.9607188" lon="11.2316613"><ele>351.0</ele><time>2026-05-02T10:56:22.991Z</time></trkpt><trkpt lat="43.960805" lon="11.231528"><ele>351.0</ele><time>2026-05-02T10:56:24.989Z</time></trkpt><trkpt lat="43.9608875" lon="11.2314754"><ele>348.25</ele><time>2026-05-02T10:56:25.989Z</time></trkpt><trkpt lat="43.9609996" lon="11.2314278"><ele>345.5</ele><time>2026-05-02T10:56:26.989Z</time></trkpt><trkpt lat="43.9611279" lon="11.231375"><ele>342.75</ele><time>2026-05-02T10:56:27.989Z</time></trkpt><trkpt lat="43.9612505" lon="11.2313177"><ele>340.0</ele><time>2026-05-02T10:56:28.989Z</time></trkpt><trkpt lat="43.9613509" lon="11.2312388"><ele>340.0</ele><time>2026-05-02T10:56:29.99Z</time></trkpt><trkpt lat="43.9614364" lon="11.2311524"><ele>340.0</ele><time>2026-05-02T10:56:30.989Z</time></trkpt><trkpt lat="43.9614923" lon="11.2310558"><ele>340.0</ele><time>2026-05-02T10:56:31.989Z</time></trkpt><trkpt lat="43.9615203" lon="11.2309541"><ele>340.0</ele><time>2026-05-02T10:56:32.989Z</time></trkpt><trkpt lat="43.9615211" lon="11.2308452"><ele>340.0</ele><time>2026-05-02T10:56:33.989Z</time></trkpt><trkpt lat="43.9614902" lon="11.2307264"><ele>340.0</ele><time>2026-05-02T10:56:34.99Z</time></trkpt><trkpt lat="43.9614275" lon="11.2306111"><ele>338.4</ele><time>2026-05-02T10:56:35.99Z</time></trkpt><trkpt lat="43.9613517" lon="11.230512"><ele>336.8</ele><time>2026-05-02T10:56:36.989Z</time></trkpt><trkpt lat="43.9612571" lon="11.2304429"><ele>335.20000000000005</ele><time>2026-05-02T10:56:37.989Z</time></trkpt><trkpt lat="43.9611599" lon="11.2304127"><ele>333.6</ele><time>2026-05-02T10:56:38.989Z</time></trkpt><trkpt lat="43.9610488" lon="11.2304085"><ele>332.0</ele><time>2026-05-02T10:56:39.989Z</time></trkpt><trkpt lat="43.9609324" lon="11.2304379"><ele>330.5</ele><time>2026-05-02T10:56:40.99Z</time></trkpt><trkpt lat="43.9608177" lon="11.2304986"><ele>329.0</ele><time>2026-05-02T10:56:41.989Z</time></trkpt><trkpt lat="43.9606992" lon="11.2305476"><ele>327.5</ele><time>2026-05-02T10:56:42.989Z</time></trkpt><trkpt lat="43.9605784" lon="11.2305558"><ele>326.0</ele><time>2026-05-02T10:56:43.99Z</time></trkpt><trkpt lat="43.9604574" lon="11.2305393"><ele>326.0</ele><time>2026-05-02T10:56:44.989Z</time></trkpt><trkpt lat="43.9603264" lon="11.2305109"><ele>326.0</ele><time>2026-05-02T10:56:45.989Z</time></trkpt><trkpt lat="43.9602049" lon="11.2304762"><ele>326.0</ele><time>2026-05-02T10:56:46.989Z</time></trkpt><trkpt lat="43.9600914" lon="11.2304367"><ele>326.0</ele><time>2026-05-02T10:56:47.989Z</time></trkpt><trkpt lat="43.9599845" lon="11.2303808"><ele>325.4</ele><time>2026-05-02T10:56:48.989Z</time></trkpt><trkpt lat="43.9598885" lon="11.2303281"><ele>324.8</ele><time>2026-05-02T10:56:49.989Z</time></trkpt><trkpt lat="43.9598088" lon="11.2302696"><ele>324.2</ele><time>2026-05-02T10:56:50.991Z</time></trkpt><trkpt lat="43.9596902" lon="11.2301105"><ele>323.59999999999997</ele><time>2026-05-02T10:56:52.99Z</time></trkpt><trkpt lat="43.9596532" lon="11.2300173"><ele>323.0</ele><time>2026-05-02T10:56:53.989Z</time></trkpt><trkpt lat="43.9596292" lon="11.2299223"><ele>323.0</ele><time>2026-05-02T10:56:54.989Z</time></trkpt><trkpt lat="43.9596225" lon="11.2298224"><ele>323.0</ele><time>2026-05-02T10:56:55.99Z</time></trkpt><trkpt lat="43.9596402" lon="11.2297168"><ele>323.0</ele><time>2026-05-02T10:56:56.989Z</time></trkpt><trkpt lat="43.9596865" lon="11.2296164"><ele>323.0</ele><time>2026-05-02T10:56:57.989Z</time></trkpt><trkpt lat="43.9597464" lon="11.22953"><ele>323.0</ele><time>2026-05-02T10:56:58.989Z</time></trkpt><trkpt lat="43.9598347" lon="11.2294535"><ele>323.0</ele><time>2026-05-02T10:56:59.99Z</time></trkpt><trkpt lat="43.9599324" lon="11.2293703"><ele>322.0</ele><time>2026-05-02T10:57:00.99Z</time></trkpt><trkpt lat="43.960038" lon="11.2292799"><ele>321.0</ele><time>2026-05-02T10:57:01.989Z</time></trkpt><trkpt lat="43.9601391" lon="11.2291681"><ele>320.0</ele><time>2026-05-02T10:57:02.989Z</time></trkpt><trkpt lat="43.9602364" lon="11.2290522"><ele>319.0</ele><time>2026-05-02T10:57:03.989Z</time></trkpt><trkpt lat="43.9603269" lon="11.2289282"><ele>322.5</ele><time>2026-05-02T10:57:04.989Z</time></trkpt><trkpt lat="43.9604059" lon="11.2287896"><ele>326.0</ele><time>2026-05-02T10:57:05.989Z</time></trkpt><trkpt lat="43.9604892" lon="11.2286471"><ele>329.5</ele><time>2026-05-02T10:57:06.989Z</time></trkpt><trkpt lat="43.9605674" lon="11.2284975"><ele>333.0</ele><time>2026-05-02T10:57:07.989Z</time></trkpt><trkpt lat="43.9606362" lon="11.2283517"><ele>333.0</ele><time>2026-05-02T10:57:08.989Z</time></trkpt><trkpt lat="43.9607115" lon="11.2282052"><ele>333.0</ele><time>2026-05-02T10:57:09.989Z</time></trkpt><trkpt lat="43.9607894" lon="11.2280627"><ele>333.0</ele><time>2026-05-02T10:57:10.989Z</time></trkpt><trkpt lat="43.9608701" lon="11.2279203"><ele>333.0</ele><time>2026-05-02T10:57:11.989Z</time></trkpt><trkpt lat="43.9609605" lon="11.2277758"><ele>335.0</ele><time>2026-05-02T10:57:12.989Z</time></trkpt><trkpt lat="43.9610498" lon="11.2276433"><ele>337.0</ele><time>2026-05-02T10:57:13.989Z</time></trkpt><trkpt lat="43.9611472" lon="11.2275322"><ele>339.0</ele><time>2026-05-02T10:57:14.99Z</time></trkpt><trkpt lat="43.9612269" lon="11.2274415"><ele>341.0</ele><time>2026-05-02T10:57:15.989Z</time></trkpt><trkpt lat="43.9612846" lon="11.2273569"><ele>343.0</ele><time>2026-05-02T10:57:16.989Z</time></trkpt><trkpt lat="43.9613113" lon="11.2272686"><ele>345.79999999999995</ele><time>2026-05-02T10:57:17.989Z</time></trkpt><trkpt lat="43.9612667" lon="11.2271013"><ele>348.6</ele><time>2026-05-02T10:57:19.989Z</time></trkpt><trkpt lat="43.9612121" lon="11.2270105"><ele>351.4</ele><time>2026-05-02T10:57:20.989Z</time></trkpt><trkpt lat="43.961138" lon="11.2269344"><ele>354.20000000000005</ele><time>2026-05-02T10:57:21.989Z</time></trkpt><trkpt lat="43.9610527" lon="11.2268684"><ele>357.0</ele><time>2026-05-02T10:57:22.99Z</time></trkpt><trkpt lat="43.9609912" lon="11.2268107"><ele>357.0</ele><time>2026-05-02T10:57:23.989Z</time></trkpt><trkpt lat="43.9609451" lon="11.2267358"><ele>357.0</ele><time>2026-05-02T10:57:24.989Z</time></trkpt><trkpt lat="43.9609218" lon="11.2266399"><ele>357.0</ele><time>2026-05-02T10:57:25.989Z</time></trkpt><trkpt lat="43.9609397" lon="11.2265456"><ele>357.0</ele><time>2026-05-02T10:57:26.989Z</time></trkpt><trkpt lat="43.9609843" lon="11.2264285"><ele>357.0</ele><time>2026-05-02T10:57:27.989Z</time></trkpt><trkpt lat="43.9610435" lon="11.2263007"><ele>357.0</ele><time>2026-05-02T10:57:28.989Z</time></trkpt><trkpt lat="43.9611027" lon="11.226182"><ele>358.0</ele><time>2026-05-02T10:57:29.989Z</time></trkpt><trkpt lat="43.9611628" lon="11.2260751"><ele>358.0</ele><time>2026-05-02T10:57:30.989Z</time></trkpt><trkpt lat="43.9612265" lon="11.2259989"><ele>358.0</ele><time>2026-05-02T10:57:31.989Z</time></trkpt><trkpt lat="43.9612926" lon="11.225935"><ele>358.0</ele><time>2026-05-02T10:57:33.99Z</time></trkpt><trkpt lat="43.961233" lon="11.2259006"><ele>358.0</ele><time>2026-05-02T10:57:39.989Z</time></trkpt><trkpt lat="43.9611651" lon="11.2259568"><ele>358.0</ele><time>2026-05-02T10:57:45.989Z</time></trkpt></trkseg><trkseg><trkpt lat="43.9613706" lon="11.2258317"><ele>358.0</ele><time>2026-05-02T11:22:17.989Z</time></trkpt><trkpt lat="43.9614457" lon="11.225775"><ele>358.0</ele><time>2026-05-02T11:22:19.988Z</time></trkpt><trkpt lat="43.961501" lon="11.2257259"><ele>358.0</ele><time>2026-05-02T11:22:20.988Z</time></trkpt><trkpt lat="43.9615706" lon="11.2255896"><ele>358.0</ele><time>2026-05-02T11:22:22.989Z</time></trkpt><trkpt lat="43.9615983" lon="11.2255086"><ele>358.0</ele><time>2026-05-02T11:22:23.988Z</time></trkpt><trkpt lat="43.9616227" lon="11.2254103"><ele>358.0</ele><time>2026-05-02T11:22:24.988Z</time></trkpt><trkpt lat="43.961636" lon="11.2252953"><ele>357.16666666666663</ele><time>2026-05-02T11:22:25.988Z</time></trkpt><trkpt lat="43.9616388" lon="11.2251747"><ele>356.3333333333333</ele><time>2026-05-02T11:22:26.988Z</time></trkpt><trkpt lat="43.9616333" lon="11.2250508"><ele>355.5</ele><time>2026-05-02T11:22:27.988Z</time></trkpt><trkpt lat="43.9616171" lon="11.2249384"><ele>354.6666666666667</ele><time>2026-05-02T11:22:28.989Z</time></trkpt><trkpt lat="43.9615925" lon="11.2248332"><ele>353.83333333333337</ele><time>2026-05-02T11:22:29.989Z</time></trkpt><trkpt lat="43.9615702" lon="11.2247354"><ele>353.0</ele><time>2026-05-02T11:22:30.989Z</time></trkpt><trkpt lat="43.9615479" lon="11.2246437"><ele>351.85714285714283</ele><time>2026-05-02T11:22:31.989Z</time></trkpt><trkpt lat="43.9615244" lon="11.2245582"><ele>350.7142857142857</ele><time>2026-05-02T11:22:32.988Z</time></trkpt><trkpt lat="43.9615008" lon="11.2244591"><ele>349.57142857142856</ele><time>2026-05-02T11:22:33.988Z</time></trkpt><trkpt lat="43.9614822" lon="11.2243547"><ele>348.42857142857144</ele><time>2026-05-02T11:22:34.989Z</time></trkpt><trkpt lat="43.9614754" lon="11.2242539"><ele>347.2857142857143</ele><time>2026-05-02T11:22:35.988Z</time></trkpt><trkpt lat="43.9614828" lon="11.2241522"><ele>346.14285714285717</ele><time>2026-05-02T11:22:36.988Z</time></trkpt><trkpt lat="43.9615113" lon="11.2240565"><ele>345.0</ele><time>2026-05-02T11:22:37.988Z</time></trkpt><trkpt lat="43.9615567" lon="11.2239643"><ele>343.2</ele><time>2026-05-02T11:22:38.988Z</time></trkpt><trkpt lat="43.9616135" lon="11.2238776"><ele>341.4</ele><time>2026-05-02T11:22:39.988Z</time></trkpt><trkpt lat="43.9616747" lon="11.2237907"><ele>339.6</ele><time>2026-05-02T11:22:40.988Z</time></trkpt><trkpt lat="43.9617363" lon="11.2236989"><ele>337.8</ele><time>2026-05-02T11:22:41.988Z</time></trkpt><trkpt lat="43.9618013" lon="11.2235981"><ele>336.0</ele><time>2026-05-02T11:22:42.988Z</time></trkpt><trkpt lat="43.9618668" lon="11.2234945"><ele>336.0</ele><time>2026-05-02T11:22:43.988Z</time></trkpt><trkpt lat="43.9619299" lon="11.2233907"><ele>336.0</ele><time>2026-05-02T11:22:44.988Z</time></trkpt><trkpt lat="43.9619847" lon="11.2232943"><ele>336.0</ele><time>2026-05-02T11:22:45.988Z</time></trkpt><trkpt lat="43.9620335" lon="11.2231994"><ele>336.0</ele><time>2026-05-02T11:22:46.988Z</time></trkpt><trkpt lat="43.962067" lon="11.2231026"><ele>336.0</ele><time>2026-05-02T11:22:47.988Z</time></trkpt><trkpt lat="43.9620797" lon="11.223004"><ele>336.0</ele><time>2026-05-02T11:22:48.988Z</time></trkpt><trkpt lat="43.9620801" lon="11.2229142"><ele>333.4</ele><time>2026-05-02T11:22:49.988Z</time></trkpt><trkpt lat="43.9620677" lon="11.2228151"><ele>330.8</ele><time>2026-05-02T11:22:50.989Z</time></trkpt><trkpt lat="43.962039" lon="11.2227022"><ele>328.2</ele><time>2026-05-02T11:22:51.988Z</time></trkpt><trkpt lat="43.9620098" lon="11.2225731"><ele>325.59999999999997</ele><time>2026-05-02T11:22:52.988Z</time></trkpt><trkpt lat="43.9619828" lon="11.222445"><ele>323.0</ele><time>2026-05-02T11:22:53.988Z</time></trkpt><trkpt lat="43.9619504" lon="11.2223128"><ele>321.79999999999995</ele><time>2026-05-02T11:22:54.988Z</time></trkpt><trkpt lat="43.9619194" lon="11.2221789"><ele>320.59999999999997</ele><time>2026-05-02T11:22:55.99Z</time></trkpt><trkpt lat="43.9618858" lon="11.2220442"><ele>319.4</ele><time>2026-05-02T11:22:56.988Z</time></trkpt><trkpt lat="43.9618549" lon="11.2219136"><ele>318.2</ele><time>2026-05-02T11:22:57.989Z</time></trkpt><trkpt lat="43.9618287" lon="11.2217802"><ele>317.0</ele><time>2026-05-02T11:22:58.988Z</time></trkpt><trkpt lat="43.9618042" lon="11.2216511"><ele>317.0</ele><time>2026-05-02T11:22:59.989Z</time></trkpt><trkpt lat="43.9617774" lon="11.221522"><ele>317.0</ele><time>2026-05-02T11:23:00.988Z</time></trkpt><trkpt lat="43.9617505" lon="11.2213935"><ele>317.0</ele><time>2026-05-02T11:23:01.988Z</time></trkpt><trkpt lat="43.9617219" lon="11.2212741"><ele>317.0</ele><time>2026-05-02T11:23:02.988Z</time></trkpt><trkpt lat="43.9616958" lon="11.2211586"><ele>317.0</ele><time>2026-05-02T11:23:03.988Z</time></trkpt><trkpt lat="43.9616759" lon="11.221058"><ele>317.0</ele><time>2026-05-02T11:23:04.988Z</time></trkpt><trkpt lat="43.961661" lon="11.2209726"><ele>315.0</ele><time>2026-05-02T11:23:05.988Z</time></trkpt><trkpt lat="43.9616484" lon="11.2208571"><ele>313.0</ele><time>2026-05-02T11:23:07.989Z</time></trkpt><trkpt lat="43.9616212" lon="11.2207737"><ele>311.0</ele><time>2026-05-02T11:23:19.988Z</time></trkpt><trkpt lat="43.961645" lon="11.2206846"><ele>309.0</ele><time>2026-05-02T11:23:37.988Z</time></trkpt><trkpt lat="43.9616725" lon="11.2205573"><ele>307.0</ele><time>2026-05-02T11:23:39.988Z</time></trkpt><trkpt lat="43.9617194" lon="11.2204099"><ele>305.0</ele><time>2026-05-02T11:23:41.989Z</time></trkpt><trkpt lat="43.961752" lon="11.2203284"><ele>305.0</ele><time>2026-05-02T11:23:42.988Z</time></trkpt><trkpt lat="43.961791" lon="11.2202442"><ele>305.0</ele><time>2026-05-02T11:23:43.988Z</time></trkpt><trkpt lat="43.9618326" lon="11.2201679"><ele>305.0</ele><time>2026-05-02T11:23:44.988Z</time></trkpt><trkpt lat="43.9618828" lon="11.2200994"><ele>305.0</ele><time>2026-05-02T11:23:45.988Z</time></trkpt><trkpt lat="43.9619331" lon="11.2200384"><ele>305.0</ele><time>2026-05-02T11:23:46.988Z</time></trkpt><trkpt lat="43.9619917" lon="11.2199782"><ele>305.0</ele><time>2026-05-02T11:23:47.988Z</time></trkpt><trkpt lat="43.9620584" lon="11.2199169"><ele>305.0</ele><time>2026-05-02T11:23:48.989Z</time></trkpt><trkpt lat="43.9621294" lon="11.2198559"><ele>304.2</ele><time>2026-05-02T11:23:49.988Z</time></trkpt><trkpt lat="43.9622066" lon="11.2197974"><ele>303.4</ele><time>2026-05-02T11:23:50.988Z</time></trkpt><trkpt lat="43.9622888" lon="11.2197376"><ele>302.6</ele><time>2026-05-02T11:23:51.988Z</time></trkpt><trkpt lat="43.9623825" lon="11.2196835"><ele>301.8</ele><time>2026-05-02T11:23:52.988Z</time></trkpt><trkpt lat="43.962485" lon="11.2196386"><ele>301.0</ele><time>2026-05-02T11:23:53.988Z</time></trkpt><trkpt lat="43.9625965" lon="11.2196031"><ele>301.0</ele><time>2026-05-02T11:23:54.988Z</time></trkpt><trkpt lat="43.9627164" lon="11.2195579"><ele>301.0</ele><time>2026-05-02T11:23:55.988Z</time></trkpt><trkpt lat="43.9628328" lon="11.2195147"><ele>301.0</ele><time>2026-05-02T11:23:56.989Z</time></trkpt><trkpt lat="43.9629534" lon="11.2194772"><ele>301.0</ele><time>2026-05-02T11:23:57.988Z</time></trkpt><trkpt lat="43.9630773" lon="11.219449"><ele>301.0</ele><time>2026-05-02T11:23:58.989Z</time></trkpt><trkpt lat="43.9631995" lon="11.2194155"><ele>301.0</ele><time>2026-05-02T11:23:59.989Z</time></trkpt><trkpt lat="43.9633199" lon="11.2193806"><ele>301.0</ele><time>2026-05-02T11:24:00.988Z</time></trkpt><trkpt lat="43.9634336" lon="11.2193522"><ele>301.0</ele><time>2026-05-02T11:24:01.988Z</time></trkpt><trkpt lat="43.963547" lon="11.2193097"><ele>300.75</ele><time>2026-05-02T11:24:02.988Z</time></trkpt><trkpt lat="43.963665" lon="11.2192598"><ele>300.5</ele><time>2026-05-02T11:24:03.989Z</time></trkpt><trkpt lat="43.9637816" lon="11.219219"><ele>300.25</ele><time>2026-05-02T11:24:04.988Z</time></trkpt><trkpt lat="43.9638867" lon="11.2191867"><ele>300.0</ele><time>2026-05-02T11:24:05.988Z</time></trkpt><trkpt lat="43.9639973" lon="11.2191514"><ele>300.0</ele><time>2026-05-02T11:24:06.988Z</time></trkpt><trkpt lat="43.964108" lon="11.2191193"><ele>300.0</ele><time>2026-05-02T11:24:07.988Z</time></trkpt><trkpt lat="43.9642227" lon="11.2190732"><ele>300.0</ele><time>2026-05-02T11:24:08.988Z</time></trkpt><trkpt lat="43.9643326" lon="11.2190337"><ele>300.0</ele><time>2026-05-02T11:24:09.988Z</time></trkpt><trkpt lat="43.9644423" lon="11.2190133"><ele>301.0</ele><time>2026-05-02T11:24:10.988Z</time></trkpt><trkpt lat="43.9645528" lon="11.2190168"><ele>302.0</ele><time>2026-05-02T11:24:11.988Z</time></trkpt><trkpt lat="43.9646677" lon="11.2190244"><ele>303.0</ele><time>2026-05-02T11:24:12.989Z</time></trkpt><trkpt lat="43.9647893" lon="11.2190484"><ele>304.0</ele><time>2026-05-02T11:24:13.988Z</time></trkpt><trkpt lat="43.9649189" lon="11.2190752"><ele>303.75</ele><time>2026-05-02T11:24:14.988Z</time></trkpt><trkpt lat="43.9650492" lon="11.2190948"><ele>303.5</ele><time>2026-05-02T11:24:15.988Z</time></trkpt><trkpt lat="43.965178" lon="11.2191039"><ele>303.25</ele><time>2026-05-02T11:24:16.989Z</time></trkpt><trkpt lat="43.9653052" lon="11.2191074"><ele>303.0</ele><time>2026-05-02T11:24:17.988Z</time></trkpt><trkpt lat="43.9654301" lon="11.2191114"><ele>303.0</ele><time>2026-05-02T11:24:18.988Z</time></trkpt><trkpt lat="43.965549" lon="11.2191194"><ele>303.0</ele><time>2026-05-02T11:24:19.988Z</time></trkpt><trkpt lat="43.9656591" lon="11.2191224"><ele>303.0</ele><time>2026-05-02T11:24:20.988Z</time></trkpt><trkpt lat="43.9657589" lon="11.2191257"><ele>303.0</ele><time>2026-05-02T11:24:21.989Z</time></trkpt><trkpt lat="43.9658433" lon="11.2191204"><ele>303.0</ele><time>2026-05-02T11:24:22.988Z</time></trkpt><trkpt lat="43.9659105" lon="11.2190915"><ele>301.0</ele><time>2026-05-02T11:24:23.989Z</time></trkpt><trkpt lat="43.9659745" lon="11.2189668"><ele>299.0</ele><time>2026-05-02T11:24:25.988Z</time></trkpt><trkpt lat="43.9659857" lon="11.2188618"><ele>297.0</ele><time>2026-05-02T11:24:26.988Z</time></trkpt><trkpt lat="43.9659928" lon="11.2187423"><ele>295.0</ele><time>2026-05-02T11:24:27.988Z</time></trkpt><trkpt lat="43.9660008" lon="11.2186034"><ele>293.0</ele><time>2026-05-02T11:24:28.988Z</time></trkpt><trkpt lat="43.9660136" lon="11.2184555"><ele>293.0</ele><time>2026-05-02T11:24:29.988Z</time></trkpt><trkpt lat="43.9660284" lon="11.2183005"><ele>293.0</ele><time>2026-05-02T11:24:30.989Z</time></trkpt><trkpt lat="43.9660394" lon="11.2181377"><ele>293.0</ele><time>2026-05-02T11:24:31.988Z</time></trkpt><trkpt lat="43.9660514" lon="11.2179776"><ele>293.0</ele><time>2026-05-02T11:24:32.988Z</time></trkpt><trkpt lat="43.9660593" lon="11.2178285"><ele>292.6</ele><time>2026-05-02T11:24:33.988Z</time></trkpt><trkpt lat="43.9660743" lon="11.2176828"><ele>292.20000000000005</ele><time>2026-05-02T11:24:34.989Z</time></trkpt><trkpt lat="43.9660895" lon="11.2175442"><ele>291.8</ele><time>2026-05-02T11:24:35.989Z</time></trkpt><trkpt lat="43.9661043" lon="11.2174179"><ele>291.40000000000003</ele><time>2026-05-02T11:24:36.988Z</time></trkpt><trkpt lat="43.9661141" lon="11.2172991"><ele>291.0</ele><time>2026-05-02T11:24:37.988Z</time></trkpt><trkpt lat="43.9661208" lon="11.2171903"><ele>291.6666666666667</ele><time>2026-05-02T11:24:38.988Z</time></trkpt><trkpt lat="43.9661286" lon="11.2170934"><ele>292.3333333333333</ele><time>2026-05-02T11:24:39.989Z</time></trkpt><trkpt lat="43.9661382" lon="11.2169303"><ele>293.0</ele><time>2026-05-02T11:24:41.989Z</time></trkpt><trkpt lat="43.9661554" lon="11.216807"><ele>293.66666666666663</ele><time>2026-05-02T11:24:43.989Z</time></trkpt><trkpt lat="43.9661859" lon="11.216701"><ele>294.3333333333333</ele><time>2026-05-02T11:24:47.988Z</time></trkpt><trkpt lat="43.9662641" lon="11.2166683"><ele>295.0</ele><time>2026-05-02T11:24:48.988Z</time></trkpt><trkpt lat="43.9663568" lon="11.2166459"><ele>295.0</ele><time>2026-05-02T11:24:49.988Z</time></trkpt><trkpt lat="43.9664619" lon="11.2166145"><ele>295.0</ele><time>2026-05-02T11:24:50.989Z</time></trkpt><trkpt lat="43.9665846" lon="11.2165845"><ele>295.0</ele><time>2026-05-02T11:24:51.989Z</time></trkpt><trkpt lat="43.9667298" lon="11.2165635"><ele>295.0</ele><time>2026-05-02T11:24:52.988Z</time></trkpt><trkpt lat="43.9668739" lon="11.2165601"><ele>296.0</ele><time>2026-05-02T11:24:53.989Z</time></trkpt><trkpt lat="43.9670278" lon="11.216584"><ele>297.0</ele><time>2026-05-02T11:24:54.988Z</time></trkpt><trkpt lat="43.9671912" lon="11.216625"><ele>298.0</ele><time>2026-05-02T11:24:55.988Z</time></trkpt><trkpt lat="43.9673477" lon="11.2167045"><ele>298.0</ele><time>2026-05-02T11:24:56.988Z</time></trkpt><trkpt lat="43.9674889" lon="11.2168173"><ele>298.0</ele><time>2026-05-02T11:24:57.988Z</time></trkpt><trkpt lat="43.9676293" lon="11.2169355"><ele>298.0</ele><time>2026-05-02T11:24:58.989Z</time></trkpt><trkpt lat="43.9677691" lon="11.2170315"><ele>300.66666666666663</ele><time>2026-05-02T11:24:59.988Z</time></trkpt><trkpt lat="43.9679151" lon="11.2171068"><ele>303.3333333333333</ele><time>2026-05-02T11:25:00.989Z</time></trkpt><trkpt lat="43.968068" lon="11.2171394"><ele>306.0</ele><time>2026-05-02T11:25:01.989Z</time></trkpt><trkpt lat="43.9682227" lon="11.2171404"><ele>309.3333333333333</ele><time>2026-05-02T11:25:02.988Z</time></trkpt><trkpt lat="43.9683815" lon="11.2171053"><ele>312.66666666666663</ele><time>2026-05-02T11:25:03.988Z</time></trkpt><trkpt lat="43.9685507" lon="11.2170765"><ele>316.0</ele><time>2026-05-02T11:25:04.988Z</time></trkpt><trkpt lat="43.9687179" lon="11.21706"><ele>316.0</ele><time>2026-05-02T11:25:05.988Z</time></trkpt><trkpt lat="43.9688907" lon="11.2170591"><ele>316.0</ele><time>2026-05-02T11:25:06.988Z</time></trkpt><trkpt lat="43.969062" lon="11.217068"><ele>316.0</ele><time>2026-05-02T11:25:07.988Z</time></trkpt><trkpt lat="43.9692376" lon="11.2171073"><ele>318.3333333333333</ele><time>2026-05-02T11:25:08.989Z</time></trkpt><trkpt lat="43.969429" lon="11.2171565"><ele>320.6666666666667</ele><time>2026-05-02T11:25:09.989Z</time></trkpt><trkpt lat="43.9696197" lon="11.2171997"><ele>323.0</ele><time>2026-05-02T11:25:10.988Z</time></trkpt><trkpt lat="43.9698074" lon="11.2172406"><ele>323.0</ele><time>2026-05-02T11:25:11.988Z</time></trkpt><trkpt lat="43.9699908" lon="11.217272"><ele>323.0</ele><time>2026-05-02T11:25:12.99Z</time></trkpt><trkpt lat="43.9701688" lon="11.2172792"><ele>323.0</ele><time>2026-05-02T11:25:13.989Z</time></trkpt><trkpt lat="43.9703407" lon="11.2172533"><ele>322.75</ele><time>2026-05-02T11:25:14.988Z</time></trkpt><trkpt lat="43.9704944" lon="11.2171857"><ele>322.5</ele><time>2026-05-02T11:25:15.988Z</time></trkpt><trkpt lat="43.9706243" lon="11.2170925"><ele>322.25</ele><time>2026-05-02T11:25:16.989Z</time></trkpt><trkpt lat="43.9707429" lon="11.2169941"><ele>322.0</ele><time>2026-05-02T11:25:17.988Z</time></trkpt><trkpt lat="43.9708631" lon="11.2169237"><ele>320.5</ele><time>2026-05-02T11:25:18.988Z</time></trkpt><trkpt lat="43.9709966" lon="11.2168932"><ele>319.0</ele><time>2026-05-02T11:25:19.988Z</time></trkpt><trkpt lat="43.971134" lon="11.2168968"><ele>317.5</ele><time>2026-05-02T11:25:20.989Z</time></trkpt><trkpt lat="43.9712821" lon="11.2169299"><ele>316.0</ele><time>2026-05-02T11:25:21.988Z</time></trkpt><trkpt lat="43.9714429" lon="11.2169456"><ele>316.0</ele><time>2026-05-02T11:25:22.988Z</time></trkpt><trkpt lat="43.9716219" lon="11.2169149"><ele>316.0</ele><time>2026-05-02T11:25:23.989Z</time></trkpt><trkpt lat="43.97181" lon="11.2168778"><ele>316.0</ele><time>2026-05-02T11:25:24.988Z</time></trkpt><trkpt lat="43.9719874" lon="11.2168449"><ele>313.0</ele><time>2026-05-02T11:25:25.988Z</time></trkpt><trkpt lat="43.9721634" lon="11.2168143"><ele>310.0</ele><time>2026-05-02T11:25:26.989Z</time></trkpt><trkpt lat="43.9723403" lon="11.2168007"><ele>307.0</ele><time>2026-05-02T11:25:27.988Z</time></trkpt><trkpt lat="43.972506" lon="11.2168066"><ele>307.0</ele><time>2026-05-02T11:25:28.988Z</time></trkpt><trkpt lat="43.9726637" lon="11.2168761"><ele>307.0</ele><time>2026-05-02T11:25:29.989Z</time></trkpt><trkpt lat="43.9728242" lon="11.216943"><ele>307.0</ele><time>2026-05-02T11:25:30.988Z</time></trkpt><trkpt lat="43.9729817" lon="11.2170736"><ele>307.0</ele><time>2026-05-02T11:25:31.989Z</time></trkpt><trkpt lat="43.97315" lon="11.2171995"><ele>307.0</ele><time>2026-05-02T11:25:32.988Z</time></trkpt><trkpt lat="43.9733135" lon="11.2173291"><ele>307.0</ele><time>2026-05-02T11:25:33.988Z</time></trkpt><trkpt lat="43.9734708" lon="11.2174699"><ele>307.66666666666663</ele><time>2026-05-02T11:25:34.988Z</time></trkpt><trkpt lat="43.9736245" lon="11.2176014"><ele>308.3333333333333</ele><time>2026-05-02T11:25:35.988Z</time></trkpt><trkpt lat="43.973753" lon="11.2177541"><ele>309.0</ele><time>2026-05-02T11:25:36.989Z</time></trkpt><trkpt lat="43.9738772" lon="11.2178938"><ele>309.0</ele><time>2026-05-02T11:25:37.989Z</time></trkpt><trkpt lat="43.9740019" lon="11.2180305"><ele>309.0</ele><time>2026-05-02T11:25:38.988Z</time></trkpt><trkpt lat="43.9741377" lon="11.2181517"><ele>309.0</ele><time>2026-05-02T11:25:39.988Z</time></trkpt><trkpt lat="43.9742931" lon="11.2182494"><ele>306.3333333333333</ele><time>2026-05-02T11:25:40.989Z</time></trkpt><trkpt lat="43.9744569" lon="11.2183465"><ele>303.66666666666663</ele><time>2026-05-02T11:25:41.988Z</time></trkpt><trkpt lat="43.9746202" lon="11.2184513"><ele>301.0</ele><time>2026-05-02T11:25:42.988Z</time></trkpt><trkpt lat="43.9747787" lon="11.2185677"><ele>301.0</ele><time>2026-05-02T11:25:43.988Z</time></trkpt><trkpt lat="43.9749297" lon="11.2186917"><ele>301.0</ele><time>2026-05-02T11:25:44.988Z</time></trkpt><trkpt lat="43.9750707" lon="11.2188224"><ele>301.0</ele><time>2026-05-02T11:25:45.988Z</time></trkpt><trkpt lat="43.9751949" lon="11.2189872"><ele>300.0</ele><time>2026-05-02T11:25:46.988Z</time></trkpt><trkpt lat="43.9753106" lon="11.2191787"><ele>299.0</ele><time>2026-05-02T11:25:47.989Z</time></trkpt><trkpt lat="43.9754216" lon="11.2193947"><ele>298.0</ele><time>2026-05-02T11:25:48.989Z</time></trkpt><trkpt lat="43.9755384" lon="11.2196262"><ele>300.0</ele><time>2026-05-02T11:25:49.988Z</time></trkpt><trkpt lat="43.9756575" lon="11.219861"><ele>302.0</ele><time>2026-05-02T11:25:50.988Z</time></trkpt><trkpt lat="43.9757718" lon="11.2200764"><ele>304.0</ele><time>2026-05-02T11:25:51.989Z</time></trkpt><trkpt lat="43.975879" lon="11.2202897"><ele>304.0</ele><time>2026-05-02T11:25:52.988Z</time></trkpt><trkpt lat="43.9759822" lon="11.2204907"><ele>304.0</ele><time>2026-05-02T11:25:53.988Z</time></trkpt><trkpt lat="43.9760736" lon="11.2206922"><ele>304.0</ele><time>2026-05-02T11:25:54.988Z</time></trkpt><trkpt lat="43.9761344" lon="11.2209043"><ele>301.66666666666663</ele><time>2026-05-02T11:25:55.988Z</time></trkpt><trkpt lat="43.9761666" lon="11.2211329"><ele>299.3333333333333</ele><time>2026-05-02T11:25:56.988Z</time></trkpt><trkpt lat="43.9761719" lon="11.2213701"><ele>297.0</ele><time>2026-05-02T11:25:57.988Z</time></trkpt><trkpt lat="43.976163" lon="11.2216161"><ele>296.6666666666667</ele><time>2026-05-02T11:25:58.988Z</time></trkpt><trkpt lat="43.9761479" lon="11.2218747"><ele>296.33333333333337</ele><time>2026-05-02T11:25:59.988Z</time></trkpt><trkpt lat="43.9761341" lon="11.2221333"><ele>296.0</ele><time>2026-05-02T11:26:00.988Z</time></trkpt><trkpt lat="43.9761208" lon="11.2223859"><ele>296.0</ele><time>2026-05-02T11:26:01.988Z</time></trkpt><trkpt lat="43.9761082" lon="11.2226296"><ele>296.0</ele><time>2026-05-02T11:26:02.988Z</time></trkpt><trkpt lat="43.9760952" lon="11.2228632"><ele>296.0</ele><time>2026-05-02T11:26:03.989Z</time></trkpt><trkpt lat="43.9760819" lon="11.2230877"><ele>294.75</ele><time>2026-05-02T11:26:04.988Z</time></trkpt><trkpt lat="43.9760789" lon="11.2233029"><ele>293.5</ele><time>2026-05-02T11:26:05.988Z</time></trkpt><trkpt lat="43.9760763" lon="11.223502"><ele>292.25</ele><time>2026-05-02T11:26:06.988Z</time></trkpt><trkpt lat="43.9760919" lon="11.2236906"><ele>291.0</ele><time>2026-05-02T11:26:07.988Z</time></trkpt><trkpt lat="43.9761457" lon="11.2238594"><ele>287.0</ele><time>2026-05-02T11:26:08.988Z</time></trkpt><trkpt lat="43.9762443" lon="11.2240081"><ele>283.0</ele><time>2026-05-02T11:26:09.988Z</time></trkpt><trkpt lat="43.9763794" lon="11.2241253"><ele>279.0</ele><time>2026-05-02T11:26:10.988Z</time></trkpt><trkpt lat="43.976535" lon="11.224221"><ele>279.0</ele><time>2026-05-02T11:26:11.988Z</time></trkpt><trkpt lat="43.9767118" lon="11.2242895"><ele>279.0</ele><time>2026-05-02T11:26:12.989Z</time></trkpt><trkpt lat="43.9768923" lon="11.224361"><ele>279.0</ele><time>2026-05-02T11:26:13.99Z</time></trkpt><trkpt lat="43.9770713" lon="11.2244375"><ele>279.0</ele><time>2026-05-02T11:26:14.988Z</time></trkpt><trkpt lat="43.977251" lon="11.2245214"><ele>279.0</ele><time>2026-05-02T11:26:15.988Z</time></trkpt><trkpt lat="43.9774281" lon="11.2246037"><ele>279.0</ele><time>2026-05-02T11:26:16.988Z</time></trkpt><trkpt lat="43.9776088" lon="11.2246842"><ele>276.6666666666667</ele><time>2026-05-02T11:26:17.989Z</time></trkpt><trkpt lat="43.9777822" lon="11.2247615"><ele>274.33333333333337</ele><time>2026-05-02T11:26:18.988Z</time></trkpt><trkpt lat="43.9779532" lon="11.2248368"><ele>272.0</ele><time>2026-05-02T11:26:19.988Z</time></trkpt><trkpt lat="43.9781298" lon="11.2249188"><ele>270.0</ele><time>2026-05-02T11:26:20.988Z</time></trkpt><trkpt lat="43.9783022" lon="11.2249932"><ele>268.0</ele><time>2026-05-02T11:26:21.988Z</time></trkpt><trkpt lat="43.978472" lon="11.225065"><ele>266.0</ele><time>2026-05-02T11:26:22.989Z</time></trkpt><trkpt lat="43.9786397" lon="11.2251364"><ele>264.6666666666667</ele><time>2026-05-02T11:26:23.989Z</time></trkpt><trkpt lat="43.9788026" lon="11.2252118"><ele>263.3333333333333</ele><time>2026-05-02T11:26:24.988Z</time></trkpt><trkpt lat="43.9789646" lon="11.2252978"><ele>262.0</ele><time>2026-05-02T11:26:25.988Z</time></trkpt><trkpt lat="43.979125" lon="11.2253883"><ele>261.3333333333333</ele><time>2026-05-02T11:26:26.988Z</time></trkpt><trkpt lat="43.979276" lon="11.22547"><ele>260.6666666666667</ele><time>2026-05-02T11:26:27.989Z</time></trkpt><trkpt lat="43.9794189" lon="11.2255541"><ele>260.0</ele><time>2026-05-02T11:26:28.988Z</time></trkpt><trkpt lat="43.9795526" lon="11.2256347"><ele>259.75</ele><time>2026-05-02T11:26:29.988Z</time></trkpt><trkpt lat="43.9796807" lon="11.2257075"><ele>259.5</ele><time>2026-05-02T11:26:30.989Z</time></trkpt><trkpt lat="43.9797961" lon="11.2257807"><ele>259.25</ele><time>2026-05-02T11:26:31.988Z</time></trkpt><trkpt lat="43.9798979" lon="11.2258547"><ele>259.0</ele><time>2026-05-02T11:26:32.988Z</time></trkpt><trkpt lat="43.9799823" lon="11.2259393"><ele>259.0</ele><time>2026-05-02T11:26:33.988Z</time></trkpt><trkpt lat="43.9800548" lon="11.2260255"><ele>259.0</ele><time>2026-05-02T11:26:34.988Z</time></trkpt><trkpt lat="43.9801166" lon="11.2261188"><ele>259.0</ele><time>2026-05-02T11:26:35.988Z</time></trkpt><trkpt lat="43.980167" lon="11.2262207"><ele>259.0</ele><time>2026-05-02T11:26:36.988Z</time></trkpt><trkpt lat="43.9802012" lon="11.2263262"><ele>259.0</ele><time>2026-05-02T11:26:37.988Z</time></trkpt><trkpt lat="43.9802296" lon="11.2264267"><ele>259.0</ele><time>2026-05-02T11:26:38.988Z</time></trkpt><trkpt lat="43.9802609" lon="11.2265131"><ele>259.0</ele><time>2026-05-02T11:26:39.988Z</time></trkpt><trkpt lat="43.9803071" lon="11.2265814"><ele>259.0</ele><time>2026-05-02T11:26:40.988Z</time></trkpt><trkpt lat="43.9803895" lon="11.2266678"><ele>259.0</ele><time>2026-05-02T11:26:42.988Z</time></trkpt><trkpt lat="43.9804627" lon="11.226696"><ele>259.0</ele><time>2026-05-02T11:26:45.989Z</time></trkpt></trkseg></trk></gpx>